<?xml version="1.0" encoding="UTF-8" standalone="no" ?>
<gpx xmlns="http://www.topografix.com/GPX/1/1" xmlns:xsi="http://www.w3.org/2001/XMLSchema-instance" xsi:schemaLocation="http://www.topografix.com/GPX/1/1 http://www.topografix.com/GPX/1/1/gpx.xsd" version="1.1" creator="VisuGPX - https://www.visugpx.com">
  <metadata>
    <name>Randazille 3-1-22</name>
    <desc><![CDATA[avec Marie Annick, Suzy, Valérie, Jean et Newton]]></desc>
  </metadata>
  <trk>
    <name><![CDATA[Randazille 3-1-22]]></name>
    <trkseg>
      <trkpt lat="43.2781" lon="2.6607">
        <ele>91.400001525879</ele>
        <time>2022-01-03T13:04:08.000Z</time>
      </trkpt>
      <trkpt lat="43.27804" lon="2.66073">
        <ele>90.400001525879</ele>
        <time>2022-01-03T13:04:15.000Z</time>
      </trkpt>
      <trkpt lat="43.27803" lon="2.66074">
        <ele>90.400001525879</ele>
        <time>2022-01-03T13:04:16.000Z</time>
      </trkpt>
      <trkpt lat="43.27798" lon="2.6608">
        <ele>90.199996948242</ele>
        <time>2022-01-03T13:04:20.000Z</time>
      </trkpt>
      <trkpt lat="43.27797" lon="2.66081">
        <ele>90.199996948242</ele>
        <time>2022-01-03T13:04:21.000Z</time>
      </trkpt>
      <trkpt lat="43.27796" lon="2.66084">
        <ele>90.199996948242</ele>
        <time>2022-01-03T13:04:23.000Z</time>
      </trkpt>
      <trkpt lat="43.27794" lon="2.66087">
        <ele>90.199996948242</ele>
        <time>2022-01-03T13:04:26.000Z</time>
      </trkpt>
      <trkpt lat="43.27794" lon="2.66089">
        <ele>90.199996948242</ele>
        <time>2022-01-03T13:04:28.000Z</time>
      </trkpt>
      <trkpt lat="43.27794" lon="2.6609">
        <ele>90.199996948242</ele>
        <time>2022-01-03T13:04:29.000Z</time>
      </trkpt>
      <trkpt lat="43.27793" lon="2.66095">
        <ele>90.400001525879</ele>
        <time>2022-01-03T13:04:32.000Z</time>
      </trkpt>
      <trkpt lat="43.27793" lon="2.66096">
        <ele>90.400001525879</ele>
        <time>2022-01-03T13:04:33.000Z</time>
      </trkpt>
      <trkpt lat="43.27792" lon="2.66097">
        <ele>90.400001525879</ele>
        <time>2022-01-03T13:04:34.000Z</time>
      </trkpt>
      <trkpt lat="43.27791" lon="2.661">
        <ele>90.400001525879</ele>
        <time>2022-01-03T13:04:37.000Z</time>
      </trkpt>
      <trkpt lat="43.27791" lon="2.66103">
        <ele>90.199996948242</ele>
        <time>2022-01-03T13:04:39.000Z</time>
      </trkpt>
      <trkpt lat="43.2779" lon="2.66112">
        <ele>89.599998474121</ele>
        <time>2022-01-03T13:04:45.000Z</time>
      </trkpt>
      <trkpt lat="43.27789" lon="2.66115">
        <ele>90</ele>
        <time>2022-01-03T13:04:47.000Z</time>
      </trkpt>
      <trkpt lat="43.27789" lon="2.66116">
        <ele>90</ele>
        <time>2022-01-03T13:04:48.000Z</time>
      </trkpt>
      <trkpt lat="43.27785" lon="2.66127">
        <ele>90.400001525879</ele>
        <time>2022-01-03T13:04:55.000Z</time>
      </trkpt>
      <trkpt lat="43.27783" lon="2.66131">
        <ele>90.400001525879</ele>
        <time>2022-01-03T13:04:58.000Z</time>
      </trkpt>
      <trkpt lat="43.27777" lon="2.66134">
        <ele>90.599998474121</ele>
        <time>2022-01-03T13:05:01.000Z</time>
      </trkpt>
      <trkpt lat="43.27773" lon="2.66136">
        <ele>90.599998474121</ele>
        <time>2022-01-03T13:05:03.000Z</time>
      </trkpt>
      <trkpt lat="43.27771" lon="2.6614">
        <ele>90.599998474121</ele>
        <time>2022-01-03T13:05:05.000Z</time>
      </trkpt>
      <trkpt lat="43.27769" lon="2.66144">
        <ele>90.199996948242</ele>
        <time>2022-01-03T13:05:08.000Z</time>
      </trkpt>
      <trkpt lat="43.27769" lon="2.66149">
        <ele>90</ele>
        <time>2022-01-03T13:05:10.000Z</time>
      </trkpt>
      <trkpt lat="43.27769" lon="2.66154">
        <ele>90</ele>
        <time>2022-01-03T13:05:12.000Z</time>
      </trkpt>
      <trkpt lat="43.27766" lon="2.66161">
        <ele>89.599998474121</ele>
        <time>2022-01-03T13:05:16.000Z</time>
      </trkpt>
      <trkpt lat="43.27766" lon="2.66164">
        <ele>89.599998474121</ele>
        <time>2022-01-03T13:05:17.000Z</time>
      </trkpt>
      <trkpt lat="43.27765" lon="2.66169">
        <ele>89.400001525879</ele>
        <time>2022-01-03T13:05:19.000Z</time>
      </trkpt>
      <trkpt lat="43.27765" lon="2.66171">
        <ele>89.400001525879</ele>
        <time>2022-01-03T13:05:20.000Z</time>
      </trkpt>
      <trkpt lat="43.27764" lon="2.66175">
        <ele>89.400001525879</ele>
        <time>2022-01-03T13:05:22.000Z</time>
      </trkpt>
      <trkpt lat="43.27763" lon="2.66177">
        <ele>89.400001525879</ele>
        <time>2022-01-03T13:05:23.000Z</time>
      </trkpt>
      <trkpt lat="43.27758" lon="2.66184">
        <ele>89.599998474121</ele>
        <time>2022-01-03T13:05:28.000Z</time>
      </trkpt>
      <trkpt lat="43.27752" lon="2.66191">
        <ele>89</ele>
        <time>2022-01-03T13:05:34.000Z</time>
      </trkpt>
      <trkpt lat="43.27751" lon="2.66194">
        <ele>89</ele>
        <time>2022-01-03T13:05:37.000Z</time>
      </trkpt>
      <trkpt lat="43.27749" lon="2.66196">
        <ele>89.199996948242</ele>
        <time>2022-01-03T13:05:39.000Z</time>
      </trkpt>
      <trkpt lat="43.27747" lon="2.66197">
        <ele>89.400001525879</ele>
        <time>2022-01-03T13:05:41.000Z</time>
      </trkpt>
      <trkpt lat="43.27739" lon="2.66202">
        <ele>88.800003051758</ele>
        <time>2022-01-03T13:05:46.000Z</time>
      </trkpt>
      <trkpt lat="43.27739" lon="2.66202">
        <ele>88.800003051758</ele>
        <time>2022-01-03T13:05:47.000Z</time>
      </trkpt>
      <trkpt lat="43.27732" lon="2.66208">
        <ele>89</ele>
        <time>2022-01-03T13:05:55.000Z</time>
      </trkpt>
      <trkpt lat="43.27731" lon="2.66209">
        <ele>89</ele>
        <time>2022-01-03T13:05:57.000Z</time>
      </trkpt>
      <trkpt lat="43.2773" lon="2.66212">
        <ele>88.800003051758</ele>
        <time>2022-01-03T13:06:00.000Z</time>
      </trkpt>
      <trkpt lat="43.27729" lon="2.66214">
        <ele>88.599998474121</ele>
        <time>2022-01-03T13:06:02.000Z</time>
      </trkpt>
      <trkpt lat="43.27727" lon="2.66215">
        <ele>88.400001525879</ele>
        <time>2022-01-03T13:06:03.000Z</time>
      </trkpt>
      <trkpt lat="43.27726" lon="2.66216">
        <ele>88.400001525879</ele>
        <time>2022-01-03T13:06:04.000Z</time>
      </trkpt>
      <trkpt lat="43.27724" lon="2.66217">
        <ele>88.199996948242</ele>
        <time>2022-01-03T13:06:05.000Z</time>
      </trkpt>
      <trkpt lat="43.27717" lon="2.66222">
        <ele>88.199996948242</ele>
        <time>2022-01-03T13:06:10.000Z</time>
      </trkpt>
      <trkpt lat="43.27714" lon="2.66224">
        <ele>88.199996948242</ele>
        <time>2022-01-03T13:06:12.000Z</time>
      </trkpt>
      <trkpt lat="43.27712" lon="2.66226">
        <ele>88.199996948242</ele>
        <time>2022-01-03T13:06:14.000Z</time>
      </trkpt>
      <trkpt lat="43.27707" lon="2.66228">
        <ele>88.199996948242</ele>
        <time>2022-01-03T13:06:18.000Z</time>
      </trkpt>
      <trkpt lat="43.27701" lon="2.6623">
        <ele>88</ele>
        <time>2022-01-03T13:06:22.000Z</time>
      </trkpt>
      <trkpt lat="43.27699" lon="2.66231">
        <ele>88.199996948242</ele>
        <time>2022-01-03T13:06:23.000Z</time>
      </trkpt>
      <trkpt lat="43.27696" lon="2.66232">
        <ele>88</ele>
        <time>2022-01-03T13:06:25.000Z</time>
      </trkpt>
      <trkpt lat="43.27694" lon="2.66231">
        <ele>87.800003051758</ele>
        <time>2022-01-03T13:06:27.000Z</time>
      </trkpt>
      <trkpt lat="43.2769" lon="2.66232">
        <ele>87.800003051758</ele>
        <time>2022-01-03T13:06:30.000Z</time>
      </trkpt>
      <trkpt lat="43.27687" lon="2.66233">
        <ele>87.400001525879</ele>
        <time>2022-01-03T13:06:33.000Z</time>
      </trkpt>
      <trkpt lat="43.27686" lon="2.66234">
        <ele>87.199996948242</ele>
        <time>2022-01-03T13:06:34.000Z</time>
      </trkpt>
      <trkpt lat="43.27685" lon="2.66234">
        <ele>87.199996948242</ele>
        <time>2022-01-03T13:06:35.000Z</time>
      </trkpt>
      <trkpt lat="43.27684" lon="2.66234">
        <ele>87.199996948242</ele>
        <time>2022-01-03T13:06:36.000Z</time>
      </trkpt>
      <trkpt lat="43.27683" lon="2.66235">
        <ele>87.199996948242</ele>
        <time>2022-01-03T13:06:37.000Z</time>
      </trkpt>
      <trkpt lat="43.27675" lon="2.66237">
        <ele>86.800003051758</ele>
        <time>2022-01-03T13:06:45.000Z</time>
      </trkpt>
      <trkpt lat="43.27672" lon="2.66237">
        <ele>86.599998474121</ele>
        <time>2022-01-03T13:06:47.000Z</time>
      </trkpt>
      <trkpt lat="43.27668" lon="2.66237">
        <ele>87</ele>
        <time>2022-01-03T13:06:49.000Z</time>
      </trkpt>
      <trkpt lat="43.27667" lon="2.66237">
        <ele>87</ele>
        <time>2022-01-03T13:06:50.000Z</time>
      </trkpt>
      <trkpt lat="43.27667" lon="2.66237">
        <ele>87</ele>
        <time>2022-01-03T13:06:51.000Z</time>
      </trkpt>
      <trkpt lat="43.27665" lon="2.66239">
        <ele>87.199996948242</ele>
        <time>2022-01-03T13:06:53.000Z</time>
      </trkpt>
      <trkpt lat="43.27663" lon="2.6624">
        <ele>87.199996948242</ele>
        <time>2022-01-03T13:06:56.000Z</time>
      </trkpt>
      <trkpt lat="43.27661" lon="2.6624">
        <ele>87</ele>
        <time>2022-01-03T13:07:00.000Z</time>
      </trkpt>
      <trkpt lat="43.27661" lon="2.6624">
        <ele>86.800003051758</ele>
        <time>2022-01-03T13:07:02.000Z</time>
      </trkpt>
      <trkpt lat="43.2766" lon="2.66241">
        <ele>86.800003051758</ele>
        <time>2022-01-03T13:07:04.000Z</time>
      </trkpt>
      <trkpt lat="43.27658" lon="2.66241">
        <ele>86.599998474121</ele>
        <time>2022-01-03T13:07:06.000Z</time>
      </trkpt>
      <trkpt lat="43.27656" lon="2.66241">
        <ele>86.599998474121</ele>
        <time>2022-01-03T13:07:08.000Z</time>
      </trkpt>
      <trkpt lat="43.27654" lon="2.66241">
        <ele>86.599998474121</ele>
        <time>2022-01-03T13:07:14.000Z</time>
      </trkpt>
      <trkpt lat="43.27655" lon="2.66244">
        <ele>86.400001525879</ele>
        <time>2022-01-03T13:07:22.000Z</time>
      </trkpt>
      <trkpt lat="43.27655" lon="2.66244">
        <ele>86.400001525879</ele>
        <time>2022-01-03T13:07:29.000Z</time>
      </trkpt>
      <trkpt lat="43.27652" lon="2.66245">
        <ele>86.400001525879</ele>
        <time>2022-01-03T13:07:34.000Z</time>
      </trkpt>
      <trkpt lat="43.27648" lon="2.66246">
        <ele>86.800003051758</ele>
        <time>2022-01-03T13:07:36.000Z</time>
      </trkpt>
      <trkpt lat="43.27641" lon="2.66245">
        <ele>87</ele>
        <time>2022-01-03T13:07:41.000Z</time>
      </trkpt>
      <trkpt lat="43.27639" lon="2.66244">
        <ele>86.800003051758</ele>
        <time>2022-01-03T13:07:42.000Z</time>
      </trkpt>
      <trkpt lat="43.27629" lon="2.66239">
        <ele>86.599998474121</ele>
        <time>2022-01-03T13:07:49.000Z</time>
      </trkpt>
      <trkpt lat="43.27616" lon="2.66238">
        <ele>86.400001525879</ele>
        <time>2022-01-03T13:07:56.000Z</time>
      </trkpt>
      <trkpt lat="43.27615" lon="2.66238">
        <ele>86.400001525879</ele>
        <time>2022-01-03T13:07:57.000Z</time>
      </trkpt>
      <trkpt lat="43.27614" lon="2.66237">
        <ele>86.199996948242</ele>
        <time>2022-01-03T13:08:00.000Z</time>
      </trkpt>
      <trkpt lat="43.27614" lon="2.66236">
        <ele>86.599998474121</ele>
        <time>2022-01-03T13:08:01.000Z</time>
      </trkpt>
      <trkpt lat="43.27611" lon="2.66235">
        <ele>87.199996948242</ele>
        <time>2022-01-03T13:08:03.000Z</time>
      </trkpt>
      <trkpt lat="43.27609" lon="2.66235">
        <ele>86.400001525879</ele>
        <time>2022-01-03T13:08:04.000Z</time>
      </trkpt>
      <trkpt lat="43.27605" lon="2.66234">
        <ele>87</ele>
        <time>2022-01-03T13:08:06.000Z</time>
      </trkpt>
      <trkpt lat="43.27584" lon="2.6623">
        <ele>85.400001525879</ele>
        <time>2022-01-03T13:08:14.000Z</time>
      </trkpt>
      <trkpt lat="43.27581" lon="2.66229">
        <ele>84</ele>
        <time>2022-01-03T13:08:16.000Z</time>
      </trkpt>
      <trkpt lat="43.27574" lon="2.66225">
        <ele>83.599998474121</ele>
        <time>2022-01-03T13:08:21.000Z</time>
      </trkpt>
      <trkpt lat="43.27564" lon="2.66206">
        <ele>82.800003051758</ele>
        <time>2022-01-03T13:08:29.000Z</time>
      </trkpt>
      <trkpt lat="43.27561" lon="2.66202">
        <ele>82.599998474121</ele>
        <time>2022-01-03T13:08:31.000Z</time>
      </trkpt>
      <trkpt lat="43.27547" lon="2.66194">
        <ele>82</ele>
        <time>2022-01-03T13:08:40.000Z</time>
      </trkpt>
      <trkpt lat="43.27545" lon="2.66192">
        <ele>81.400001525879</ele>
        <time>2022-01-03T13:08:42.000Z</time>
      </trkpt>
      <trkpt lat="43.27536" lon="2.66184">
        <ele>80.599998474121</ele>
        <time>2022-01-03T13:08:50.000Z</time>
      </trkpt>
      <trkpt lat="43.27536" lon="2.66183">
        <ele>80.599998474121</ele>
        <time>2022-01-03T13:08:51.000Z</time>
      </trkpt>
      <trkpt lat="43.27533" lon="2.6618">
        <ele>80.599998474121</ele>
        <time>2022-01-03T13:08:54.000Z</time>
      </trkpt>
      <trkpt lat="43.27532" lon="2.66178">
        <ele>80.199996948242</ele>
        <time>2022-01-03T13:08:56.000Z</time>
      </trkpt>
      <trkpt lat="43.2753" lon="2.66176">
        <ele>79.800003051758</ele>
        <time>2022-01-03T13:08:58.000Z</time>
      </trkpt>
      <trkpt lat="43.27528" lon="2.6617">
        <ele>79</ele>
        <time>2022-01-03T13:09:01.000Z</time>
      </trkpt>
      <trkpt lat="43.27525" lon="2.66167">
        <ele>79</ele>
        <time>2022-01-03T13:09:03.000Z</time>
      </trkpt>
      <trkpt lat="43.27522" lon="2.66162">
        <ele>79</ele>
        <time>2022-01-03T13:09:07.000Z</time>
      </trkpt>
      <trkpt lat="43.27519" lon="2.6616">
        <ele>78.599998474121</ele>
        <time>2022-01-03T13:09:14.000Z</time>
      </trkpt>
      <trkpt lat="43.27519" lon="2.66159">
        <ele>78.400001525879</ele>
        <time>2022-01-03T13:09:15.000Z</time>
      </trkpt>
      <trkpt lat="43.27518" lon="2.66159">
        <ele>78.400001525879</ele>
        <time>2022-01-03T13:09:16.000Z</time>
      </trkpt>
      <trkpt lat="43.27516" lon="2.66157">
        <ele>78</ele>
        <time>2022-01-03T13:09:19.000Z</time>
      </trkpt>
      <trkpt lat="43.27515" lon="2.66157">
        <ele>77.800003051758</ele>
        <time>2022-01-03T13:09:20.000Z</time>
      </trkpt>
      <trkpt lat="43.27512" lon="2.66153">
        <ele>77.599998474121</ele>
        <time>2022-01-03T13:09:23.000Z</time>
      </trkpt>
      <trkpt lat="43.2751" lon="2.66148">
        <ele>77.400001525879</ele>
        <time>2022-01-03T13:09:25.000Z</time>
      </trkpt>
      <trkpt lat="43.2751" lon="2.66147">
        <ele>77.400001525879</ele>
        <time>2022-01-03T13:09:26.000Z</time>
      </trkpt>
      <trkpt lat="43.27507" lon="2.66144">
        <ele>77.199996948242</ele>
        <time>2022-01-03T13:09:30.000Z</time>
      </trkpt>
      <trkpt lat="43.27505" lon="2.66142">
        <ele>77</ele>
        <time>2022-01-03T13:09:32.000Z</time>
      </trkpt>
      <trkpt lat="43.27503" lon="2.6614">
        <ele>77</ele>
        <time>2022-01-03T13:09:35.000Z</time>
      </trkpt>
      <trkpt lat="43.27502" lon="2.66139">
        <ele>76.599998474121</ele>
        <time>2022-01-03T13:09:37.000Z</time>
      </trkpt>
      <trkpt lat="43.27502" lon="2.66138">
        <ele>76.400001525879</ele>
        <time>2022-01-03T13:09:38.000Z</time>
      </trkpt>
      <trkpt lat="43.27499" lon="2.66136">
        <ele>76.199996948242</ele>
        <time>2022-01-03T13:09:41.000Z</time>
      </trkpt>
      <trkpt lat="43.27496" lon="2.66133">
        <ele>76</ele>
        <time>2022-01-03T13:09:43.000Z</time>
      </trkpt>
      <trkpt lat="43.27486" lon="2.66121">
        <ele>75.400001525879</ele>
        <time>2022-01-03T13:09:54.000Z</time>
      </trkpt>
      <trkpt lat="43.27483" lon="2.66117">
        <ele>75</ele>
        <time>2022-01-03T13:09:58.000Z</time>
      </trkpt>
      <trkpt lat="43.27477" lon="2.6611">
        <ele>74.800003051758</ele>
        <time>2022-01-03T13:10:05.000Z</time>
      </trkpt>
      <trkpt lat="43.27473" lon="2.66103">
        <ele>73.800003051758</ele>
        <time>2022-01-03T13:10:10.000Z</time>
      </trkpt>
      <trkpt lat="43.27472" lon="2.66101">
        <ele>73.599998474121</ele>
        <time>2022-01-03T13:10:12.000Z</time>
      </trkpt>
      <trkpt lat="43.27463" lon="2.66088">
        <ele>73</ele>
        <time>2022-01-03T13:10:22.000Z</time>
      </trkpt>
      <trkpt lat="43.2746" lon="2.66085">
        <ele>72.800003051758</ele>
        <time>2022-01-03T13:10:25.000Z</time>
      </trkpt>
      <trkpt lat="43.27454" lon="2.6608">
        <ele>71.599998474121</ele>
        <time>2022-01-03T13:10:31.000Z</time>
      </trkpt>
      <trkpt lat="43.27445" lon="2.66068">
        <ele>71</ele>
        <time>2022-01-03T13:10:41.000Z</time>
      </trkpt>
      <trkpt lat="43.27445" lon="2.66066">
        <ele>71.400001525879</ele>
        <time>2022-01-03T13:10:42.000Z</time>
      </trkpt>
      <trkpt lat="43.27445" lon="2.66064">
        <ele>71.199996948242</ele>
        <time>2022-01-03T13:10:46.000Z</time>
      </trkpt>
      <trkpt lat="43.27444" lon="2.66059">
        <ele>71.199996948242</ele>
        <time>2022-01-03T13:10:50.000Z</time>
      </trkpt>
      <trkpt lat="43.27442" lon="2.66053">
        <ele>70.599998474121</ele>
        <time>2022-01-03T13:10:53.000Z</time>
      </trkpt>
      <trkpt lat="43.27441" lon="2.66051">
        <ele>70.400001525879</ele>
        <time>2022-01-03T13:10:54.000Z</time>
      </trkpt>
      <trkpt lat="43.27436" lon="2.66041">
        <ele>69.199996948242</ele>
        <time>2022-01-03T13:11:00.000Z</time>
      </trkpt>
      <trkpt lat="43.27434" lon="2.66034">
        <ele>69.400001525879</ele>
        <time>2022-01-03T13:11:05.000Z</time>
      </trkpt>
      <trkpt lat="43.27434" lon="2.66033">
        <ele>69.400001525879</ele>
        <time>2022-01-03T13:11:06.000Z</time>
      </trkpt>
      <trkpt lat="43.27434" lon="2.6603">
        <ele>69.400001525879</ele>
        <time>2022-01-03T13:11:08.000Z</time>
      </trkpt>
      <trkpt lat="43.27434" lon="2.66021">
        <ele>69.800003051758</ele>
        <time>2022-01-03T13:11:13.000Z</time>
      </trkpt>
      <trkpt lat="43.27434" lon="2.66016">
        <ele>70.400001525879</ele>
        <time>2022-01-03T13:11:16.000Z</time>
      </trkpt>
      <trkpt lat="43.27433" lon="2.66005">
        <ele>71.400001525879</ele>
        <time>2022-01-03T13:11:22.000Z</time>
      </trkpt>
      <trkpt lat="43.27434" lon="2.66002">
        <ele>70</ele>
        <time>2022-01-03T13:11:24.000Z</time>
      </trkpt>
      <trkpt lat="43.27434" lon="2.65999">
        <ele>67.599998474121</ele>
        <time>2022-01-03T13:11:25.000Z</time>
      </trkpt>
      <trkpt lat="43.27434" lon="2.65997">
        <ele>66.400001525879</ele>
        <time>2022-01-03T13:11:26.000Z</time>
      </trkpt>
      <trkpt lat="43.27435" lon="2.65992">
        <ele>65.199996948242</ele>
        <time>2022-01-03T13:11:29.000Z</time>
      </trkpt>
      <trkpt lat="43.27436" lon="2.6599">
        <ele>66.800003051758</ele>
        <time>2022-01-03T13:11:30.000Z</time>
      </trkpt>
      <trkpt lat="43.27437" lon="2.65987">
        <ele>68.199996948242</ele>
        <time>2022-01-03T13:11:32.000Z</time>
      </trkpt>
      <trkpt lat="43.27439" lon="2.6598">
        <ele>68.199996948242</ele>
        <time>2022-01-03T13:11:36.000Z</time>
      </trkpt>
      <trkpt lat="43.27441" lon="2.65966">
        <ele>68.400001525879</ele>
        <time>2022-01-03T13:11:43.000Z</time>
      </trkpt>
      <trkpt lat="43.27442" lon="2.65963">
        <ele>68.400001525879</ele>
        <time>2022-01-03T13:11:45.000Z</time>
      </trkpt>
      <trkpt lat="43.27448" lon="2.65949">
        <ele>67.599998474121</ele>
        <time>2022-01-03T13:11:54.000Z</time>
      </trkpt>
      <trkpt lat="43.27451" lon="2.6594">
        <ele>68.599998474121</ele>
        <time>2022-01-03T13:11:59.000Z</time>
      </trkpt>
      <trkpt lat="43.27453" lon="2.65933">
        <ele>68.400001525879</ele>
        <time>2022-01-03T13:12:03.000Z</time>
      </trkpt>
      <trkpt lat="43.27454" lon="2.65932">
        <ele>68.400001525879</ele>
        <time>2022-01-03T13:12:05.000Z</time>
      </trkpt>
      <trkpt lat="43.27456" lon="2.6593">
        <ele>68.599998474121</ele>
        <time>2022-01-03T13:12:07.000Z</time>
      </trkpt>
      <trkpt lat="43.27456" lon="2.65928">
        <ele>68.599998474121</ele>
        <time>2022-01-03T13:12:08.000Z</time>
      </trkpt>
      <trkpt lat="43.27457" lon="2.65924">
        <ele>68.599998474121</ele>
        <time>2022-01-03T13:12:11.000Z</time>
      </trkpt>
      <trkpt lat="43.27458" lon="2.65921">
        <ele>68.599998474121</ele>
        <time>2022-01-03T13:12:13.000Z</time>
      </trkpt>
      <trkpt lat="43.27459" lon="2.65919">
        <ele>68.599998474121</ele>
        <time>2022-01-03T13:12:14.000Z</time>
      </trkpt>
      <trkpt lat="43.27461" lon="2.65916">
        <ele>68.599998474121</ele>
        <time>2022-01-03T13:12:17.000Z</time>
      </trkpt>
      <trkpt lat="43.27463" lon="2.65911">
        <ele>68.599998474121</ele>
        <time>2022-01-03T13:12:20.000Z</time>
      </trkpt>
      <trkpt lat="43.27465" lon="2.65908">
        <ele>68.599998474121</ele>
        <time>2022-01-03T13:12:22.000Z</time>
      </trkpt>
      <trkpt lat="43.27467" lon="2.65905">
        <ele>68.599998474121</ele>
        <time>2022-01-03T13:12:25.000Z</time>
      </trkpt>
      <trkpt lat="43.27468" lon="2.65904">
        <ele>68.599998474121</ele>
        <time>2022-01-03T13:12:26.000Z</time>
      </trkpt>
      <trkpt lat="43.2747" lon="2.65902">
        <ele>67</ele>
        <time>2022-01-03T13:12:28.000Z</time>
      </trkpt>
      <trkpt lat="43.27474" lon="2.659">
        <ele>66</ele>
        <time>2022-01-03T13:12:31.000Z</time>
      </trkpt>
      <trkpt lat="43.27477" lon="2.65898">
        <ele>66</ele>
        <time>2022-01-03T13:12:34.000Z</time>
      </trkpt>
      <trkpt lat="43.27486" lon="2.65889">
        <ele>66.199996948242</ele>
        <time>2022-01-03T13:12:42.000Z</time>
      </trkpt>
      <trkpt lat="43.27489" lon="2.65888">
        <ele>66.199996948242</ele>
        <time>2022-01-03T13:12:44.000Z</time>
      </trkpt>
      <trkpt lat="43.2749" lon="2.65888">
        <ele>66.199996948242</ele>
        <time>2022-01-03T13:12:46.000Z</time>
      </trkpt>
      <trkpt lat="43.27495" lon="2.65887">
        <ele>67</ele>
        <time>2022-01-03T13:12:50.000Z</time>
      </trkpt>
      <trkpt lat="43.27496" lon="2.65886">
        <ele>67</ele>
        <time>2022-01-03T13:12:51.000Z</time>
      </trkpt>
      <trkpt lat="43.27502" lon="2.65884">
        <ele>66.400001525879</ele>
        <time>2022-01-03T13:12:56.000Z</time>
      </trkpt>
      <trkpt lat="43.27504" lon="2.65882">
        <ele>66.199996948242</ele>
        <time>2022-01-03T13:12:58.000Z</time>
      </trkpt>
      <trkpt lat="43.27512" lon="2.65877">
        <ele>67</ele>
        <time>2022-01-03T13:13:04.000Z</time>
      </trkpt>
      <trkpt lat="43.27515" lon="2.65875">
        <ele>67</ele>
        <time>2022-01-03T13:13:06.000Z</time>
      </trkpt>
      <trkpt lat="43.2752" lon="2.65872">
        <ele>66</ele>
        <time>2022-01-03T13:13:10.000Z</time>
      </trkpt>
      <trkpt lat="43.27526" lon="2.65867">
        <ele>65.599998474121</ele>
        <time>2022-01-03T13:13:16.000Z</time>
      </trkpt>
      <trkpt lat="43.27529" lon="2.65864">
        <ele>66.199996948242</ele>
        <time>2022-01-03T13:13:20.000Z</time>
      </trkpt>
      <trkpt lat="43.2753" lon="2.65862">
        <ele>66.199996948242</ele>
        <time>2022-01-03T13:13:22.000Z</time>
      </trkpt>
      <trkpt lat="43.2753" lon="2.65859">
        <ele>66.199996948242</ele>
        <time>2022-01-03T13:13:24.000Z</time>
      </trkpt>
      <trkpt lat="43.27529" lon="2.6585">
        <ele>66.800003051758</ele>
        <time>2022-01-03T13:13:29.000Z</time>
      </trkpt>
      <trkpt lat="43.2753" lon="2.65843">
        <ele>66.800003051758</ele>
        <time>2022-01-03T13:13:33.000Z</time>
      </trkpt>
      <trkpt lat="43.27533" lon="2.65834">
        <ele>66.400001525879</ele>
        <time>2022-01-03T13:13:37.000Z</time>
      </trkpt>
      <trkpt lat="43.27534" lon="2.65832">
        <ele>66.400001525879</ele>
        <time>2022-01-03T13:13:38.000Z</time>
      </trkpt>
      <trkpt lat="43.27535" lon="2.65825">
        <ele>67</ele>
        <time>2022-01-03T13:13:42.000Z</time>
      </trkpt>
      <trkpt lat="43.27536" lon="2.65824">
        <ele>67</ele>
        <time>2022-01-03T13:13:43.000Z</time>
      </trkpt>
      <trkpt lat="43.27537" lon="2.65821">
        <ele>67.199996948242</ele>
        <time>2022-01-03T13:13:45.000Z</time>
      </trkpt>
      <trkpt lat="43.27538" lon="2.65819">
        <ele>67.199996948242</ele>
        <time>2022-01-03T13:13:46.000Z</time>
      </trkpt>
      <trkpt lat="43.27539" lon="2.65818">
        <ele>67.199996948242</ele>
        <time>2022-01-03T13:13:47.000Z</time>
      </trkpt>
      <trkpt lat="43.27538" lon="2.65816">
        <ele>67.199996948242</ele>
        <time>2022-01-03T13:13:50.000Z</time>
      </trkpt>
      <trkpt lat="43.27536" lon="2.65815">
        <ele>66.800003051758</ele>
        <time>2022-01-03T13:13:52.000Z</time>
      </trkpt>
      <trkpt lat="43.27535" lon="2.65815">
        <ele>66.599998474121</ele>
        <time>2022-01-03T13:13:55.000Z</time>
      </trkpt>
      <trkpt lat="43.27533" lon="2.65812">
        <ele>66.400001525879</ele>
        <time>2022-01-03T13:13:58.000Z</time>
      </trkpt>
      <trkpt lat="43.27527" lon="2.6581">
        <ele>66.199996948242</ele>
        <time>2022-01-03T13:14:03.000Z</time>
      </trkpt>
      <trkpt lat="43.27523" lon="2.65809">
        <ele>66.199996948242</ele>
        <time>2022-01-03T13:14:06.000Z</time>
      </trkpt>
      <trkpt lat="43.2752" lon="2.65809">
        <ele>66.400001525879</ele>
        <time>2022-01-03T13:14:08.000Z</time>
      </trkpt>
      <trkpt lat="43.27515" lon="2.6581">
        <ele>66.400001525879</ele>
        <time>2022-01-03T13:14:10.000Z</time>
      </trkpt>
      <trkpt lat="43.27506" lon="2.65811">
        <ele>66.199996948242</ele>
        <time>2022-01-03T13:14:14.000Z</time>
      </trkpt>
      <trkpt lat="43.27506" lon="2.65807">
        <ele>66.199996948242</ele>
        <time>2022-01-03T13:14:16.000Z</time>
      </trkpt>
      <trkpt lat="43.27507" lon="2.65803">
        <ele>66</ele>
        <time>2022-01-03T13:14:18.000Z</time>
      </trkpt>
      <trkpt lat="43.27507" lon="2.65792">
        <ele>65.800003051758</ele>
        <time>2022-01-03T13:14:25.000Z</time>
      </trkpt>
      <trkpt lat="43.27505" lon="2.65787">
        <ele>66.199996948242</ele>
        <time>2022-01-03T13:14:29.000Z</time>
      </trkpt>
      <trkpt lat="43.27504" lon="2.65781">
        <ele>65.599998474121</ele>
        <time>2022-01-03T13:14:32.000Z</time>
      </trkpt>
      <trkpt lat="43.27504" lon="2.65779">
        <ele>64.400001525879</ele>
        <time>2022-01-03T13:14:33.000Z</time>
      </trkpt>
      <trkpt lat="43.27504" lon="2.65776">
        <ele>63.400001525879</ele>
        <time>2022-01-03T13:14:35.000Z</time>
      </trkpt>
      <trkpt lat="43.27504" lon="2.65775">
        <ele>63.400001525879</ele>
        <time>2022-01-03T13:14:36.000Z</time>
      </trkpt>
      <trkpt lat="43.27504" lon="2.65775">
        <ele>63.200000762939</ele>
        <time>2022-01-03T13:14:37.000Z</time>
      </trkpt>
      <trkpt lat="43.27506" lon="2.65774">
        <ele>63.200000762939</ele>
        <time>2022-01-03T13:14:40.000Z</time>
      </trkpt>
      <trkpt lat="43.27506" lon="2.65774">
        <ele>63.200000762939</ele>
        <time>2022-01-03T13:14:41.000Z</time>
      </trkpt>
      <trkpt lat="43.27507" lon="2.65774">
        <ele>63</ele>
        <time>2022-01-03T13:14:42.000Z</time>
      </trkpt>
      <trkpt lat="43.2751" lon="2.65773">
        <ele>62.799999237061</ele>
        <time>2022-01-03T13:14:45.000Z</time>
      </trkpt>
      <trkpt lat="43.27514" lon="2.65771">
        <ele>63</ele>
        <time>2022-01-03T13:14:48.000Z</time>
      </trkpt>
      <trkpt lat="43.27516" lon="2.65769">
        <ele>63</ele>
        <time>2022-01-03T13:14:50.000Z</time>
      </trkpt>
      <trkpt lat="43.2752" lon="2.65763">
        <ele>62.599998474121</ele>
        <time>2022-01-03T13:14:55.000Z</time>
      </trkpt>
      <trkpt lat="43.27524" lon="2.6576">
        <ele>63</ele>
        <time>2022-01-03T13:14:58.000Z</time>
      </trkpt>
      <trkpt lat="43.27533" lon="2.65753">
        <ele>63.200000762939</ele>
        <time>2022-01-03T13:15:05.000Z</time>
      </trkpt>
      <trkpt lat="43.27534" lon="2.65752">
        <ele>63.200000762939</ele>
        <time>2022-01-03T13:15:06.000Z</time>
      </trkpt>
      <trkpt lat="43.27535" lon="2.65751">
        <ele>63.200000762939</ele>
        <time>2022-01-03T13:15:07.000Z</time>
      </trkpt>
      <trkpt lat="43.27544" lon="2.65743">
        <ele>63.400001525879</ele>
        <time>2022-01-03T13:15:15.000Z</time>
      </trkpt>
      <trkpt lat="43.27555" lon="2.65733">
        <ele>63</ele>
        <time>2022-01-03T13:15:26.000Z</time>
      </trkpt>
      <trkpt lat="43.27561" lon="2.65727">
        <ele>63.200000762939</ele>
        <time>2022-01-03T13:15:33.000Z</time>
      </trkpt>
      <trkpt lat="43.27564" lon="2.65724">
        <ele>63.400001525879</ele>
        <time>2022-01-03T13:15:35.000Z</time>
      </trkpt>
      <trkpt lat="43.27565" lon="2.65724">
        <ele>63.400001525879</ele>
        <time>2022-01-03T13:15:36.000Z</time>
      </trkpt>
      <trkpt lat="43.27567" lon="2.65722">
        <ele>64.400001525879</ele>
        <time>2022-01-03T13:15:38.000Z</time>
      </trkpt>
      <trkpt lat="43.27568" lon="2.6572">
        <ele>64.599998474121</ele>
        <time>2022-01-03T13:15:39.000Z</time>
      </trkpt>
      <trkpt lat="43.27572" lon="2.65715">
        <ele>64</ele>
        <time>2022-01-03T13:15:43.000Z</time>
      </trkpt>
      <trkpt lat="43.27573" lon="2.65714">
        <ele>63.799999237061</ele>
        <time>2022-01-03T13:15:44.000Z</time>
      </trkpt>
      <trkpt lat="43.27579" lon="2.6571">
        <ele>62.200000762939</ele>
        <time>2022-01-03T13:15:49.000Z</time>
      </trkpt>
      <trkpt lat="43.2758" lon="2.65709">
        <ele>61</ele>
        <time>2022-01-03T13:15:50.000Z</time>
      </trkpt>
      <trkpt lat="43.27583" lon="2.65705">
        <ele>59.599998474121</ele>
        <time>2022-01-03T13:15:53.000Z</time>
      </trkpt>
      <trkpt lat="43.27587" lon="2.65702">
        <ele>59</ele>
        <time>2022-01-03T13:15:56.000Z</time>
      </trkpt>
      <trkpt lat="43.27589" lon="2.65699">
        <ele>58.599998474121</ele>
        <time>2022-01-03T13:15:58.000Z</time>
      </trkpt>
      <trkpt lat="43.2759" lon="2.65697">
        <ele>58.400001525879</ele>
        <time>2022-01-03T13:15:59.000Z</time>
      </trkpt>
      <trkpt lat="43.27593" lon="2.65693">
        <ele>58</ele>
        <time>2022-01-03T13:16:02.000Z</time>
      </trkpt>
      <trkpt lat="43.27598" lon="2.65687">
        <ele>57.599998474121</ele>
        <time>2022-01-03T13:16:07.000Z</time>
      </trkpt>
      <trkpt lat="43.27603" lon="2.65683">
        <ele>57.200000762939</ele>
        <time>2022-01-03T13:16:11.000Z</time>
      </trkpt>
      <trkpt lat="43.27604" lon="2.65682">
        <ele>57.200000762939</ele>
        <time>2022-01-03T13:16:12.000Z</time>
      </trkpt>
      <trkpt lat="43.27605" lon="2.65681">
        <ele>62.200000762939</ele>
        <time>2022-01-03T13:16:13.000Z</time>
      </trkpt>
      <trkpt lat="43.2761" lon="2.65673">
        <ele>62</ele>
        <time>2022-01-03T13:16:19.000Z</time>
      </trkpt>
      <trkpt lat="43.27611" lon="2.6567">
        <ele>62</ele>
        <time>2022-01-03T13:16:21.000Z</time>
      </trkpt>
      <trkpt lat="43.27612" lon="2.65669">
        <ele>62</ele>
        <time>2022-01-03T13:16:22.000Z</time>
      </trkpt>
      <trkpt lat="43.27613" lon="2.65667">
        <ele>62</ele>
        <time>2022-01-03T13:16:24.000Z</time>
      </trkpt>
      <trkpt lat="43.27614" lon="2.65666">
        <ele>62</ele>
        <time>2022-01-03T13:16:25.000Z</time>
      </trkpt>
      <trkpt lat="43.27617" lon="2.65663">
        <ele>62</ele>
        <time>2022-01-03T13:16:29.000Z</time>
      </trkpt>
      <trkpt lat="43.2762" lon="2.6566">
        <ele>63.599998474121</ele>
        <time>2022-01-03T13:16:32.000Z</time>
      </trkpt>
      <trkpt lat="43.27623" lon="2.65655">
        <ele>64.800003051758</ele>
        <time>2022-01-03T13:16:36.000Z</time>
      </trkpt>
      <trkpt lat="43.27625" lon="2.65652">
        <ele>65</ele>
        <time>2022-01-03T13:16:38.000Z</time>
      </trkpt>
      <trkpt lat="43.27627" lon="2.65649">
        <ele>65.199996948242</ele>
        <time>2022-01-03T13:16:40.000Z</time>
      </trkpt>
      <trkpt lat="43.2763" lon="2.65645">
        <ele>65.400001525879</ele>
        <time>2022-01-03T13:16:43.000Z</time>
      </trkpt>
      <trkpt lat="43.27633" lon="2.65641">
        <ele>64</ele>
        <time>2022-01-03T13:16:46.000Z</time>
      </trkpt>
      <trkpt lat="43.27634" lon="2.6564">
        <ele>64</ele>
        <time>2022-01-03T13:16:47.000Z</time>
      </trkpt>
      <trkpt lat="43.27636" lon="2.65636">
        <ele>64</ele>
        <time>2022-01-03T13:16:50.000Z</time>
      </trkpt>
      <trkpt lat="43.27639" lon="2.65631">
        <ele>67</ele>
        <time>2022-01-03T13:16:53.000Z</time>
      </trkpt>
      <trkpt lat="43.27643" lon="2.65626">
        <ele>68</ele>
        <time>2022-01-03T13:16:57.000Z</time>
      </trkpt>
      <trkpt lat="43.27644" lon="2.65625">
        <ele>68.400001525879</ele>
        <time>2022-01-03T13:16:58.000Z</time>
      </trkpt>
      <trkpt lat="43.27646" lon="2.65622">
        <ele>68.800003051758</ele>
        <time>2022-01-03T13:17:01.000Z</time>
      </trkpt>
      <trkpt lat="43.27648" lon="2.65619">
        <ele>69.199996948242</ele>
        <time>2022-01-03T13:17:04.000Z</time>
      </trkpt>
      <trkpt lat="43.2765" lon="2.65616">
        <ele>69.400001525879</ele>
        <time>2022-01-03T13:17:06.000Z</time>
      </trkpt>
      <trkpt lat="43.27653" lon="2.65607">
        <ele>69.800003051758</ele>
        <time>2022-01-03T13:17:12.000Z</time>
      </trkpt>
      <trkpt lat="43.27658" lon="2.65598">
        <ele>70.400001525879</ele>
        <time>2022-01-03T13:17:19.000Z</time>
      </trkpt>
      <trkpt lat="43.27659" lon="2.65597">
        <ele>70</ele>
        <time>2022-01-03T13:17:20.000Z</time>
      </trkpt>
      <trkpt lat="43.27659" lon="2.65596">
        <ele>70.199996948242</ele>
        <time>2022-01-03T13:17:21.000Z</time>
      </trkpt>
      <trkpt lat="43.27662" lon="2.6559">
        <ele>70</ele>
        <time>2022-01-03T13:17:25.000Z</time>
      </trkpt>
      <trkpt lat="43.27664" lon="2.65585">
        <ele>70.199996948242</ele>
        <time>2022-01-03T13:17:28.000Z</time>
      </trkpt>
      <trkpt lat="43.27666" lon="2.65579">
        <ele>70.400001525879</ele>
        <time>2022-01-03T13:17:32.000Z</time>
      </trkpt>
      <trkpt lat="43.27668" lon="2.65577">
        <ele>70.599998474121</ele>
        <time>2022-01-03T13:17:34.000Z</time>
      </trkpt>
      <trkpt lat="43.2767" lon="2.65571">
        <ele>71.400001525879</ele>
        <time>2022-01-03T13:17:38.000Z</time>
      </trkpt>
      <trkpt lat="43.27674" lon="2.65563">
        <ele>72</ele>
        <time>2022-01-03T13:17:43.000Z</time>
      </trkpt>
      <trkpt lat="43.27676" lon="2.65559">
        <ele>72.400001525879</ele>
        <time>2022-01-03T13:17:46.000Z</time>
      </trkpt>
      <trkpt lat="43.27683" lon="2.65546">
        <ele>71.800003051758</ele>
        <time>2022-01-03T13:17:55.000Z</time>
      </trkpt>
      <trkpt lat="43.27687" lon="2.65541">
        <ele>71.400001525879</ele>
        <time>2022-01-03T13:17:59.000Z</time>
      </trkpt>
      <trkpt lat="43.27691" lon="2.65533">
        <ele>70.599998474121</ele>
        <time>2022-01-03T13:18:05.000Z</time>
      </trkpt>
      <trkpt lat="43.27692" lon="2.65531">
        <ele>70.199996948242</ele>
        <time>2022-01-03T13:18:06.000Z</time>
      </trkpt>
      <trkpt lat="43.27695" lon="2.65527">
        <ele>69.199996948242</ele>
        <time>2022-01-03T13:18:10.000Z</time>
      </trkpt>
      <trkpt lat="43.27698" lon="2.65521">
        <ele>68.400001525879</ele>
        <time>2022-01-03T13:18:14.000Z</time>
      </trkpt>
      <trkpt lat="43.27701" lon="2.65516">
        <ele>68.199996948242</ele>
        <time>2022-01-03T13:18:18.000Z</time>
      </trkpt>
      <trkpt lat="43.27704" lon="2.65511">
        <ele>67.599998474121</ele>
        <time>2022-01-03T13:18:21.000Z</time>
      </trkpt>
      <trkpt lat="43.27706" lon="2.65506">
        <ele>67.199996948242</ele>
        <time>2022-01-03T13:18:24.000Z</time>
      </trkpt>
      <trkpt lat="43.27708" lon="2.65501">
        <ele>67.199996948242</ele>
        <time>2022-01-03T13:18:27.000Z</time>
      </trkpt>
      <trkpt lat="43.27711" lon="2.65494">
        <ele>67.800003051758</ele>
        <time>2022-01-03T13:18:31.000Z</time>
      </trkpt>
      <trkpt lat="43.27713" lon="2.6549">
        <ele>68.199996948242</ele>
        <time>2022-01-03T13:18:34.000Z</time>
      </trkpt>
      <trkpt lat="43.27716" lon="2.65486">
        <ele>68.800003051758</ele>
        <time>2022-01-03T13:18:37.000Z</time>
      </trkpt>
      <trkpt lat="43.27719" lon="2.65481">
        <ele>69.199996948242</ele>
        <time>2022-01-03T13:18:42.000Z</time>
      </trkpt>
      <trkpt lat="43.27723" lon="2.65475">
        <ele>69.400001525879</ele>
        <time>2022-01-03T13:18:46.000Z</time>
      </trkpt>
      <trkpt lat="43.2773" lon="2.65467">
        <ele>69.400001525879</ele>
        <time>2022-01-03T13:18:53.000Z</time>
      </trkpt>
      <trkpt lat="43.27731" lon="2.65465">
        <ele>69.400001525879</ele>
        <time>2022-01-03T13:18:57.000Z</time>
      </trkpt>
      <trkpt lat="43.27731" lon="2.65464">
        <ele>69.400001525879</ele>
        <time>2022-01-03T13:18:59.000Z</time>
      </trkpt>
      <trkpt lat="43.27735" lon="2.65463">
        <ele>69.599998474121</ele>
        <time>2022-01-03T13:19:06.000Z</time>
      </trkpt>
      <trkpt lat="43.27738" lon="2.6546">
        <ele>69.199996948242</ele>
        <time>2022-01-03T13:19:11.000Z</time>
      </trkpt>
      <trkpt lat="43.27742" lon="2.65458">
        <ele>69</ele>
        <time>2022-01-03T13:19:19.000Z</time>
      </trkpt>
      <trkpt lat="43.27743" lon="2.65458">
        <ele>69.800003051758</ele>
        <time>2022-01-03T13:19:25.000Z</time>
      </trkpt>
      <trkpt lat="43.27744" lon="2.65458">
        <ele>69.800003051758</ele>
        <time>2022-01-03T13:19:34.000Z</time>
      </trkpt>
      <trkpt lat="43.27744" lon="2.65458">
        <ele>69.800003051758</ele>
        <time>2022-01-03T13:19:40.000Z</time>
      </trkpt>
      <trkpt lat="43.27744" lon="2.65458">
        <ele>69.800003051758</ele>
        <time>2022-01-03T13:19:41.000Z</time>
      </trkpt>
      <trkpt lat="43.27744" lon="2.65458">
        <ele>69.800003051758</ele>
        <time>2022-01-03T13:19:42.000Z</time>
      </trkpt>
      <trkpt lat="43.27744" lon="2.65461">
        <ele>69.800003051758</ele>
        <time>2022-01-03T13:19:53.000Z</time>
      </trkpt>
      <trkpt lat="43.27743" lon="2.65464">
        <ele>69.800003051758</ele>
        <time>2022-01-03T13:19:55.000Z</time>
      </trkpt>
      <trkpt lat="43.27742" lon="2.65468">
        <ele>69.800003051758</ele>
        <time>2022-01-03T13:19:58.000Z</time>
      </trkpt>
      <trkpt lat="43.27742" lon="2.6547">
        <ele>69.800003051758</ele>
        <time>2022-01-03T13:20:01.000Z</time>
      </trkpt>
      <trkpt lat="43.27742" lon="2.6547">
        <ele>68</ele>
        <time>2022-01-03T13:20:02.000Z</time>
      </trkpt>
      <trkpt lat="43.27741" lon="2.6547">
        <ele>65.800003051758</ele>
        <time>2022-01-03T13:20:03.000Z</time>
      </trkpt>
      <trkpt lat="43.27741" lon="2.6547">
        <ele>64.599998474121</ele>
        <time>2022-01-03T13:20:04.000Z</time>
      </trkpt>
      <trkpt lat="43.27741" lon="2.65471">
        <ele>63.799999237061</ele>
        <time>2022-01-03T13:20:05.000Z</time>
      </trkpt>
      <trkpt lat="43.27742" lon="2.65471">
        <ele>63.400001525879</ele>
        <time>2022-01-03T13:20:07.000Z</time>
      </trkpt>
      <trkpt lat="43.27741" lon="2.6547">
        <ele>63.400001525879</ele>
        <time>2022-01-03T13:20:08.000Z</time>
      </trkpt>
      <trkpt lat="43.27741" lon="2.6547">
        <ele>63.200000762939</ele>
        <time>2022-01-03T13:20:16.000Z</time>
      </trkpt>
      <trkpt lat="43.27741" lon="2.6547">
        <ele>62.799999237061</ele>
        <time>2022-01-03T13:20:19.000Z</time>
      </trkpt>
      <trkpt lat="43.27741" lon="2.6547">
        <ele>62.599998474121</ele>
        <time>2022-01-03T13:20:22.000Z</time>
      </trkpt>
      <trkpt lat="43.27742" lon="2.65468">
        <ele>62.400001525879</ele>
        <time>2022-01-03T13:20:23.000Z</time>
      </trkpt>
      <trkpt lat="43.27743" lon="2.65463">
        <ele>62.200000762939</ele>
        <time>2022-01-03T13:20:25.000Z</time>
      </trkpt>
      <trkpt lat="43.27751" lon="2.65442">
        <ele>61.799999237061</ele>
        <time>2022-01-03T13:20:36.000Z</time>
      </trkpt>
      <trkpt lat="43.27751" lon="2.65441">
        <ele>61.799999237061</ele>
        <time>2022-01-03T13:20:37.000Z</time>
      </trkpt>
      <trkpt lat="43.27755" lon="2.65431">
        <ele>62</ele>
        <time>2022-01-03T13:20:44.000Z</time>
      </trkpt>
      <trkpt lat="43.27758" lon="2.65423">
        <ele>62</ele>
        <time>2022-01-03T13:20:49.000Z</time>
      </trkpt>
      <trkpt lat="43.2776" lon="2.6542">
        <ele>62.200000762939</ele>
        <time>2022-01-03T13:20:51.000Z</time>
      </trkpt>
      <trkpt lat="43.27762" lon="2.65415">
        <ele>62.400001525879</ele>
        <time>2022-01-03T13:20:54.000Z</time>
      </trkpt>
      <trkpt lat="43.27765" lon="2.6541">
        <ele>63.799999237061</ele>
        <time>2022-01-03T13:20:57.000Z</time>
      </trkpt>
      <trkpt lat="43.27767" lon="2.65406">
        <ele>65</ele>
        <time>2022-01-03T13:21:00.000Z</time>
      </trkpt>
      <trkpt lat="43.27768" lon="2.65404">
        <ele>65.400001525879</ele>
        <time>2022-01-03T13:21:01.000Z</time>
      </trkpt>
      <trkpt lat="43.27769" lon="2.65402">
        <ele>66.400001525879</ele>
        <time>2022-01-03T13:21:03.000Z</time>
      </trkpt>
      <trkpt lat="43.27774" lon="2.65397">
        <ele>67.800003051758</ele>
        <time>2022-01-03T13:21:08.000Z</time>
      </trkpt>
      <trkpt lat="43.27779" lon="2.65389">
        <ele>66.400001525879</ele>
        <time>2022-01-03T13:21:13.000Z</time>
      </trkpt>
      <trkpt lat="43.2778" lon="2.65386">
        <ele>66.199996948242</ele>
        <time>2022-01-03T13:21:15.000Z</time>
      </trkpt>
      <trkpt lat="43.27782" lon="2.65383">
        <ele>65.400001525879</ele>
        <time>2022-01-03T13:21:17.000Z</time>
      </trkpt>
      <trkpt lat="43.27783" lon="2.6538">
        <ele>64.199996948242</ele>
        <time>2022-01-03T13:21:19.000Z</time>
      </trkpt>
      <trkpt lat="43.27784" lon="2.65377">
        <ele>63.799999237061</ele>
        <time>2022-01-03T13:21:21.000Z</time>
      </trkpt>
      <trkpt lat="43.27785" lon="2.65374">
        <ele>63</ele>
        <time>2022-01-03T13:21:23.000Z</time>
      </trkpt>
      <trkpt lat="43.27786" lon="2.65372">
        <ele>62.799999237061</ele>
        <time>2022-01-03T13:21:24.000Z</time>
      </trkpt>
      <trkpt lat="43.27791" lon="2.65364">
        <ele>62.200000762939</ele>
        <time>2022-01-03T13:21:29.000Z</time>
      </trkpt>
      <trkpt lat="43.27792" lon="2.65361">
        <ele>62.400001525879</ele>
        <time>2022-01-03T13:21:32.000Z</time>
      </trkpt>
      <trkpt lat="43.27796" lon="2.65353">
        <ele>63.799999237061</ele>
        <time>2022-01-03T13:21:37.000Z</time>
      </trkpt>
      <trkpt lat="43.27797" lon="2.65352">
        <ele>63.799999237061</ele>
        <time>2022-01-03T13:21:38.000Z</time>
      </trkpt>
      <trkpt lat="43.27799" lon="2.65349">
        <ele>64</ele>
        <time>2022-01-03T13:21:40.000Z</time>
      </trkpt>
      <trkpt lat="43.27802" lon="2.65341">
        <ele>64.599998474121</ele>
        <time>2022-01-03T13:21:46.000Z</time>
      </trkpt>
      <trkpt lat="43.27804" lon="2.65337">
        <ele>64.400001525879</ele>
        <time>2022-01-03T13:21:49.000Z</time>
      </trkpt>
      <trkpt lat="43.27808" lon="2.65332">
        <ele>64</ele>
        <time>2022-01-03T13:21:53.000Z</time>
      </trkpt>
      <trkpt lat="43.2781" lon="2.65327">
        <ele>63.599998474121</ele>
        <time>2022-01-03T13:21:56.000Z</time>
      </trkpt>
      <trkpt lat="43.27812" lon="2.65324">
        <ele>63.400001525879</ele>
        <time>2022-01-03T13:21:58.000Z</time>
      </trkpt>
      <trkpt lat="43.27813" lon="2.65322">
        <ele>63</ele>
        <time>2022-01-03T13:21:59.000Z</time>
      </trkpt>
      <trkpt lat="43.27815" lon="2.65315">
        <ele>62.599998474121</ele>
        <time>2022-01-03T13:22:02.000Z</time>
      </trkpt>
      <trkpt lat="43.27821" lon="2.65302">
        <ele>63.599998474121</ele>
        <time>2022-01-03T13:22:11.000Z</time>
      </trkpt>
      <trkpt lat="43.27822" lon="2.65301">
        <ele>63.400001525879</ele>
        <time>2022-01-03T13:22:12.000Z</time>
      </trkpt>
      <trkpt lat="43.27823" lon="2.65296">
        <ele>63.599998474121</ele>
        <time>2022-01-03T13:22:16.000Z</time>
      </trkpt>
      <trkpt lat="43.27826" lon="2.65286">
        <ele>63.799999237061</ele>
        <time>2022-01-03T13:22:23.000Z</time>
      </trkpt>
      <trkpt lat="43.27828" lon="2.65284">
        <ele>64.199996948242</ele>
        <time>2022-01-03T13:22:25.000Z</time>
      </trkpt>
      <trkpt lat="43.27829" lon="2.6528">
        <ele>64.599998474121</ele>
        <time>2022-01-03T13:22:27.000Z</time>
      </trkpt>
      <trkpt lat="43.2783" lon="2.65276">
        <ele>64.599998474121</ele>
        <time>2022-01-03T13:22:29.000Z</time>
      </trkpt>
      <trkpt lat="43.27832" lon="2.65269">
        <ele>65.400001525879</ele>
        <time>2022-01-03T13:22:33.000Z</time>
      </trkpt>
      <trkpt lat="43.27833" lon="2.65264">
        <ele>65.800003051758</ele>
        <time>2022-01-03T13:22:36.000Z</time>
      </trkpt>
      <trkpt lat="43.27836" lon="2.65258">
        <ele>66.400001525879</ele>
        <time>2022-01-03T13:22:40.000Z</time>
      </trkpt>
      <trkpt lat="43.27841" lon="2.65245">
        <ele>66.199996948242</ele>
        <time>2022-01-03T13:22:48.000Z</time>
      </trkpt>
      <trkpt lat="43.27845" lon="2.65233">
        <ele>66.400001525879</ele>
        <time>2022-01-03T13:22:55.000Z</time>
      </trkpt>
      <trkpt lat="43.27848" lon="2.65226">
        <ele>66.800003051758</ele>
        <time>2022-01-03T13:22:59.000Z</time>
      </trkpt>
      <trkpt lat="43.2785" lon="2.65219">
        <ele>66.800003051758</ele>
        <time>2022-01-03T13:23:03.000Z</time>
      </trkpt>
      <trkpt lat="43.27852" lon="2.65211">
        <ele>67</ele>
        <time>2022-01-03T13:23:08.000Z</time>
      </trkpt>
      <trkpt lat="43.27854" lon="2.65205">
        <ele>66.800003051758</ele>
        <time>2022-01-03T13:23:11.000Z</time>
      </trkpt>
      <trkpt lat="43.27857" lon="2.65198">
        <ele>66</ele>
        <time>2022-01-03T13:23:16.000Z</time>
      </trkpt>
      <trkpt lat="43.27859" lon="2.65192">
        <ele>65.599998474121</ele>
        <time>2022-01-03T13:23:19.000Z</time>
      </trkpt>
      <trkpt lat="43.27865" lon="2.65176">
        <ele>65.800003051758</ele>
        <time>2022-01-03T13:23:29.000Z</time>
      </trkpt>
      <trkpt lat="43.27866" lon="2.65172">
        <ele>66.400001525879</ele>
        <time>2022-01-03T13:23:32.000Z</time>
      </trkpt>
      <trkpt lat="43.27868" lon="2.65167">
        <ele>67.599998474121</ele>
        <time>2022-01-03T13:23:35.000Z</time>
      </trkpt>
      <trkpt lat="43.27872" lon="2.65156">
        <ele>68.400001525879</ele>
        <time>2022-01-03T13:23:42.000Z</time>
      </trkpt>
      <trkpt lat="43.27874" lon="2.6515">
        <ele>68.199996948242</ele>
        <time>2022-01-03T13:23:47.000Z</time>
      </trkpt>
      <trkpt lat="43.27875" lon="2.65146">
        <ele>67.599998474121</ele>
        <time>2022-01-03T13:23:50.000Z</time>
      </trkpt>
      <trkpt lat="43.27874" lon="2.65145">
        <ele>67.599998474121</ele>
        <time>2022-01-03T13:23:51.000Z</time>
      </trkpt>
      <trkpt lat="43.27873" lon="2.65142">
        <ele>67</ele>
        <time>2022-01-03T13:23:55.000Z</time>
      </trkpt>
      <trkpt lat="43.27875" lon="2.65139">
        <ele>67.400001525879</ele>
        <time>2022-01-03T13:24:05.000Z</time>
      </trkpt>
      <trkpt lat="43.27876" lon="2.65137">
        <ele>67.400001525879</ele>
        <time>2022-01-03T13:24:06.000Z</time>
      </trkpt>
      <trkpt lat="43.2788" lon="2.65126">
        <ele>68.199996948242</ele>
        <time>2022-01-03T13:24:13.000Z</time>
      </trkpt>
      <trkpt lat="43.27882" lon="2.6512">
        <ele>68.599998474121</ele>
        <time>2022-01-03T13:24:17.000Z</time>
      </trkpt>
      <trkpt lat="43.27883" lon="2.65117">
        <ele>68.800003051758</ele>
        <time>2022-01-03T13:24:19.000Z</time>
      </trkpt>
      <trkpt lat="43.27884" lon="2.65115">
        <ele>68.800003051758</ele>
        <time>2022-01-03T13:24:20.000Z</time>
      </trkpt>
      <trkpt lat="43.27885" lon="2.65111">
        <ele>68.599998474121</ele>
        <time>2022-01-03T13:24:23.000Z</time>
      </trkpt>
      <trkpt lat="43.27888" lon="2.65103">
        <ele>68.400001525879</ele>
        <time>2022-01-03T13:24:28.000Z</time>
      </trkpt>
      <trkpt lat="43.2789" lon="2.651">
        <ele>68.199996948242</ele>
        <time>2022-01-03T13:24:30.000Z</time>
      </trkpt>
      <trkpt lat="43.27891" lon="2.65098">
        <ele>68.199996948242</ele>
        <time>2022-01-03T13:24:32.000Z</time>
      </trkpt>
      <trkpt lat="43.27893" lon="2.65092">
        <ele>68.199996948242</ele>
        <time>2022-01-03T13:24:36.000Z</time>
      </trkpt>
      <trkpt lat="43.279" lon="2.65077">
        <ele>67.599998474121</ele>
        <time>2022-01-03T13:24:46.000Z</time>
      </trkpt>
      <trkpt lat="43.27902" lon="2.65074">
        <ele>67.199996948242</ele>
        <time>2022-01-03T13:24:48.000Z</time>
      </trkpt>
      <trkpt lat="43.27905" lon="2.65065">
        <ele>67</ele>
        <time>2022-01-03T13:24:54.000Z</time>
      </trkpt>
      <trkpt lat="43.27908" lon="2.65058">
        <ele>66.800003051758</ele>
        <time>2022-01-03T13:24:58.000Z</time>
      </trkpt>
      <trkpt lat="43.2791" lon="2.65052">
        <ele>66.199996948242</ele>
        <time>2022-01-03T13:25:01.000Z</time>
      </trkpt>
      <trkpt lat="43.27913" lon="2.65045">
        <ele>65.800003051758</ele>
        <time>2022-01-03T13:25:07.000Z</time>
      </trkpt>
      <trkpt lat="43.27917" lon="2.65038">
        <ele>65.599998474121</ele>
        <time>2022-01-03T13:25:13.000Z</time>
      </trkpt>
      <trkpt lat="43.27919" lon="2.65033">
        <ele>65.800003051758</ele>
        <time>2022-01-03T13:25:16.000Z</time>
      </trkpt>
      <trkpt lat="43.27924" lon="2.65024">
        <ele>66.599998474121</ele>
        <time>2022-01-03T13:25:22.000Z</time>
      </trkpt>
      <trkpt lat="43.27924" lon="2.65023">
        <ele>66.599998474121</ele>
        <time>2022-01-03T13:25:23.000Z</time>
      </trkpt>
      <trkpt lat="43.27925" lon="2.6502">
        <ele>66.400001525879</ele>
        <time>2022-01-03T13:25:25.000Z</time>
      </trkpt>
      <trkpt lat="43.27927" lon="2.65017">
        <ele>66.800003051758</ele>
        <time>2022-01-03T13:25:27.000Z</time>
      </trkpt>
      <trkpt lat="43.27932" lon="2.65008">
        <ele>67</ele>
        <time>2022-01-03T13:25:34.000Z</time>
      </trkpt>
      <trkpt lat="43.27936" lon="2.64999">
        <ele>67.199996948242</ele>
        <time>2022-01-03T13:25:39.000Z</time>
      </trkpt>
      <trkpt lat="43.27936" lon="2.64998">
        <ele>67.400001525879</ele>
        <time>2022-01-03T13:25:40.000Z</time>
      </trkpt>
      <trkpt lat="43.27941" lon="2.64988">
        <ele>67.400001525879</ele>
        <time>2022-01-03T13:25:47.000Z</time>
      </trkpt>
      <trkpt lat="43.27943" lon="2.64984">
        <ele>67.400001525879</ele>
        <time>2022-01-03T13:25:50.000Z</time>
      </trkpt>
      <trkpt lat="43.27949" lon="2.64973">
        <ele>67.400001525879</ele>
        <time>2022-01-03T13:25:57.000Z</time>
      </trkpt>
      <trkpt lat="43.2795" lon="2.64971">
        <ele>67.400001525879</ele>
        <time>2022-01-03T13:25:58.000Z</time>
      </trkpt>
      <trkpt lat="43.27955" lon="2.64963">
        <ele>67.400001525879</ele>
        <time>2022-01-03T13:26:04.000Z</time>
      </trkpt>
      <trkpt lat="43.2796" lon="2.64955">
        <ele>67.800003051758</ele>
        <time>2022-01-03T13:26:10.000Z</time>
      </trkpt>
      <trkpt lat="43.27973" lon="2.64938">
        <ele>67.400001525879</ele>
        <time>2022-01-03T13:26:24.000Z</time>
      </trkpt>
      <trkpt lat="43.27978" lon="2.64931">
        <ele>68</ele>
        <time>2022-01-03T13:26:30.000Z</time>
      </trkpt>
      <trkpt lat="43.27984" lon="2.64922">
        <ele>67.800003051758</ele>
        <time>2022-01-03T13:26:37.000Z</time>
      </trkpt>
      <trkpt lat="43.2799" lon="2.64912">
        <ele>67.800003051758</ele>
        <time>2022-01-03T13:26:44.000Z</time>
      </trkpt>
      <trkpt lat="43.27991" lon="2.6491">
        <ele>67.800003051758</ele>
        <time>2022-01-03T13:26:46.000Z</time>
      </trkpt>
      <trkpt lat="43.27996" lon="2.64904">
        <ele>68.400001525879</ele>
        <time>2022-01-03T13:26:50.000Z</time>
      </trkpt>
      <trkpt lat="43.27999" lon="2.64898">
        <ele>68.800003051758</ele>
        <time>2022-01-03T13:26:55.000Z</time>
      </trkpt>
      <trkpt lat="43.27999" lon="2.64897">
        <ele>68.800003051758</ele>
        <time>2022-01-03T13:26:56.000Z</time>
      </trkpt>
      <trkpt lat="43.28" lon="2.64896">
        <ele>68.800003051758</ele>
        <time>2022-01-03T13:26:58.000Z</time>
      </trkpt>
      <trkpt lat="43.28002" lon="2.64891">
        <ele>68</ele>
        <time>2022-01-03T13:27:03.000Z</time>
      </trkpt>
      <trkpt lat="43.28009" lon="2.6488">
        <ele>67.599998474121</ele>
        <time>2022-01-03T13:27:11.000Z</time>
      </trkpt>
      <trkpt lat="43.28012" lon="2.64875">
        <ele>67.400001525879</ele>
        <time>2022-01-03T13:27:15.000Z</time>
      </trkpt>
      <trkpt lat="43.28016" lon="2.6487">
        <ele>67.199996948242</ele>
        <time>2022-01-03T13:27:19.000Z</time>
      </trkpt>
      <trkpt lat="43.28018" lon="2.64866">
        <ele>66.400001525879</ele>
        <time>2022-01-03T13:27:22.000Z</time>
      </trkpt>
      <trkpt lat="43.28019" lon="2.64865">
        <ele>65.800003051758</ele>
        <time>2022-01-03T13:27:23.000Z</time>
      </trkpt>
      <trkpt lat="43.28026" lon="2.64856">
        <ele>65.199996948242</ele>
        <time>2022-01-03T13:27:31.000Z</time>
      </trkpt>
      <trkpt lat="43.28028" lon="2.64852">
        <ele>65.199996948242</ele>
        <time>2022-01-03T13:27:34.000Z</time>
      </trkpt>
      <trkpt lat="43.28037" lon="2.64838">
        <ele>65</ele>
        <time>2022-01-03T13:27:44.000Z</time>
      </trkpt>
      <trkpt lat="43.28039" lon="2.64835">
        <ele>65</ele>
        <time>2022-01-03T13:27:46.000Z</time>
      </trkpt>
      <trkpt lat="43.28047" lon="2.64826">
        <ele>65.400001525879</ele>
        <time>2022-01-03T13:27:55.000Z</time>
      </trkpt>
      <trkpt lat="43.28054" lon="2.64813">
        <ele>66.400001525879</ele>
        <time>2022-01-03T13:28:04.000Z</time>
      </trkpt>
      <trkpt lat="43.28055" lon="2.64812">
        <ele>66.599998474121</ele>
        <time>2022-01-03T13:28:05.000Z</time>
      </trkpt>
      <trkpt lat="43.28062" lon="2.64801">
        <ele>67.199996948242</ele>
        <time>2022-01-03T13:28:13.000Z</time>
      </trkpt>
      <trkpt lat="43.28064" lon="2.64799">
        <ele>67.400001525879</ele>
        <time>2022-01-03T13:28:15.000Z</time>
      </trkpt>
      <trkpt lat="43.28076" lon="2.64782">
        <ele>67.400001525879</ele>
        <time>2022-01-03T13:28:29.000Z</time>
      </trkpt>
      <trkpt lat="43.28078" lon="2.64779">
        <ele>67.400001525879</ele>
        <time>2022-01-03T13:28:31.000Z</time>
      </trkpt>
      <trkpt lat="43.28079" lon="2.64778">
        <ele>67.400001525879</ele>
        <time>2022-01-03T13:28:32.000Z</time>
      </trkpt>
      <trkpt lat="43.28082" lon="2.64773">
        <ele>67.199996948242</ele>
        <time>2022-01-03T13:28:36.000Z</time>
      </trkpt>
      <trkpt lat="43.28085" lon="2.64768">
        <ele>67.199996948242</ele>
        <time>2022-01-03T13:28:41.000Z</time>
      </trkpt>
      <trkpt lat="43.28095" lon="2.64755">
        <ele>66.800003051758</ele>
        <time>2022-01-03T13:28:53.000Z</time>
      </trkpt>
      <trkpt lat="43.28101" lon="2.64744">
        <ele>67.199996948242</ele>
        <time>2022-01-03T13:29:01.000Z</time>
      </trkpt>
      <trkpt lat="43.28103" lon="2.64742">
        <ele>67.199996948242</ele>
        <time>2022-01-03T13:29:03.000Z</time>
      </trkpt>
      <trkpt lat="43.28116" lon="2.64723">
        <ele>67.599998474121</ele>
        <time>2022-01-03T13:29:18.000Z</time>
      </trkpt>
      <trkpt lat="43.28128" lon="2.64706">
        <ele>68.199996948242</ele>
        <time>2022-01-03T13:29:32.000Z</time>
      </trkpt>
      <trkpt lat="43.28135" lon="2.64693">
        <ele>68.199996948242</ele>
        <time>2022-01-03T13:29:41.000Z</time>
      </trkpt>
      <trkpt lat="43.28137" lon="2.64689">
        <ele>68.199996948242</ele>
        <time>2022-01-03T13:29:44.000Z</time>
      </trkpt>
      <trkpt lat="43.28144" lon="2.64679">
        <ele>68.400001525879</ele>
        <time>2022-01-03T13:29:53.000Z</time>
      </trkpt>
      <trkpt lat="43.28146" lon="2.64677">
        <ele>68.400001525879</ele>
        <time>2022-01-03T13:29:55.000Z</time>
      </trkpt>
      <trkpt lat="43.2815" lon="2.64672">
        <ele>68.400001525879</ele>
        <time>2022-01-03T13:29:59.000Z</time>
      </trkpt>
      <trkpt lat="43.28151" lon="2.6467">
        <ele>68.400001525879</ele>
        <time>2022-01-03T13:30:01.000Z</time>
      </trkpt>
      <trkpt lat="43.28156" lon="2.64664">
        <ele>68.400001525879</ele>
        <time>2022-01-03T13:30:06.000Z</time>
      </trkpt>
      <trkpt lat="43.28161" lon="2.64658">
        <ele>68.400001525879</ele>
        <time>2022-01-03T13:30:12.000Z</time>
      </trkpt>
      <trkpt lat="43.28165" lon="2.64651">
        <ele>68</ele>
        <time>2022-01-03T13:30:18.000Z</time>
      </trkpt>
      <trkpt lat="43.28171" lon="2.64641">
        <ele>67.599998474121</ele>
        <time>2022-01-03T13:30:26.000Z</time>
      </trkpt>
      <trkpt lat="43.28172" lon="2.6464">
        <ele>67.599998474121</ele>
        <time>2022-01-03T13:30:27.000Z</time>
      </trkpt>
      <trkpt lat="43.2818" lon="2.64628">
        <ele>68.599998474121</ele>
        <time>2022-01-03T13:30:38.000Z</time>
      </trkpt>
      <trkpt lat="43.28183" lon="2.64625">
        <ele>69.199996948242</ele>
        <time>2022-01-03T13:30:41.000Z</time>
      </trkpt>
      <trkpt lat="43.28184" lon="2.64624">
        <ele>69.199996948242</ele>
        <time>2022-01-03T13:30:42.000Z</time>
      </trkpt>
      <trkpt lat="43.28185" lon="2.64621">
        <ele>69.599998474121</ele>
        <time>2022-01-03T13:30:44.000Z</time>
      </trkpt>
      <trkpt lat="43.28188" lon="2.64618">
        <ele>69.400001525879</ele>
        <time>2022-01-03T13:30:47.000Z</time>
      </trkpt>
      <trkpt lat="43.28196" lon="2.64606">
        <ele>70</ele>
        <time>2022-01-03T13:30:56.000Z</time>
      </trkpt>
      <trkpt lat="43.28197" lon="2.64604">
        <ele>70</ele>
        <time>2022-01-03T13:30:57.000Z</time>
      </trkpt>
      <trkpt lat="43.28201" lon="2.64599">
        <ele>70.800003051758</ele>
        <time>2022-01-03T13:31:01.000Z</time>
      </trkpt>
      <trkpt lat="43.28203" lon="2.64594">
        <ele>71</ele>
        <time>2022-01-03T13:31:04.000Z</time>
      </trkpt>
      <trkpt lat="43.28204" lon="2.64593">
        <ele>71.400001525879</ele>
        <time>2022-01-03T13:31:05.000Z</time>
      </trkpt>
      <trkpt lat="43.28207" lon="2.64588">
        <ele>71.800003051758</ele>
        <time>2022-01-03T13:31:09.000Z</time>
      </trkpt>
      <trkpt lat="43.28211" lon="2.64583">
        <ele>71.800003051758</ele>
        <time>2022-01-03T13:31:13.000Z</time>
      </trkpt>
      <trkpt lat="43.28213" lon="2.64581">
        <ele>71.599998474121</ele>
        <time>2022-01-03T13:31:15.000Z</time>
      </trkpt>
      <trkpt lat="43.2822" lon="2.64571">
        <ele>71.599998474121</ele>
        <time>2022-01-03T13:31:24.000Z</time>
      </trkpt>
      <trkpt lat="43.28231" lon="2.64555">
        <ele>71.800003051758</ele>
        <time>2022-01-03T13:31:36.000Z</time>
      </trkpt>
      <trkpt lat="43.28241" lon="2.6454">
        <ele>72</ele>
        <time>2022-01-03T13:31:48.000Z</time>
      </trkpt>
      <trkpt lat="43.28242" lon="2.64538">
        <ele>72</ele>
        <time>2022-01-03T13:31:49.000Z</time>
      </trkpt>
      <trkpt lat="43.28247" lon="2.64532">
        <ele>72</ele>
        <time>2022-01-03T13:31:54.000Z</time>
      </trkpt>
      <trkpt lat="43.2825" lon="2.64529">
        <ele>72</ele>
        <time>2022-01-03T13:31:57.000Z</time>
      </trkpt>
      <trkpt lat="43.2826" lon="2.64514">
        <ele>72.800003051758</ele>
        <time>2022-01-03T13:32:09.000Z</time>
      </trkpt>
      <trkpt lat="43.28261" lon="2.64511">
        <ele>72.800003051758</ele>
        <time>2022-01-03T13:32:11.000Z</time>
      </trkpt>
      <trkpt lat="43.28268" lon="2.64504">
        <ele>73</ele>
        <time>2022-01-03T13:32:18.000Z</time>
      </trkpt>
      <trkpt lat="43.28269" lon="2.64503">
        <ele>73</ele>
        <time>2022-01-03T13:32:19.000Z</time>
      </trkpt>
      <trkpt lat="43.2827" lon="2.64502">
        <ele>73</ele>
        <time>2022-01-03T13:32:20.000Z</time>
      </trkpt>
      <trkpt lat="43.28274" lon="2.64498">
        <ele>73</ele>
        <time>2022-01-03T13:32:24.000Z</time>
      </trkpt>
      <trkpt lat="43.28275" lon="2.64497">
        <ele>73</ele>
        <time>2022-01-03T13:32:25.000Z</time>
      </trkpt>
      <trkpt lat="43.28276" lon="2.64494">
        <ele>73</ele>
        <time>2022-01-03T13:32:27.000Z</time>
      </trkpt>
      <trkpt lat="43.28283" lon="2.64487">
        <ele>73</ele>
        <time>2022-01-03T13:32:34.000Z</time>
      </trkpt>
      <trkpt lat="43.28285" lon="2.64485">
        <ele>73</ele>
        <time>2022-01-03T13:32:36.000Z</time>
      </trkpt>
      <trkpt lat="43.28292" lon="2.64477">
        <ele>72.800003051758</ele>
        <time>2022-01-03T13:32:43.000Z</time>
      </trkpt>
      <trkpt lat="43.28295" lon="2.64473">
        <ele>73.400001525879</ele>
        <time>2022-01-03T13:32:46.000Z</time>
      </trkpt>
      <trkpt lat="43.28304" lon="2.6446">
        <ele>73.599998474121</ele>
        <time>2022-01-03T13:32:56.000Z</time>
      </trkpt>
      <trkpt lat="43.28311" lon="2.64451">
        <ele>73.199996948242</ele>
        <time>2022-01-03T13:33:03.000Z</time>
      </trkpt>
      <trkpt lat="43.28314" lon="2.64447">
        <ele>73</ele>
        <time>2022-01-03T13:33:07.000Z</time>
      </trkpt>
      <trkpt lat="43.2832" lon="2.64441">
        <ele>72.400001525879</ele>
        <time>2022-01-03T13:33:13.000Z</time>
      </trkpt>
      <trkpt lat="43.28323" lon="2.64439">
        <ele>71.800003051758</ele>
        <time>2022-01-03T13:33:15.000Z</time>
      </trkpt>
      <trkpt lat="43.28326" lon="2.64436">
        <ele>71.800003051758</ele>
        <time>2022-01-03T13:33:18.000Z</time>
      </trkpt>
      <trkpt lat="43.28328" lon="2.64435">
        <ele>71.800003051758</ele>
        <time>2022-01-03T13:33:20.000Z</time>
      </trkpt>
      <trkpt lat="43.28333" lon="2.64431">
        <ele>72.599998474121</ele>
        <time>2022-01-03T13:33:24.000Z</time>
      </trkpt>
      <trkpt lat="43.28337" lon="2.64429">
        <ele>72.800003051758</ele>
        <time>2022-01-03T13:33:27.000Z</time>
      </trkpt>
      <trkpt lat="43.28339" lon="2.64427">
        <ele>73</ele>
        <time>2022-01-03T13:33:29.000Z</time>
      </trkpt>
      <trkpt lat="43.28348" lon="2.6442">
        <ele>73.199996948242</ele>
        <time>2022-01-03T13:33:37.000Z</time>
      </trkpt>
      <trkpt lat="43.28349" lon="2.64419">
        <ele>73.199996948242</ele>
        <time>2022-01-03T13:33:38.000Z</time>
      </trkpt>
      <trkpt lat="43.28365" lon="2.64404">
        <ele>73</ele>
        <time>2022-01-03T13:33:53.000Z</time>
      </trkpt>
      <trkpt lat="43.28368" lon="2.64401">
        <ele>73.199996948242</ele>
        <time>2022-01-03T13:33:56.000Z</time>
      </trkpt>
      <trkpt lat="43.28373" lon="2.64398">
        <ele>73.800003051758</ele>
        <time>2022-01-03T13:34:00.000Z</time>
      </trkpt>
      <trkpt lat="43.28377" lon="2.64394">
        <ele>74.400001525879</ele>
        <time>2022-01-03T13:34:05.000Z</time>
      </trkpt>
      <trkpt lat="43.28391" lon="2.64384">
        <ele>74.800003051758</ele>
        <time>2022-01-03T13:34:18.000Z</time>
      </trkpt>
      <trkpt lat="43.28392" lon="2.64383">
        <ele>75</ele>
        <time>2022-01-03T13:34:20.000Z</time>
      </trkpt>
      <trkpt lat="43.28394" lon="2.64382">
        <ele>75</ele>
        <time>2022-01-03T13:34:22.000Z</time>
      </trkpt>
      <trkpt lat="43.28401" lon="2.64377">
        <ele>76.199996948242</ele>
        <time>2022-01-03T13:34:28.000Z</time>
      </trkpt>
      <trkpt lat="43.28406" lon="2.64373">
        <ele>77.199996948242</ele>
        <time>2022-01-03T13:34:33.000Z</time>
      </trkpt>
      <trkpt lat="43.28413" lon="2.64369">
        <ele>76.199996948242</ele>
        <time>2022-01-03T13:34:39.000Z</time>
      </trkpt>
      <trkpt lat="43.28414" lon="2.64368">
        <ele>76.199996948242</ele>
        <time>2022-01-03T13:34:40.000Z</time>
      </trkpt>
      <trkpt lat="43.28424" lon="2.64364">
        <ele>76.199996948242</ele>
        <time>2022-01-03T13:34:49.000Z</time>
      </trkpt>
      <trkpt lat="43.28434" lon="2.6436">
        <ele>76.800003051758</ele>
        <time>2022-01-03T13:34:57.000Z</time>
      </trkpt>
      <trkpt lat="43.28437" lon="2.6436">
        <ele>77.400001525879</ele>
        <time>2022-01-03T13:35:00.000Z</time>
      </trkpt>
      <trkpt lat="43.28445" lon="2.64357">
        <ele>78.199996948242</ele>
        <time>2022-01-03T13:35:06.000Z</time>
      </trkpt>
      <trkpt lat="43.28446" lon="2.64356">
        <ele>78.400001525879</ele>
        <time>2022-01-03T13:35:07.000Z</time>
      </trkpt>
      <trkpt lat="43.28451" lon="2.64354">
        <ele>78.400001525879</ele>
        <time>2022-01-03T13:35:11.000Z</time>
      </trkpt>
      <trkpt lat="43.28456" lon="2.64349">
        <ele>78.400001525879</ele>
        <time>2022-01-03T13:35:16.000Z</time>
      </trkpt>
      <trkpt lat="43.28457" lon="2.64349">
        <ele>79</ele>
        <time>2022-01-03T13:35:17.000Z</time>
      </trkpt>
      <trkpt lat="43.28463" lon="2.64348">
        <ele>79.400001525879</ele>
        <time>2022-01-03T13:35:21.000Z</time>
      </trkpt>
      <trkpt lat="43.28465" lon="2.64347">
        <ele>79.400001525879</ele>
        <time>2022-01-03T13:35:23.000Z</time>
      </trkpt>
      <trkpt lat="43.28466" lon="2.64346">
        <ele>79.400001525879</ele>
        <time>2022-01-03T13:35:24.000Z</time>
      </trkpt>
      <trkpt lat="43.28469" lon="2.64345">
        <ele>79.599998474121</ele>
        <time>2022-01-03T13:35:27.000Z</time>
      </trkpt>
      <trkpt lat="43.28476" lon="2.6434">
        <ele>79.800003051758</ele>
        <time>2022-01-03T13:35:33.000Z</time>
      </trkpt>
      <trkpt lat="43.28479" lon="2.64339">
        <ele>80.199996948242</ele>
        <time>2022-01-03T13:35:35.000Z</time>
      </trkpt>
      <trkpt lat="43.28482" lon="2.64338">
        <ele>80.199996948242</ele>
        <time>2022-01-03T13:35:38.000Z</time>
      </trkpt>
      <trkpt lat="43.28483" lon="2.64337">
        <ele>80.599998474121</ele>
        <time>2022-01-03T13:35:39.000Z</time>
      </trkpt>
      <trkpt lat="43.28486" lon="2.64335">
        <ele>80.199996948242</ele>
        <time>2022-01-03T13:35:42.000Z</time>
      </trkpt>
      <trkpt lat="43.28494" lon="2.64329">
        <ele>79.599998474121</ele>
        <time>2022-01-03T13:35:49.000Z</time>
      </trkpt>
      <trkpt lat="43.28498" lon="2.64326">
        <ele>79.599998474121</ele>
        <time>2022-01-03T13:35:52.000Z</time>
      </trkpt>
      <trkpt lat="43.285" lon="2.64324">
        <ele>79.400001525879</ele>
        <time>2022-01-03T13:35:54.000Z</time>
      </trkpt>
      <trkpt lat="43.28508" lon="2.64318">
        <ele>78.800003051758</ele>
        <time>2022-01-03T13:36:02.000Z</time>
      </trkpt>
      <trkpt lat="43.28508" lon="2.64317">
        <ele>78.800003051758</ele>
        <time>2022-01-03T13:36:03.000Z</time>
      </trkpt>
      <trkpt lat="43.28513" lon="2.64312">
        <ele>79.199996948242</ele>
        <time>2022-01-03T13:36:11.000Z</time>
      </trkpt>
      <trkpt lat="43.28517" lon="2.64309">
        <ele>79.599998474121</ele>
        <time>2022-01-03T13:36:14.000Z</time>
      </trkpt>
      <trkpt lat="43.28517" lon="2.64308">
        <ele>79.400001525879</ele>
        <time>2022-01-03T13:36:15.000Z</time>
      </trkpt>
      <trkpt lat="43.28523" lon="2.64302">
        <ele>79.800003051758</ele>
        <time>2022-01-03T13:36:21.000Z</time>
      </trkpt>
      <trkpt lat="43.2853" lon="2.64298">
        <ele>79.599998474121</ele>
        <time>2022-01-03T13:36:27.000Z</time>
      </trkpt>
      <trkpt lat="43.28536" lon="2.64292">
        <ele>79.599998474121</ele>
        <time>2022-01-03T13:36:33.000Z</time>
      </trkpt>
      <trkpt lat="43.28552" lon="2.64279">
        <ele>78.599998474121</ele>
        <time>2022-01-03T13:36:48.000Z</time>
      </trkpt>
      <trkpt lat="43.28555" lon="2.64276">
        <ele>78.800003051758</ele>
        <time>2022-01-03T13:36:51.000Z</time>
      </trkpt>
      <trkpt lat="43.28563" lon="2.64271">
        <ele>78.400001525879</ele>
        <time>2022-01-03T13:36:58.000Z</time>
      </trkpt>
      <trkpt lat="43.28564" lon="2.6427">
        <ele>78.400001525879</ele>
        <time>2022-01-03T13:36:59.000Z</time>
      </trkpt>
      <trkpt lat="43.28566" lon="2.64268">
        <ele>77.800003051758</ele>
        <time>2022-01-03T13:37:01.000Z</time>
      </trkpt>
      <trkpt lat="43.2857" lon="2.64264">
        <ele>77.400001525879</ele>
        <time>2022-01-03T13:37:06.000Z</time>
      </trkpt>
      <trkpt lat="43.28574" lon="2.64261">
        <ele>77</ele>
        <time>2022-01-03T13:37:10.000Z</time>
      </trkpt>
      <trkpt lat="43.28575" lon="2.64258">
        <ele>77</ele>
        <time>2022-01-03T13:37:12.000Z</time>
      </trkpt>
      <trkpt lat="43.28581" lon="2.64252">
        <ele>76.599998474121</ele>
        <time>2022-01-03T13:37:17.000Z</time>
      </trkpt>
      <trkpt lat="43.28582" lon="2.6425">
        <ele>76.800003051758</ele>
        <time>2022-01-03T13:37:18.000Z</time>
      </trkpt>
      <trkpt lat="43.28586" lon="2.64244">
        <ele>77.199996948242</ele>
        <time>2022-01-03T13:37:23.000Z</time>
      </trkpt>
      <trkpt lat="43.28592" lon="2.64236">
        <ele>78.199996948242</ele>
        <time>2022-01-03T13:37:30.000Z</time>
      </trkpt>
      <trkpt lat="43.28595" lon="2.64233">
        <ele>78.400001525879</ele>
        <time>2022-01-03T13:37:33.000Z</time>
      </trkpt>
      <trkpt lat="43.28596" lon="2.6423">
        <ele>78.599998474121</ele>
        <time>2022-01-03T13:37:35.000Z</time>
      </trkpt>
      <trkpt lat="43.28598" lon="2.64228">
        <ele>78.800003051758</ele>
        <time>2022-01-03T13:37:37.000Z</time>
      </trkpt>
      <trkpt lat="43.28601" lon="2.64225">
        <ele>79</ele>
        <time>2022-01-03T13:37:40.000Z</time>
      </trkpt>
      <trkpt lat="43.28603" lon="2.64218">
        <ele>79.199996948242</ele>
        <time>2022-01-03T13:37:44.000Z</time>
      </trkpt>
      <trkpt lat="43.28605" lon="2.64214">
        <ele>79.199996948242</ele>
        <time>2022-01-03T13:37:47.000Z</time>
      </trkpt>
      <trkpt lat="43.28605" lon="2.64211">
        <ele>79.400001525879</ele>
        <time>2022-01-03T13:37:49.000Z</time>
      </trkpt>
      <trkpt lat="43.28606" lon="2.64207">
        <ele>79.400001525879</ele>
        <time>2022-01-03T13:37:51.000Z</time>
      </trkpt>
      <trkpt lat="43.28612" lon="2.64196">
        <ele>79</ele>
        <time>2022-01-03T13:37:59.000Z</time>
      </trkpt>
      <trkpt lat="43.28616" lon="2.6419">
        <ele>79</ele>
        <time>2022-01-03T13:38:04.000Z</time>
      </trkpt>
      <trkpt lat="43.28619" lon="2.64186">
        <ele>79.199996948242</ele>
        <time>2022-01-03T13:38:07.000Z</time>
      </trkpt>
      <trkpt lat="43.2862" lon="2.64185">
        <ele>79.400001525879</ele>
        <time>2022-01-03T13:38:08.000Z</time>
      </trkpt>
      <trkpt lat="43.28621" lon="2.64184">
        <ele>79.199996948242</ele>
        <time>2022-01-03T13:38:09.000Z</time>
      </trkpt>
      <trkpt lat="43.28623" lon="2.6418">
        <ele>79.400001525879</ele>
        <time>2022-01-03T13:38:12.000Z</time>
      </trkpt>
      <trkpt lat="43.28626" lon="2.64175">
        <ele>79.199996948242</ele>
        <time>2022-01-03T13:38:15.000Z</time>
      </trkpt>
      <trkpt lat="43.28629" lon="2.6417">
        <ele>79</ele>
        <time>2022-01-03T13:38:19.000Z</time>
      </trkpt>
      <trkpt lat="43.28637" lon="2.6416">
        <ele>79.400001525879</ele>
        <time>2022-01-03T13:38:29.000Z</time>
      </trkpt>
      <trkpt lat="43.28644" lon="2.64147">
        <ele>79.400001525879</ele>
        <time>2022-01-03T13:38:38.000Z</time>
      </trkpt>
      <trkpt lat="43.28645" lon="2.64146">
        <ele>79</ele>
        <time>2022-01-03T13:38:39.000Z</time>
      </trkpt>
      <trkpt lat="43.28651" lon="2.64134">
        <ele>78.400001525879</ele>
        <time>2022-01-03T13:38:48.000Z</time>
      </trkpt>
      <trkpt lat="43.28652" lon="2.64133">
        <ele>78.199996948242</ele>
        <time>2022-01-03T13:38:49.000Z</time>
      </trkpt>
      <trkpt lat="43.28657" lon="2.64126">
        <ele>78.199996948242</ele>
        <time>2022-01-03T13:38:54.000Z</time>
      </trkpt>
      <trkpt lat="43.28659" lon="2.64121">
        <ele>77.599998474121</ele>
        <time>2022-01-03T13:38:57.000Z</time>
      </trkpt>
      <trkpt lat="43.28661" lon="2.64119">
        <ele>77.199996948242</ele>
        <time>2022-01-03T13:38:59.000Z</time>
      </trkpt>
      <trkpt lat="43.28663" lon="2.64113">
        <ele>76.800003051758</ele>
        <time>2022-01-03T13:39:03.000Z</time>
      </trkpt>
      <trkpt lat="43.28668" lon="2.64102">
        <ele>76.199996948242</ele>
        <time>2022-01-03T13:39:10.000Z</time>
      </trkpt>
      <trkpt lat="43.28673" lon="2.64093">
        <ele>76.599998474121</ele>
        <time>2022-01-03T13:39:16.000Z</time>
      </trkpt>
      <trkpt lat="43.28676" lon="2.64085">
        <ele>77</ele>
        <time>2022-01-03T13:39:21.000Z</time>
      </trkpt>
      <trkpt lat="43.2868" lon="2.64079">
        <ele>77.199996948242</ele>
        <time>2022-01-03T13:39:26.000Z</time>
      </trkpt>
      <trkpt lat="43.28682" lon="2.64074">
        <ele>77.599998474121</ele>
        <time>2022-01-03T13:39:29.000Z</time>
      </trkpt>
      <trkpt lat="43.28685" lon="2.64069">
        <ele>77.800003051758</ele>
        <time>2022-01-03T13:39:33.000Z</time>
      </trkpt>
      <trkpt lat="43.28691" lon="2.64055">
        <ele>77.800003051758</ele>
        <time>2022-01-03T13:39:41.000Z</time>
      </trkpt>
      <trkpt lat="43.28697" lon="2.6404">
        <ele>78.599998474121</ele>
        <time>2022-01-03T13:39:50.000Z</time>
      </trkpt>
      <trkpt lat="43.28697" lon="2.64039">
        <ele>78.599998474121</ele>
        <time>2022-01-03T13:39:51.000Z</time>
      </trkpt>
      <trkpt lat="43.28702" lon="2.64027">
        <ele>79</ele>
        <time>2022-01-03T13:39:59.000Z</time>
      </trkpt>
      <trkpt lat="43.28704" lon="2.64021">
        <ele>79</ele>
        <time>2022-01-03T13:40:03.000Z</time>
      </trkpt>
      <trkpt lat="43.28707" lon="2.64006">
        <ele>78.599998474121</ele>
        <time>2022-01-03T13:40:12.000Z</time>
      </trkpt>
      <trkpt lat="43.28709" lon="2.63999">
        <ele>78.199996948242</ele>
        <time>2022-01-03T13:40:16.000Z</time>
      </trkpt>
      <trkpt lat="43.28712" lon="2.63989">
        <ele>78.400001525879</ele>
        <time>2022-01-03T13:40:22.000Z</time>
      </trkpt>
      <trkpt lat="43.28714" lon="2.63983">
        <ele>78.400001525879</ele>
        <time>2022-01-03T13:40:26.000Z</time>
      </trkpt>
      <trkpt lat="43.28716" lon="2.63979">
        <ele>78.599998474121</ele>
        <time>2022-01-03T13:40:29.000Z</time>
      </trkpt>
      <trkpt lat="43.28718" lon="2.63968">
        <ele>78.800003051758</ele>
        <time>2022-01-03T13:40:35.000Z</time>
      </trkpt>
      <trkpt lat="43.28725" lon="2.6395">
        <ele>78.800003051758</ele>
        <time>2022-01-03T13:40:47.000Z</time>
      </trkpt>
      <trkpt lat="43.28727" lon="2.63942">
        <ele>78.400001525879</ele>
        <time>2022-01-03T13:40:52.000Z</time>
      </trkpt>
      <trkpt lat="43.2873" lon="2.63936">
        <ele>78.199996948242</ele>
        <time>2022-01-03T13:40:56.000Z</time>
      </trkpt>
      <trkpt lat="43.28731" lon="2.63926">
        <ele>77.800003051758</ele>
        <time>2022-01-03T13:41:01.000Z</time>
      </trkpt>
      <trkpt lat="43.28737" lon="2.63911">
        <ele>77.800003051758</ele>
        <time>2022-01-03T13:41:11.000Z</time>
      </trkpt>
      <trkpt lat="43.28739" lon="2.63906">
        <ele>77.400001525879</ele>
        <time>2022-01-03T13:41:14.000Z</time>
      </trkpt>
      <trkpt lat="43.28739" lon="2.63903">
        <ele>77.400001525879</ele>
        <time>2022-01-03T13:41:16.000Z</time>
      </trkpt>
      <trkpt lat="43.28742" lon="2.63895">
        <ele>77.400001525879</ele>
        <time>2022-01-03T13:41:21.000Z</time>
      </trkpt>
      <trkpt lat="43.28742" lon="2.63894">
        <ele>77.400001525879</ele>
        <time>2022-01-03T13:41:22.000Z</time>
      </trkpt>
      <trkpt lat="43.28743" lon="2.63888">
        <ele>77.599998474121</ele>
        <time>2022-01-03T13:41:25.000Z</time>
      </trkpt>
      <trkpt lat="43.28747" lon="2.63873">
        <ele>78.400001525879</ele>
        <time>2022-01-03T13:41:34.000Z</time>
      </trkpt>
      <trkpt lat="43.28749" lon="2.63869">
        <ele>79</ele>
        <time>2022-01-03T13:41:37.000Z</time>
      </trkpt>
      <trkpt lat="43.2875" lon="2.63865">
        <ele>79.800003051758</ele>
        <time>2022-01-03T13:41:40.000Z</time>
      </trkpt>
      <trkpt lat="43.28752" lon="2.6386">
        <ele>80.199996948242</ele>
        <time>2022-01-03T13:41:43.000Z</time>
      </trkpt>
      <trkpt lat="43.28752" lon="2.63857">
        <ele>80.199996948242</ele>
        <time>2022-01-03T13:41:45.000Z</time>
      </trkpt>
      <trkpt lat="43.28754" lon="2.63854">
        <ele>80.199996948242</ele>
        <time>2022-01-03T13:41:48.000Z</time>
      </trkpt>
      <trkpt lat="43.28756" lon="2.63849">
        <ele>80.199996948242</ele>
        <time>2022-01-03T13:41:52.000Z</time>
      </trkpt>
      <trkpt lat="43.28759" lon="2.63837">
        <ele>80.400001525879</ele>
        <time>2022-01-03T13:41:58.000Z</time>
      </trkpt>
      <trkpt lat="43.28763" lon="2.63828">
        <ele>80.400001525879</ele>
        <time>2022-01-03T13:42:03.000Z</time>
      </trkpt>
      <trkpt lat="43.28765" lon="2.63821">
        <ele>80.199996948242</ele>
        <time>2022-01-03T13:42:07.000Z</time>
      </trkpt>
      <trkpt lat="43.2877" lon="2.63805">
        <ele>80</ele>
        <time>2022-01-03T13:42:16.000Z</time>
      </trkpt>
      <trkpt lat="43.28776" lon="2.63781">
        <ele>80.400001525879</ele>
        <time>2022-01-03T13:42:30.000Z</time>
      </trkpt>
      <trkpt lat="43.28779" lon="2.63769">
        <ele>79.599998474121</ele>
        <time>2022-01-03T13:42:37.000Z</time>
      </trkpt>
      <trkpt lat="43.28781" lon="2.63764">
        <ele>79.400001525879</ele>
        <time>2022-01-03T13:42:40.000Z</time>
      </trkpt>
      <trkpt lat="43.28783" lon="2.63758">
        <ele>79</ele>
        <time>2022-01-03T13:42:44.000Z</time>
      </trkpt>
      <trkpt lat="43.28784" lon="2.63754">
        <ele>78.599998474121</ele>
        <time>2022-01-03T13:42:47.000Z</time>
      </trkpt>
      <trkpt lat="43.28787" lon="2.63746">
        <ele>77.599998474121</ele>
        <time>2022-01-03T13:42:53.000Z</time>
      </trkpt>
      <trkpt lat="43.28787" lon="2.63745">
        <ele>77.400001525879</ele>
        <time>2022-01-03T13:42:54.000Z</time>
      </trkpt>
      <trkpt lat="43.28788" lon="2.63742">
        <ele>77.400001525879</ele>
        <time>2022-01-03T13:42:57.000Z</time>
      </trkpt>
      <trkpt lat="43.2879" lon="2.63736">
        <ele>77.599998474121</ele>
        <time>2022-01-03T13:43:01.000Z</time>
      </trkpt>
      <trkpt lat="43.28793" lon="2.63723">
        <ele>77.800003051758</ele>
        <time>2022-01-03T13:43:07.000Z</time>
      </trkpt>
      <trkpt lat="43.28794" lon="2.63718">
        <ele>77.400001525879</ele>
        <time>2022-01-03T13:43:10.000Z</time>
      </trkpt>
      <trkpt lat="43.28799" lon="2.63701">
        <ele>77.800003051758</ele>
        <time>2022-01-03T13:43:20.000Z</time>
      </trkpt>
      <trkpt lat="43.28801" lon="2.63695">
        <ele>77.599998474121</ele>
        <time>2022-01-03T13:43:24.000Z</time>
      </trkpt>
      <trkpt lat="43.28803" lon="2.63689">
        <ele>77.599998474121</ele>
        <time>2022-01-03T13:43:28.000Z</time>
      </trkpt>
      <trkpt lat="43.28807" lon="2.63675">
        <ele>77.800003051758</ele>
        <time>2022-01-03T13:43:37.000Z</time>
      </trkpt>
      <trkpt lat="43.28809" lon="2.6367">
        <ele>77.800003051758</ele>
        <time>2022-01-03T13:43:40.000Z</time>
      </trkpt>
      <trkpt lat="43.28812" lon="2.63661">
        <ele>77.599998474121</ele>
        <time>2022-01-03T13:43:47.000Z</time>
      </trkpt>
      <trkpt lat="43.28815" lon="2.63649">
        <ele>77</ele>
        <time>2022-01-03T13:43:55.000Z</time>
      </trkpt>
      <trkpt lat="43.28817" lon="2.63642">
        <ele>77.199996948242</ele>
        <time>2022-01-03T13:43:59.000Z</time>
      </trkpt>
      <trkpt lat="43.28821" lon="2.63626">
        <ele>78</ele>
        <time>2022-01-03T13:44:09.000Z</time>
      </trkpt>
      <trkpt lat="43.28825" lon="2.63609">
        <ele>77.199996948242</ele>
        <time>2022-01-03T13:44:19.000Z</time>
      </trkpt>
      <trkpt lat="43.28827" lon="2.63603">
        <ele>77</ele>
        <time>2022-01-03T13:44:23.000Z</time>
      </trkpt>
      <trkpt lat="43.28828" lon="2.63595">
        <ele>76.800003051758</ele>
        <time>2022-01-03T13:44:27.000Z</time>
      </trkpt>
      <trkpt lat="43.28829" lon="2.6359">
        <ele>77.599998474121</ele>
        <time>2022-01-03T13:44:30.000Z</time>
      </trkpt>
      <trkpt lat="43.28831" lon="2.63577">
        <ele>78.599998474121</ele>
        <time>2022-01-03T13:44:37.000Z</time>
      </trkpt>
      <trkpt lat="43.28832" lon="2.63572">
        <ele>78.800003051758</ele>
        <time>2022-01-03T13:44:40.000Z</time>
      </trkpt>
      <trkpt lat="43.28834" lon="2.63561">
        <ele>78.599998474121</ele>
        <time>2022-01-03T13:44:47.000Z</time>
      </trkpt>
      <trkpt lat="43.28835" lon="2.63556">
        <ele>78.599998474121</ele>
        <time>2022-01-03T13:44:50.000Z</time>
      </trkpt>
      <trkpt lat="43.28836" lon="2.63549">
        <ele>78.599998474121</ele>
        <time>2022-01-03T13:44:53.000Z</time>
      </trkpt>
      <trkpt lat="43.28838" lon="2.63537">
        <ele>79.599998474121</ele>
        <time>2022-01-03T13:45:01.000Z</time>
      </trkpt>
      <trkpt lat="43.2884" lon="2.63522">
        <ele>80.199996948242</ele>
        <time>2022-01-03T13:45:10.000Z</time>
      </trkpt>
      <trkpt lat="43.28842" lon="2.63511">
        <ele>80.800003051758</ele>
        <time>2022-01-03T13:45:16.000Z</time>
      </trkpt>
      <trkpt lat="43.28842" lon="2.63504">
        <ele>80.800003051758</ele>
        <time>2022-01-03T13:45:20.000Z</time>
      </trkpt>
      <trkpt lat="43.28842" lon="2.63494">
        <ele>81.599998474121</ele>
        <time>2022-01-03T13:45:27.000Z</time>
      </trkpt>
      <trkpt lat="43.28842" lon="2.63492">
        <ele>81.800003051758</ele>
        <time>2022-01-03T13:45:28.000Z</time>
      </trkpt>
      <trkpt lat="43.28842" lon="2.63484">
        <ele>82.199996948242</ele>
        <time>2022-01-03T13:45:33.000Z</time>
      </trkpt>
      <trkpt lat="43.28842" lon="2.63477">
        <ele>82.400001525879</ele>
        <time>2022-01-03T13:45:37.000Z</time>
      </trkpt>
      <trkpt lat="43.28844" lon="2.63458">
        <ele>81.599998474121</ele>
        <time>2022-01-03T13:45:48.000Z</time>
      </trkpt>
      <trkpt lat="43.28844" lon="2.63441">
        <ele>81.400001525879</ele>
        <time>2022-01-03T13:45:56.000Z</time>
      </trkpt>
      <trkpt lat="43.28844" lon="2.63425">
        <ele>81.400001525879</ele>
        <time>2022-01-03T13:46:04.000Z</time>
      </trkpt>
      <trkpt lat="43.28843" lon="2.63416">
        <ele>82</ele>
        <time>2022-01-03T13:46:09.000Z</time>
      </trkpt>
      <trkpt lat="43.28843" lon="2.63413">
        <ele>82</ele>
        <time>2022-01-03T13:46:11.000Z</time>
      </trkpt>
      <trkpt lat="43.28843" lon="2.63403">
        <ele>82</ele>
        <time>2022-01-03T13:46:17.000Z</time>
      </trkpt>
      <trkpt lat="43.28841" lon="2.6338">
        <ele>81.800003051758</ele>
        <time>2022-01-03T13:46:30.000Z</time>
      </trkpt>
      <trkpt lat="43.2884" lon="2.63365">
        <ele>82</ele>
        <time>2022-01-03T13:46:39.000Z</time>
      </trkpt>
      <trkpt lat="43.2884" lon="2.63364">
        <ele>81.800003051758</ele>
        <time>2022-01-03T13:46:40.000Z</time>
      </trkpt>
      <trkpt lat="43.2884" lon="2.63357">
        <ele>81.800003051758</ele>
        <time>2022-01-03T13:46:44.000Z</time>
      </trkpt>
      <trkpt lat="43.28839" lon="2.63348">
        <ele>81.199996948242</ele>
        <time>2022-01-03T13:46:49.000Z</time>
      </trkpt>
      <trkpt lat="43.28839" lon="2.6334">
        <ele>81</ele>
        <time>2022-01-03T13:46:54.000Z</time>
      </trkpt>
      <trkpt lat="43.28839" lon="2.63337">
        <ele>81.199996948242</ele>
        <time>2022-01-03T13:46:56.000Z</time>
      </trkpt>
      <trkpt lat="43.28838" lon="2.63331">
        <ele>81.199996948242</ele>
        <time>2022-01-03T13:46:59.000Z</time>
      </trkpt>
      <trkpt lat="43.28836" lon="2.63318">
        <ele>81</ele>
        <time>2022-01-03T13:47:07.000Z</time>
      </trkpt>
      <trkpt lat="43.28836" lon="2.63313">
        <ele>80.800003051758</ele>
        <time>2022-01-03T13:47:10.000Z</time>
      </trkpt>
      <trkpt lat="43.28834" lon="2.63299">
        <ele>80.599998474121</ele>
        <time>2022-01-03T13:47:18.000Z</time>
      </trkpt>
      <trkpt lat="43.28833" lon="2.63293">
        <ele>80.599998474121</ele>
        <time>2022-01-03T13:47:22.000Z</time>
      </trkpt>
      <trkpt lat="43.28829" lon="2.63276">
        <ele>80.599998474121</ele>
        <time>2022-01-03T13:47:31.000Z</time>
      </trkpt>
      <trkpt lat="43.28826" lon="2.63264">
        <ele>80.800003051758</ele>
        <time>2022-01-03T13:47:38.000Z</time>
      </trkpt>
      <trkpt lat="43.28826" lon="2.63261">
        <ele>80.800003051758</ele>
        <time>2022-01-03T13:47:40.000Z</time>
      </trkpt>
      <trkpt lat="43.28824" lon="2.63254">
        <ele>81.199996948242</ele>
        <time>2022-01-03T13:47:45.000Z</time>
      </trkpt>
      <trkpt lat="43.28823" lon="2.63251">
        <ele>81.199996948242</ele>
        <time>2022-01-03T13:47:47.000Z</time>
      </trkpt>
      <trkpt lat="43.28822" lon="2.63243">
        <ele>81.800003051758</ele>
        <time>2022-01-03T13:47:51.000Z</time>
      </trkpt>
      <trkpt lat="43.28822" lon="2.63239">
        <ele>81.800003051758</ele>
        <time>2022-01-03T13:47:53.000Z</time>
      </trkpt>
      <trkpt lat="43.2882" lon="2.63232">
        <ele>81.800003051758</ele>
        <time>2022-01-03T13:47:57.000Z</time>
      </trkpt>
      <trkpt lat="43.28817" lon="2.63216">
        <ele>81.199996948242</ele>
        <time>2022-01-03T13:48:06.000Z</time>
      </trkpt>
      <trkpt lat="43.28815" lon="2.63211">
        <ele>80.800003051758</ele>
        <time>2022-01-03T13:48:09.000Z</time>
      </trkpt>
      <trkpt lat="43.28814" lon="2.63208">
        <ele>80.599998474121</ele>
        <time>2022-01-03T13:48:11.000Z</time>
      </trkpt>
      <trkpt lat="43.2881" lon="2.63192">
        <ele>80.599998474121</ele>
        <time>2022-01-03T13:48:21.000Z</time>
      </trkpt>
      <trkpt lat="43.28808" lon="2.63185">
        <ele>81</ele>
        <time>2022-01-03T13:48:25.000Z</time>
      </trkpt>
      <trkpt lat="43.28807" lon="2.63181">
        <ele>81.199996948242</ele>
        <time>2022-01-03T13:48:27.000Z</time>
      </trkpt>
      <trkpt lat="43.28805" lon="2.63176">
        <ele>81.199996948242</ele>
        <time>2022-01-03T13:48:30.000Z</time>
      </trkpt>
      <trkpt lat="43.28804" lon="2.63172">
        <ele>81.199996948242</ele>
        <time>2022-01-03T13:48:32.000Z</time>
      </trkpt>
      <trkpt lat="43.28801" lon="2.63166">
        <ele>81</ele>
        <time>2022-01-03T13:48:36.000Z</time>
      </trkpt>
      <trkpt lat="43.28801" lon="2.63165">
        <ele>81</ele>
        <time>2022-01-03T13:48:37.000Z</time>
      </trkpt>
      <trkpt lat="43.28798" lon="2.63159">
        <ele>81</ele>
        <time>2022-01-03T13:48:41.000Z</time>
      </trkpt>
      <trkpt lat="43.28794" lon="2.63145">
        <ele>81.199996948242</ele>
        <time>2022-01-03T13:48:49.000Z</time>
      </trkpt>
      <trkpt lat="43.28793" lon="2.6314">
        <ele>81.599998474121</ele>
        <time>2022-01-03T13:48:52.000Z</time>
      </trkpt>
      <trkpt lat="43.2879" lon="2.63132">
        <ele>81.199996948242</ele>
        <time>2022-01-03T13:48:57.000Z</time>
      </trkpt>
      <trkpt lat="43.28787" lon="2.63126">
        <ele>81.199996948242</ele>
        <time>2022-01-03T13:49:01.000Z</time>
      </trkpt>
      <trkpt lat="43.28787" lon="2.63124">
        <ele>81.199996948242</ele>
        <time>2022-01-03T13:49:02.000Z</time>
      </trkpt>
      <trkpt lat="43.28781" lon="2.63111">
        <ele>81.599998474121</ele>
        <time>2022-01-03T13:49:13.000Z</time>
      </trkpt>
      <trkpt lat="43.28777" lon="2.63101">
        <ele>81.800003051758</ele>
        <time>2022-01-03T13:49:20.000Z</time>
      </trkpt>
      <trkpt lat="43.28776" lon="2.63095">
        <ele>81.800003051758</ele>
        <time>2022-01-03T13:49:23.000Z</time>
      </trkpt>
      <trkpt lat="43.2877" lon="2.63082">
        <ele>82.800003051758</ele>
        <time>2022-01-03T13:49:31.000Z</time>
      </trkpt>
      <trkpt lat="43.28769" lon="2.63079">
        <ele>83</ele>
        <time>2022-01-03T13:49:33.000Z</time>
      </trkpt>
      <trkpt lat="43.28764" lon="2.63068">
        <ele>83.800003051758</ele>
        <time>2022-01-03T13:49:40.000Z</time>
      </trkpt>
      <trkpt lat="43.28762" lon="2.63064">
        <ele>84</ele>
        <time>2022-01-03T13:49:42.000Z</time>
      </trkpt>
      <trkpt lat="43.28756" lon="2.6305">
        <ele>84.400001525879</ele>
        <time>2022-01-03T13:49:50.000Z</time>
      </trkpt>
      <trkpt lat="43.28755" lon="2.63048">
        <ele>84.599998474121</ele>
        <time>2022-01-03T13:49:51.000Z</time>
      </trkpt>
      <trkpt lat="43.28754" lon="2.63045">
        <ele>84.599998474121</ele>
        <time>2022-01-03T13:49:53.000Z</time>
      </trkpt>
      <trkpt lat="43.28751" lon="2.63037">
        <ele>85.199996948242</ele>
        <time>2022-01-03T13:49:58.000Z</time>
      </trkpt>
      <trkpt lat="43.2875" lon="2.63034">
        <ele>85.199996948242</ele>
        <time>2022-01-03T13:50:00.000Z</time>
      </trkpt>
      <trkpt lat="43.28747" lon="2.63023">
        <ele>85.599998474121</ele>
        <time>2022-01-03T13:50:09.000Z</time>
      </trkpt>
      <trkpt lat="43.28747" lon="2.63023">
        <ele>85.400001525879</ele>
        <time>2022-01-03T13:50:10.000Z</time>
      </trkpt>
      <trkpt lat="43.28746" lon="2.63023">
        <ele>85.599998474121</ele>
        <time>2022-01-03T13:50:20.000Z</time>
      </trkpt>
      <trkpt lat="43.28747" lon="2.63021">
        <ele>85.199996948242</ele>
        <time>2022-01-03T13:50:50.000Z</time>
      </trkpt>
      <trkpt lat="43.28747" lon="2.6302">
        <ele>85.199996948242</ele>
        <time>2022-01-03T13:50:55.000Z</time>
      </trkpt>
      <trkpt lat="43.28747" lon="2.6302">
        <ele>85.199996948242</ele>
        <time>2022-01-03T13:50:58.000Z</time>
      </trkpt>
      <trkpt lat="43.28747" lon="2.6302">
        <ele>85.199996948242</ele>
        <time>2022-01-03T13:51:03.000Z</time>
      </trkpt>
      <trkpt lat="43.28748" lon="2.63019">
        <ele>85.199996948242</ele>
        <time>2022-01-03T13:51:18.000Z</time>
      </trkpt>
      <trkpt lat="43.28748" lon="2.63019">
        <ele>23.39999961853</ele>
        <time>2022-01-03T13:51:33.000Z</time>
      </trkpt>
      <trkpt lat="43.28748" lon="2.63018">
        <ele>23.39999961853</ele>
        <time>2022-01-03T13:51:43.000Z</time>
      </trkpt>
      <trkpt lat="43.28748" lon="2.63018">
        <ele>53</ele>
        <time>2022-01-03T13:51:46.000Z</time>
      </trkpt>
      <trkpt lat="43.28748" lon="2.63018">
        <ele>67.800003051758</ele>
        <time>2022-01-03T13:51:47.000Z</time>
      </trkpt>
      <trkpt lat="43.28748" lon="2.63018">
        <ele>75.199996948242</ele>
        <time>2022-01-03T13:51:48.000Z</time>
      </trkpt>
      <trkpt lat="43.28748" lon="2.63018">
        <ele>77.599998474121</ele>
        <time>2022-01-03T13:51:49.000Z</time>
      </trkpt>
      <trkpt lat="43.28748" lon="2.63018">
        <ele>79.599998474121</ele>
        <time>2022-01-03T13:51:50.000Z</time>
      </trkpt>
      <trkpt lat="43.28748" lon="2.63017">
        <ele>81.400001525879</ele>
        <time>2022-01-03T13:51:51.000Z</time>
      </trkpt>
      <trkpt lat="43.28748" lon="2.63017">
        <ele>83.199996948242</ele>
        <time>2022-01-03T13:51:52.000Z</time>
      </trkpt>
      <trkpt lat="43.28748" lon="2.63017">
        <ele>84.599998474121</ele>
        <time>2022-01-03T13:51:53.000Z</time>
      </trkpt>
      <trkpt lat="43.28748" lon="2.63017">
        <ele>86</ele>
        <time>2022-01-03T13:51:54.000Z</time>
      </trkpt>
      <trkpt lat="43.28748" lon="2.63017">
        <ele>87.199996948242</ele>
        <time>2022-01-03T13:51:55.000Z</time>
      </trkpt>
      <trkpt lat="43.28748" lon="2.63017">
        <ele>79</ele>
        <time>2022-01-03T13:51:56.000Z</time>
      </trkpt>
      <trkpt lat="43.28748" lon="2.63017">
        <ele>81</ele>
        <time>2022-01-03T13:51:57.000Z</time>
      </trkpt>
      <trkpt lat="43.28748" lon="2.63017">
        <ele>82.199996948242</ele>
        <time>2022-01-03T13:51:59.000Z</time>
      </trkpt>
      <trkpt lat="43.28747" lon="2.63017">
        <ele>83.400001525879</ele>
        <time>2022-01-03T13:52:08.000Z</time>
      </trkpt>
      <trkpt lat="43.28746" lon="2.63017">
        <ele>83.800003051758</ele>
        <time>2022-01-03T13:52:19.000Z</time>
      </trkpt>
      <trkpt lat="43.28746" lon="2.63017">
        <ele>83.800003051758</ele>
        <time>2022-01-03T13:52:20.000Z</time>
      </trkpt>
      <trkpt lat="43.28746" lon="2.63017">
        <ele>83.599998474121</ele>
        <time>2022-01-03T13:52:34.000Z</time>
      </trkpt>
      <trkpt lat="43.28746" lon="2.63018">
        <ele>82.800003051758</ele>
        <time>2022-01-03T13:52:57.000Z</time>
      </trkpt>
      <trkpt lat="43.28746" lon="2.63019">
        <ele>83</ele>
        <time>2022-01-03T13:53:10.000Z</time>
      </trkpt>
      <trkpt lat="43.28746" lon="2.63019">
        <ele>83.800003051758</ele>
        <time>2022-01-03T13:53:27.000Z</time>
      </trkpt>
      <trkpt lat="43.28746" lon="2.6302">
        <ele>83.800003051758</ele>
        <time>2022-01-03T13:53:42.000Z</time>
      </trkpt>
      <trkpt lat="43.28746" lon="2.6302">
        <ele>83.599998474121</ele>
        <time>2022-01-03T13:53:56.000Z</time>
      </trkpt>
      <trkpt lat="43.28751" lon="2.63019">
        <ele>83.400001525879</ele>
        <time>2022-01-03T13:54:08.000Z</time>
      </trkpt>
      <trkpt lat="43.28761" lon="2.63013">
        <ele>83.400001525879</ele>
        <time>2022-01-03T13:54:14.000Z</time>
      </trkpt>
      <trkpt lat="43.28766" lon="2.63002">
        <ele>83.800003051758</ele>
        <time>2022-01-03T13:54:21.000Z</time>
      </trkpt>
      <trkpt lat="43.28766" lon="2.63">
        <ele>83.800003051758</ele>
        <time>2022-01-03T13:54:22.000Z</time>
      </trkpt>
      <trkpt lat="43.28768" lon="2.62993">
        <ele>84.400001525879</ele>
        <time>2022-01-03T13:54:28.000Z</time>
      </trkpt>
      <trkpt lat="43.28768" lon="2.62992">
        <ele>84.400001525879</ele>
        <time>2022-01-03T13:54:29.000Z</time>
      </trkpt>
      <trkpt lat="43.28768" lon="2.62986">
        <ele>84.199996948242</ele>
        <time>2022-01-03T13:54:33.000Z</time>
      </trkpt>
      <trkpt lat="43.2877" lon="2.62977">
        <ele>85</ele>
        <time>2022-01-03T13:54:38.000Z</time>
      </trkpt>
      <trkpt lat="43.28771" lon="2.62967">
        <ele>85.400001525879</ele>
        <time>2022-01-03T13:54:45.000Z</time>
      </trkpt>
      <trkpt lat="43.28772" lon="2.62964">
        <ele>85.599998474121</ele>
        <time>2022-01-03T13:54:47.000Z</time>
      </trkpt>
      <trkpt lat="43.28773" lon="2.62961">
        <ele>85.599998474121</ele>
        <time>2022-01-03T13:54:49.000Z</time>
      </trkpt>
      <trkpt lat="43.28773" lon="2.62956">
        <ele>85.800003051758</ele>
        <time>2022-01-03T13:54:52.000Z</time>
      </trkpt>
      <trkpt lat="43.28773" lon="2.62952">
        <ele>85.800003051758</ele>
        <time>2022-01-03T13:54:54.000Z</time>
      </trkpt>
      <trkpt lat="43.28773" lon="2.62949">
        <ele>86</ele>
        <time>2022-01-03T13:54:56.000Z</time>
      </trkpt>
      <trkpt lat="43.28771" lon="2.62935">
        <ele>86</ele>
        <time>2022-01-03T13:55:05.000Z</time>
      </trkpt>
      <trkpt lat="43.2877" lon="2.62933">
        <ele>86</ele>
        <time>2022-01-03T13:55:06.000Z</time>
      </trkpt>
      <trkpt lat="43.28768" lon="2.6293">
        <ele>86.400001525879</ele>
        <time>2022-01-03T13:55:09.000Z</time>
      </trkpt>
      <trkpt lat="43.28765" lon="2.62926">
        <ele>87.400001525879</ele>
        <time>2022-01-03T13:55:13.000Z</time>
      </trkpt>
      <trkpt lat="43.28762" lon="2.62924">
        <ele>87.599998474121</ele>
        <time>2022-01-03T13:55:15.000Z</time>
      </trkpt>
      <trkpt lat="43.28754" lon="2.62919">
        <ele>88.199996948242</ele>
        <time>2022-01-03T13:55:21.000Z</time>
      </trkpt>
      <trkpt lat="43.28751" lon="2.62916">
        <ele>88.400001525879</ele>
        <time>2022-01-03T13:55:24.000Z</time>
      </trkpt>
      <trkpt lat="43.28746" lon="2.6291">
        <ele>88.599998474121</ele>
        <time>2022-01-03T13:55:30.000Z</time>
      </trkpt>
      <trkpt lat="43.28742" lon="2.62906">
        <ele>88.800003051758</ele>
        <time>2022-01-03T13:55:33.000Z</time>
      </trkpt>
      <trkpt lat="43.28739" lon="2.62903">
        <ele>89</ele>
        <time>2022-01-03T13:55:36.000Z</time>
      </trkpt>
      <trkpt lat="43.28737" lon="2.62902">
        <ele>89.199996948242</ele>
        <time>2022-01-03T13:55:37.000Z</time>
      </trkpt>
      <trkpt lat="43.28736" lon="2.629">
        <ele>89.199996948242</ele>
        <time>2022-01-03T13:55:39.000Z</time>
      </trkpt>
      <trkpt lat="43.28732" lon="2.62887">
        <ele>89.400001525879</ele>
        <time>2022-01-03T13:55:47.000Z</time>
      </trkpt>
      <trkpt lat="43.28731" lon="2.62874">
        <ele>88.599998474121</ele>
        <time>2022-01-03T13:55:54.000Z</time>
      </trkpt>
      <trkpt lat="43.28732" lon="2.6287">
        <ele>88.599998474121</ele>
        <time>2022-01-03T13:55:56.000Z</time>
      </trkpt>
      <trkpt lat="43.28732" lon="2.62868">
        <ele>88.400001525879</ele>
        <time>2022-01-03T13:55:57.000Z</time>
      </trkpt>
      <trkpt lat="43.28733" lon="2.62857">
        <ele>87.800003051758</ele>
        <time>2022-01-03T13:56:03.000Z</time>
      </trkpt>
      <trkpt lat="43.28733" lon="2.62852">
        <ele>88.400001525879</ele>
        <time>2022-01-03T13:56:06.000Z</time>
      </trkpt>
      <trkpt lat="43.28732" lon="2.6284">
        <ele>89</ele>
        <time>2022-01-03T13:56:14.000Z</time>
      </trkpt>
      <trkpt lat="43.28728" lon="2.6283">
        <ele>90</ele>
        <time>2022-01-03T13:56:22.000Z</time>
      </trkpt>
      <trkpt lat="43.28726" lon="2.62828">
        <ele>90.400001525879</ele>
        <time>2022-01-03T13:56:24.000Z</time>
      </trkpt>
      <trkpt lat="43.28725" lon="2.62826">
        <ele>91</ele>
        <time>2022-01-03T13:56:26.000Z</time>
      </trkpt>
      <trkpt lat="43.28722" lon="2.62819">
        <ele>91.599998474121</ele>
        <time>2022-01-03T13:56:31.000Z</time>
      </trkpt>
      <trkpt lat="43.28722" lon="2.62812">
        <ele>91.400001525879</ele>
        <time>2022-01-03T13:56:35.000Z</time>
      </trkpt>
      <trkpt lat="43.28722" lon="2.62808">
        <ele>91.400001525879</ele>
        <time>2022-01-03T13:56:38.000Z</time>
      </trkpt>
      <trkpt lat="43.28722" lon="2.62805">
        <ele>91.400001525879</ele>
        <time>2022-01-03T13:56:40.000Z</time>
      </trkpt>
      <trkpt lat="43.28722" lon="2.62801">
        <ele>91</ele>
        <time>2022-01-03T13:56:42.000Z</time>
      </trkpt>
      <trkpt lat="43.28723" lon="2.628">
        <ele>90.800003051758</ele>
        <time>2022-01-03T13:56:43.000Z</time>
      </trkpt>
      <trkpt lat="43.28723" lon="2.62796">
        <ele>90.800003051758</ele>
        <time>2022-01-03T13:56:45.000Z</time>
      </trkpt>
      <trkpt lat="43.28724" lon="2.6279">
        <ele>90.800003051758</ele>
        <time>2022-01-03T13:56:48.000Z</time>
      </trkpt>
      <trkpt lat="43.28725" lon="2.62785">
        <ele>90.800003051758</ele>
        <time>2022-01-03T13:56:52.000Z</time>
      </trkpt>
      <trkpt lat="43.28725" lon="2.62779">
        <ele>90.800003051758</ele>
        <time>2022-01-03T13:56:55.000Z</time>
      </trkpt>
      <trkpt lat="43.28727" lon="2.6277">
        <ele>90.800003051758</ele>
        <time>2022-01-03T13:57:00.000Z</time>
      </trkpt>
      <trkpt lat="43.28728" lon="2.62766">
        <ele>90.800003051758</ele>
        <time>2022-01-03T13:57:03.000Z</time>
      </trkpt>
      <trkpt lat="43.28729" lon="2.62757">
        <ele>90.800003051758</ele>
        <time>2022-01-03T13:57:08.000Z</time>
      </trkpt>
      <trkpt lat="43.2873" lon="2.62752">
        <ele>91</ele>
        <time>2022-01-03T13:57:11.000Z</time>
      </trkpt>
      <trkpt lat="43.2873" lon="2.62742">
        <ele>91.400001525879</ele>
        <time>2022-01-03T13:57:17.000Z</time>
      </trkpt>
      <trkpt lat="43.2873" lon="2.62737">
        <ele>92</ele>
        <time>2022-01-03T13:57:20.000Z</time>
      </trkpt>
      <trkpt lat="43.28729" lon="2.62729">
        <ele>92.400001525879</ele>
        <time>2022-01-03T13:57:24.000Z</time>
      </trkpt>
      <trkpt lat="43.28729" lon="2.62724">
        <ele>93.199996948242</ele>
        <time>2022-01-03T13:57:27.000Z</time>
      </trkpt>
      <trkpt lat="43.2873" lon="2.62719">
        <ele>93.400001525879</ele>
        <time>2022-01-03T13:57:30.000Z</time>
      </trkpt>
      <trkpt lat="43.28731" lon="2.62712">
        <ele>93.199996948242</ele>
        <time>2022-01-03T13:57:34.000Z</time>
      </trkpt>
      <trkpt lat="43.28731" lon="2.62707">
        <ele>93</ele>
        <time>2022-01-03T13:57:37.000Z</time>
      </trkpt>
      <trkpt lat="43.28734" lon="2.62697">
        <ele>92.400001525879</ele>
        <time>2022-01-03T13:57:44.000Z</time>
      </trkpt>
      <trkpt lat="43.2874" lon="2.62681">
        <ele>92.800003051758</ele>
        <time>2022-01-03T13:57:52.000Z</time>
      </trkpt>
      <trkpt lat="43.28744" lon="2.62671">
        <ele>93</ele>
        <time>2022-01-03T13:58:00.000Z</time>
      </trkpt>
      <trkpt lat="43.28744" lon="2.62669">
        <ele>93.199996948242</ele>
        <time>2022-01-03T13:58:01.000Z</time>
      </trkpt>
      <trkpt lat="43.28744" lon="2.62653">
        <ele>93</ele>
        <time>2022-01-03T13:58:09.000Z</time>
      </trkpt>
      <trkpt lat="43.28745" lon="2.6264">
        <ele>93</ele>
        <time>2022-01-03T13:58:17.000Z</time>
      </trkpt>
      <trkpt lat="43.28745" lon="2.62635">
        <ele>93</ele>
        <time>2022-01-03T13:58:20.000Z</time>
      </trkpt>
      <trkpt lat="43.28745" lon="2.62626">
        <ele>93.599998474121</ele>
        <time>2022-01-03T13:58:25.000Z</time>
      </trkpt>
      <trkpt lat="43.28746" lon="2.62621">
        <ele>94.400001525879</ele>
        <time>2022-01-03T13:58:28.000Z</time>
      </trkpt>
      <trkpt lat="43.28746" lon="2.62617">
        <ele>94.599998474121</ele>
        <time>2022-01-03T13:58:30.000Z</time>
      </trkpt>
      <trkpt lat="43.28747" lon="2.62616">
        <ele>95</ele>
        <time>2022-01-03T13:58:31.000Z</time>
      </trkpt>
      <trkpt lat="43.28749" lon="2.62603">
        <ele>95.199996948242</ele>
        <time>2022-01-03T13:58:39.000Z</time>
      </trkpt>
      <trkpt lat="43.2875" lon="2.62589">
        <ele>94.800003051758</ele>
        <time>2022-01-03T13:58:47.000Z</time>
      </trkpt>
      <trkpt lat="43.28751" lon="2.62582">
        <ele>94.800003051758</ele>
        <time>2022-01-03T13:58:51.000Z</time>
      </trkpt>
      <trkpt lat="43.28751" lon="2.62581">
        <ele>94.800003051758</ele>
        <time>2022-01-03T13:58:52.000Z</time>
      </trkpt>
      <trkpt lat="43.28752" lon="2.62577">
        <ele>94.800003051758</ele>
        <time>2022-01-03T13:58:54.000Z</time>
      </trkpt>
      <trkpt lat="43.28755" lon="2.62565">
        <ele>94.800003051758</ele>
        <time>2022-01-03T13:59:01.000Z</time>
      </trkpt>
      <trkpt lat="43.28756" lon="2.62563">
        <ele>94.800003051758</ele>
        <time>2022-01-03T13:59:03.000Z</time>
      </trkpt>
      <trkpt lat="43.28757" lon="2.62562">
        <ele>94.800003051758</ele>
        <time>2022-01-03T13:59:06.000Z</time>
      </trkpt>
      <trkpt lat="43.28758" lon="2.62563">
        <ele>94.800003051758</ele>
        <time>2022-01-03T13:59:08.000Z</time>
      </trkpt>
      <trkpt lat="43.28759" lon="2.62563">
        <ele>95</ele>
        <time>2022-01-03T13:59:09.000Z</time>
      </trkpt>
      <trkpt lat="43.2876" lon="2.62569">
        <ele>94.800003051758</ele>
        <time>2022-01-03T13:59:14.000Z</time>
      </trkpt>
      <trkpt lat="43.28761" lon="2.62575">
        <ele>94.400001525879</ele>
        <time>2022-01-03T13:59:18.000Z</time>
      </trkpt>
      <trkpt lat="43.28761" lon="2.62578">
        <ele>94</ele>
        <time>2022-01-03T13:59:20.000Z</time>
      </trkpt>
      <trkpt lat="43.28762" lon="2.62581">
        <ele>93.400001525879</ele>
        <time>2022-01-03T13:59:22.000Z</time>
      </trkpt>
      <trkpt lat="43.28762" lon="2.62582">
        <ele>93.199996948242</ele>
        <time>2022-01-03T13:59:23.000Z</time>
      </trkpt>
      <trkpt lat="43.28765" lon="2.62595">
        <ele>93.400001525879</ele>
        <time>2022-01-03T13:59:31.000Z</time>
      </trkpt>
      <trkpt lat="43.28768" lon="2.62604">
        <ele>94.400001525879</ele>
        <time>2022-01-03T13:59:38.000Z</time>
      </trkpt>
      <trkpt lat="43.2877" lon="2.62609">
        <ele>94.599998474121</ele>
        <time>2022-01-03T13:59:41.000Z</time>
      </trkpt>
      <trkpt lat="43.28773" lon="2.62613">
        <ele>95.400001525879</ele>
        <time>2022-01-03T13:59:45.000Z</time>
      </trkpt>
      <trkpt lat="43.28779" lon="2.62618">
        <ele>95.800003051758</ele>
        <time>2022-01-03T13:59:51.000Z</time>
      </trkpt>
      <trkpt lat="43.2878" lon="2.6262">
        <ele>96</ele>
        <time>2022-01-03T13:59:54.000Z</time>
      </trkpt>
      <trkpt lat="43.2878" lon="2.6262">
        <ele>96.199996948242</ele>
        <time>2022-01-03T13:59:55.000Z</time>
      </trkpt>
      <trkpt lat="43.2878" lon="2.6262">
        <ele>96.199996948242</ele>
        <time>2022-01-03T13:59:56.000Z</time>
      </trkpt>
      <trkpt lat="43.2878" lon="2.62621">
        <ele>96.199996948242</ele>
        <time>2022-01-03T13:59:58.000Z</time>
      </trkpt>
      <trkpt lat="43.2878" lon="2.62621">
        <ele>96</ele>
        <time>2022-01-03T14:00:01.000Z</time>
      </trkpt>
      <trkpt lat="43.28781" lon="2.62621">
        <ele>96</ele>
        <time>2022-01-03T14:00:02.000Z</time>
      </trkpt>
      <trkpt lat="43.28783" lon="2.62623">
        <ele>95.800003051758</ele>
        <time>2022-01-03T14:00:05.000Z</time>
      </trkpt>
      <trkpt lat="43.28785" lon="2.62623">
        <ele>96.400001525879</ele>
        <time>2022-01-03T14:00:08.000Z</time>
      </trkpt>
      <trkpt lat="43.28786" lon="2.62623">
        <ele>96.599998474121</ele>
        <time>2022-01-03T14:00:09.000Z</time>
      </trkpt>
      <trkpt lat="43.28788" lon="2.62623">
        <ele>97</ele>
        <time>2022-01-03T14:00:11.000Z</time>
      </trkpt>
      <trkpt lat="43.28788" lon="2.62623">
        <ele>97.199996948242</ele>
        <time>2022-01-03T14:00:12.000Z</time>
      </trkpt>
      <trkpt lat="43.28789" lon="2.62623">
        <ele>97.599998474121</ele>
        <time>2022-01-03T14:00:13.000Z</time>
      </trkpt>
      <trkpt lat="43.28793" lon="2.62623">
        <ele>98.199996948242</ele>
        <time>2022-01-03T14:00:17.000Z</time>
      </trkpt>
      <trkpt lat="43.28795" lon="2.62622">
        <ele>99</ele>
        <time>2022-01-03T14:00:20.000Z</time>
      </trkpt>
      <trkpt lat="43.28797" lon="2.62622">
        <ele>99.199996948242</ele>
        <time>2022-01-03T14:00:25.000Z</time>
      </trkpt>
      <trkpt lat="43.28797" lon="2.62622">
        <ele>99.400001525879</ele>
        <time>2022-01-03T14:00:26.000Z</time>
      </trkpt>
      <trkpt lat="43.288" lon="2.62621">
        <ele>99.199996948242</ele>
        <time>2022-01-03T14:00:33.000Z</time>
      </trkpt>
      <trkpt lat="43.28805" lon="2.62618">
        <ele>99</ele>
        <time>2022-01-03T14:00:39.000Z</time>
      </trkpt>
      <trkpt lat="43.2881" lon="2.62617">
        <ele>99.599998474121</ele>
        <time>2022-01-03T14:00:44.000Z</time>
      </trkpt>
      <trkpt lat="43.28812" lon="2.62616">
        <ele>99.800003051758</ele>
        <time>2022-01-03T14:00:46.000Z</time>
      </trkpt>
      <trkpt lat="43.28816" lon="2.62616">
        <ele>100.19999694824</ele>
        <time>2022-01-03T14:00:50.000Z</time>
      </trkpt>
      <trkpt lat="43.28818" lon="2.62616">
        <ele>100.40000152588</ele>
        <time>2022-01-03T14:00:52.000Z</time>
      </trkpt>
      <trkpt lat="43.28824" lon="2.62617">
        <ele>100.80000305176</ele>
        <time>2022-01-03T14:00:59.000Z</time>
      </trkpt>
      <trkpt lat="43.28828" lon="2.62617">
        <ele>101.19999694824</ele>
        <time>2022-01-03T14:01:02.000Z</time>
      </trkpt>
      <trkpt lat="43.28835" lon="2.62618">
        <ele>102.59999847412</ele>
        <time>2022-01-03T14:01:07.000Z</time>
      </trkpt>
      <trkpt lat="43.28839" lon="2.6262">
        <ele>103</ele>
        <time>2022-01-03T14:01:10.000Z</time>
      </trkpt>
      <trkpt lat="43.28845" lon="2.62623">
        <ele>103.59999847412</ele>
        <time>2022-01-03T14:01:15.000Z</time>
      </trkpt>
      <trkpt lat="43.28853" lon="2.62627">
        <ele>104</ele>
        <time>2022-01-03T14:01:22.000Z</time>
      </trkpt>
      <trkpt lat="43.28854" lon="2.62627">
        <ele>104</ele>
        <time>2022-01-03T14:01:23.000Z</time>
      </trkpt>
      <trkpt lat="43.28859" lon="2.6263">
        <ele>104.59999847412</ele>
        <time>2022-01-03T14:01:27.000Z</time>
      </trkpt>
      <trkpt lat="43.28866" lon="2.62634">
        <ele>105.19999694824</ele>
        <time>2022-01-03T14:01:33.000Z</time>
      </trkpt>
      <trkpt lat="43.28875" lon="2.62639">
        <ele>105</ele>
        <time>2022-01-03T14:01:42.000Z</time>
      </trkpt>
      <trkpt lat="43.28876" lon="2.62641">
        <ele>104.80000305176</ele>
        <time>2022-01-03T14:01:44.000Z</time>
      </trkpt>
      <trkpt lat="43.28876" lon="2.62647">
        <ele>104.80000305176</ele>
        <time>2022-01-03T14:01:48.000Z</time>
      </trkpt>
      <trkpt lat="43.28878" lon="2.62653">
        <ele>105</ele>
        <time>2022-01-03T14:01:52.000Z</time>
      </trkpt>
      <trkpt lat="43.2888" lon="2.62659">
        <ele>104.80000305176</ele>
        <time>2022-01-03T14:01:56.000Z</time>
      </trkpt>
      <trkpt lat="43.2888" lon="2.62663">
        <ele>105</ele>
        <time>2022-01-03T14:01:58.000Z</time>
      </trkpt>
      <trkpt lat="43.2888" lon="2.6267">
        <ele>105.40000152588</ele>
        <time>2022-01-03T14:02:02.000Z</time>
      </trkpt>
      <trkpt lat="43.28882" lon="2.62679">
        <ele>105.80000305176</ele>
        <time>2022-01-03T14:02:08.000Z</time>
      </trkpt>
      <trkpt lat="43.28881" lon="2.62685">
        <ele>106.80000305176</ele>
        <time>2022-01-03T14:02:12.000Z</time>
      </trkpt>
      <trkpt lat="43.28881" lon="2.62686">
        <ele>107</ele>
        <time>2022-01-03T14:02:13.000Z</time>
      </trkpt>
      <trkpt lat="43.2888" lon="2.62687">
        <ele>107</ele>
        <time>2022-01-03T14:02:14.000Z</time>
      </trkpt>
      <trkpt lat="43.28877" lon="2.62691">
        <ele>108.19999694824</ele>
        <time>2022-01-03T14:02:18.000Z</time>
      </trkpt>
      <trkpt lat="43.28877" lon="2.62692">
        <ele>108.40000152588</ele>
        <time>2022-01-03T14:02:19.000Z</time>
      </trkpt>
      <trkpt lat="43.28874" lon="2.62692">
        <ele>109.40000152588</ele>
        <time>2022-01-03T14:02:23.000Z</time>
      </trkpt>
      <trkpt lat="43.28874" lon="2.62692">
        <ele>109.59999847412</ele>
        <time>2022-01-03T14:02:25.000Z</time>
      </trkpt>
      <trkpt lat="43.28874" lon="2.62692">
        <ele>109.59999847412</ele>
        <time>2022-01-03T14:02:26.000Z</time>
      </trkpt>
      <trkpt lat="43.28874" lon="2.62692">
        <ele>109.80000305176</ele>
        <time>2022-01-03T14:02:27.000Z</time>
      </trkpt>
      <trkpt lat="43.28871" lon="2.62691">
        <ele>109.80000305176</ele>
        <time>2022-01-03T14:02:30.000Z</time>
      </trkpt>
      <trkpt lat="43.2887" lon="2.6269">
        <ele>109.80000305176</ele>
        <time>2022-01-03T14:02:31.000Z</time>
      </trkpt>
      <trkpt lat="43.28865" lon="2.62691">
        <ele>110.80000305176</ele>
        <time>2022-01-03T14:02:35.000Z</time>
      </trkpt>
      <trkpt lat="43.28863" lon="2.62692">
        <ele>112</ele>
        <time>2022-01-03T14:02:38.000Z</time>
      </trkpt>
      <trkpt lat="43.28862" lon="2.62692">
        <ele>112</ele>
        <time>2022-01-03T14:02:39.000Z</time>
      </trkpt>
      <trkpt lat="43.28857" lon="2.62692">
        <ele>113.19999694824</ele>
        <time>2022-01-03T14:02:43.000Z</time>
      </trkpt>
      <trkpt lat="43.28852" lon="2.62694">
        <ele>113.40000152588</ele>
        <time>2022-01-03T14:02:48.000Z</time>
      </trkpt>
      <trkpt lat="43.28849" lon="2.62696">
        <ele>113.19999694824</ele>
        <time>2022-01-03T14:02:52.000Z</time>
      </trkpt>
      <trkpt lat="43.28849" lon="2.62699">
        <ele>113.19999694824</ele>
        <time>2022-01-03T14:02:54.000Z</time>
      </trkpt>
      <trkpt lat="43.28849" lon="2.627">
        <ele>112.40000152588</ele>
        <time>2022-01-03T14:02:58.000Z</time>
      </trkpt>
      <trkpt lat="43.28849" lon="2.62703">
        <ele>112.19999694824</ele>
        <time>2022-01-03T14:03:01.000Z</time>
      </trkpt>
      <trkpt lat="43.2885" lon="2.62704">
        <ele>112</ele>
        <time>2022-01-03T14:03:03.000Z</time>
      </trkpt>
      <trkpt lat="43.28854" lon="2.62704">
        <ele>112.19999694824</ele>
        <time>2022-01-03T14:03:07.000Z</time>
      </trkpt>
      <trkpt lat="43.28854" lon="2.62703">
        <ele>112.19999694824</ele>
        <time>2022-01-03T14:03:08.000Z</time>
      </trkpt>
      <trkpt lat="43.28857" lon="2.62701">
        <ele>112.40000152588</ele>
        <time>2022-01-03T14:03:14.000Z</time>
      </trkpt>
      <trkpt lat="43.28854" lon="2.62702">
        <ele>111.59999847412</ele>
        <time>2022-01-03T14:03:24.000Z</time>
      </trkpt>
      <trkpt lat="43.28854" lon="2.62702">
        <ele>111.59999847412</ele>
        <time>2022-01-03T14:03:25.000Z</time>
      </trkpt>
      <trkpt lat="43.28855" lon="2.62702">
        <ele>111</ele>
        <time>2022-01-03T14:03:28.000Z</time>
      </trkpt>
      <trkpt lat="43.28854" lon="2.62702">
        <ele>111.40000152588</ele>
        <time>2022-01-03T14:03:36.000Z</time>
      </trkpt>
      <trkpt lat="43.28854" lon="2.62702">
        <ele>112</ele>
        <time>2022-01-03T14:03:40.000Z</time>
      </trkpt>
      <trkpt lat="43.28854" lon="2.62702">
        <ele>112.40000152588</ele>
        <time>2022-01-03T14:03:48.000Z</time>
      </trkpt>
      <trkpt lat="43.28854" lon="2.62702">
        <ele>112.40000152588</ele>
        <time>2022-01-03T14:03:51.000Z</time>
      </trkpt>
      <trkpt lat="43.28855" lon="2.62702">
        <ele>112.40000152588</ele>
        <time>2022-01-03T14:03:54.000Z</time>
      </trkpt>
      <trkpt lat="43.28855" lon="2.62702">
        <ele>113.19999694824</ele>
        <time>2022-01-03T14:03:59.000Z</time>
      </trkpt>
      <trkpt lat="43.28857" lon="2.62702">
        <ele>114.40000152588</ele>
        <time>2022-01-03T14:04:08.000Z</time>
      </trkpt>
      <trkpt lat="43.28857" lon="2.62703">
        <ele>115.40000152588</ele>
        <time>2022-01-03T14:04:13.000Z</time>
      </trkpt>
      <trkpt lat="43.28857" lon="2.62703">
        <ele>116.59999847412</ele>
        <time>2022-01-03T14:04:17.000Z</time>
      </trkpt>
      <trkpt lat="43.28857" lon="2.62703">
        <ele>117.59999847412</ele>
        <time>2022-01-03T14:04:25.000Z</time>
      </trkpt>
      <trkpt lat="43.28857" lon="2.62703">
        <ele>117.59999847412</ele>
        <time>2022-01-03T14:04:27.000Z</time>
      </trkpt>
      <trkpt lat="43.28857" lon="2.62702">
        <ele>117.59999847412</ele>
        <time>2022-01-03T14:04:33.000Z</time>
      </trkpt>
      <trkpt lat="43.28856" lon="2.62702">
        <ele>117.59999847412</ele>
        <time>2022-01-03T14:04:50.000Z</time>
      </trkpt>
      <trkpt lat="43.28856" lon="2.62702">
        <ele>117.59999847412</ele>
        <time>2022-01-03T14:04:52.000Z</time>
      </trkpt>
      <trkpt lat="43.28856" lon="2.62702">
        <ele>117.59999847412</ele>
        <time>2022-01-03T14:04:54.000Z</time>
      </trkpt>
      <trkpt lat="43.28856" lon="2.62702">
        <ele>117.59999847412</ele>
        <time>2022-01-03T14:04:57.000Z</time>
      </trkpt>
      <trkpt lat="43.28856" lon="2.62702">
        <ele>117.80000305176</ele>
        <time>2022-01-03T14:05:03.000Z</time>
      </trkpt>
      <trkpt lat="43.28853" lon="2.627">
        <ele>117.80000305176</ele>
        <time>2022-01-03T14:05:08.000Z</time>
      </trkpt>
      <trkpt lat="43.28851" lon="2.62696">
        <ele>117.59999847412</ele>
        <time>2022-01-03T14:05:11.000Z</time>
      </trkpt>
      <trkpt lat="43.28852" lon="2.62692">
        <ele>117.80000305176</ele>
        <time>2022-01-03T14:05:15.000Z</time>
      </trkpt>
      <trkpt lat="43.28853" lon="2.62691">
        <ele>117.59999847412</ele>
        <time>2022-01-03T14:05:18.000Z</time>
      </trkpt>
      <trkpt lat="43.28855" lon="2.6269">
        <ele>117.80000305176</ele>
        <time>2022-01-03T14:05:21.000Z</time>
      </trkpt>
      <trkpt lat="43.28854" lon="2.6269">
        <ele>118</ele>
        <time>2022-01-03T14:05:26.000Z</time>
      </trkpt>
      <trkpt lat="43.28854" lon="2.6269">
        <ele>117.80000305176</ele>
        <time>2022-01-03T14:05:28.000Z</time>
      </trkpt>
      <trkpt lat="43.28858" lon="2.62691">
        <ele>117</ele>
        <time>2022-01-03T14:05:38.000Z</time>
      </trkpt>
      <trkpt lat="43.2886" lon="2.62691">
        <ele>116.59999847412</ele>
        <time>2022-01-03T14:05:41.000Z</time>
      </trkpt>
      <trkpt lat="43.28863" lon="2.62691">
        <ele>116</ele>
        <time>2022-01-03T14:05:44.000Z</time>
      </trkpt>
      <trkpt lat="43.28863" lon="2.62691">
        <ele>115.80000305176</ele>
        <time>2022-01-03T14:05:45.000Z</time>
      </trkpt>
      <trkpt lat="43.28863" lon="2.62691">
        <ele>115.40000152588</ele>
        <time>2022-01-03T14:05:46.000Z</time>
      </trkpt>
      <trkpt lat="43.28864" lon="2.62691">
        <ele>114.19999694824</ele>
        <time>2022-01-03T14:05:51.000Z</time>
      </trkpt>
      <trkpt lat="43.28866" lon="2.6269">
        <ele>114.19999694824</ele>
        <time>2022-01-03T14:05:52.000Z</time>
      </trkpt>
      <trkpt lat="43.28873" lon="2.6269">
        <ele>113.19999694824</ele>
        <time>2022-01-03T14:05:57.000Z</time>
      </trkpt>
      <trkpt lat="43.28874" lon="2.6269">
        <ele>112.59999847412</ele>
        <time>2022-01-03T14:05:58.000Z</time>
      </trkpt>
      <trkpt lat="43.28876" lon="2.6269">
        <ele>112.19999694824</ele>
        <time>2022-01-03T14:06:00.000Z</time>
      </trkpt>
      <trkpt lat="43.28876" lon="2.62691">
        <ele>112</ele>
        <time>2022-01-03T14:06:01.000Z</time>
      </trkpt>
      <trkpt lat="43.28876" lon="2.62692">
        <ele>111.19999694824</ele>
        <time>2022-01-03T14:06:03.000Z</time>
      </trkpt>
      <trkpt lat="43.28876" lon="2.62692">
        <ele>110.80000305176</ele>
        <time>2022-01-03T14:06:05.000Z</time>
      </trkpt>
      <trkpt lat="43.28877" lon="2.62692">
        <ele>109.80000305176</ele>
        <time>2022-01-03T14:06:15.000Z</time>
      </trkpt>
      <trkpt lat="43.28877" lon="2.62692">
        <ele>109.40000152588</ele>
        <time>2022-01-03T14:06:28.000Z</time>
      </trkpt>
      <trkpt lat="43.28876" lon="2.62692">
        <ele>109.40000152588</ele>
        <time>2022-01-03T14:06:37.000Z</time>
      </trkpt>
      <trkpt lat="43.28877" lon="2.62692">
        <ele>109.19999694824</ele>
        <time>2022-01-03T14:06:53.000Z</time>
      </trkpt>
      <trkpt lat="43.28877" lon="2.62692">
        <ele>109.19999694824</ele>
        <time>2022-01-03T14:07:17.000Z</time>
      </trkpt>
      <trkpt lat="43.28878" lon="2.62692">
        <ele>109</ele>
        <time>2022-01-03T14:07:32.000Z</time>
      </trkpt>
      <trkpt lat="43.28878" lon="2.62692">
        <ele>109.19999694824</ele>
        <time>2022-01-03T14:07:38.000Z</time>
      </trkpt>
      <trkpt lat="43.28879" lon="2.62692">
        <ele>110.19999694824</ele>
        <time>2022-01-03T14:08:15.000Z</time>
      </trkpt>
      <trkpt lat="43.28879" lon="2.62692">
        <ele>109.80000305176</ele>
        <time>2022-01-03T14:08:19.000Z</time>
      </trkpt>
      <trkpt lat="43.28877" lon="2.62693">
        <ele>109</ele>
        <time>2022-01-03T14:08:39.000Z</time>
      </trkpt>
      <trkpt lat="43.28877" lon="2.62693">
        <ele>109</ele>
        <time>2022-01-03T14:08:40.000Z</time>
      </trkpt>
      <trkpt lat="43.28877" lon="2.62693">
        <ele>109</ele>
        <time>2022-01-03T14:08:41.000Z</time>
      </trkpt>
      <trkpt lat="43.28877" lon="2.62693">
        <ele>109</ele>
        <time>2022-01-03T14:08:42.000Z</time>
      </trkpt>
      <trkpt lat="43.28877" lon="2.62693">
        <ele>109</ele>
        <time>2022-01-03T14:08:43.000Z</time>
      </trkpt>
      <trkpt lat="43.28877" lon="2.62693">
        <ele>109</ele>
        <time>2022-01-03T14:08:44.000Z</time>
      </trkpt>
      <trkpt lat="43.28877" lon="2.62693">
        <ele>109</ele>
        <time>2022-01-03T14:08:45.000Z</time>
      </trkpt>
      <trkpt lat="43.28878" lon="2.62693">
        <ele>109</ele>
        <time>2022-01-03T14:08:55.000Z</time>
      </trkpt>
      <trkpt lat="43.28878" lon="2.62692">
        <ele>109</ele>
        <time>2022-01-03T14:09:12.000Z</time>
      </trkpt>
      <trkpt lat="43.28878" lon="2.62692">
        <ele>109</ele>
        <time>2022-01-03T14:09:17.000Z</time>
      </trkpt>
      <trkpt lat="43.28878" lon="2.62692">
        <ele>109</ele>
        <time>2022-01-03T14:09:21.000Z</time>
      </trkpt>
      <trkpt lat="43.28878" lon="2.62692">
        <ele>109</ele>
        <time>2022-01-03T14:09:28.000Z</time>
      </trkpt>
      <trkpt lat="43.28878" lon="2.62692">
        <ele>109</ele>
        <time>2022-01-03T14:09:36.000Z</time>
      </trkpt>
      <trkpt lat="43.28878" lon="2.62692">
        <ele>109</ele>
        <time>2022-01-03T14:09:40.000Z</time>
      </trkpt>
      <trkpt lat="43.28884" lon="2.62687">
        <ele>109</ele>
        <time>2022-01-03T14:09:47.000Z</time>
      </trkpt>
      <trkpt lat="43.28892" lon="2.62686">
        <ele>109</ele>
        <time>2022-01-03T14:09:54.000Z</time>
      </trkpt>
      <trkpt lat="43.28901" lon="2.62688">
        <ele>110.19999694824</ele>
        <time>2022-01-03T14:10:02.000Z</time>
      </trkpt>
      <trkpt lat="43.28907" lon="2.62688">
        <ele>110.40000152588</ele>
        <time>2022-01-03T14:10:07.000Z</time>
      </trkpt>
      <trkpt lat="43.28914" lon="2.62689">
        <ele>110.59999847412</ele>
        <time>2022-01-03T14:10:12.000Z</time>
      </trkpt>
      <trkpt lat="43.28926" lon="2.6269">
        <ele>110.59999847412</ele>
        <time>2022-01-03T14:10:22.000Z</time>
      </trkpt>
      <trkpt lat="43.28928" lon="2.62691">
        <ele>110.59999847412</ele>
        <time>2022-01-03T14:10:24.000Z</time>
      </trkpt>
      <trkpt lat="43.2893" lon="2.62692">
        <ele>110.80000305176</ele>
        <time>2022-01-03T14:10:26.000Z</time>
      </trkpt>
      <trkpt lat="43.28938" lon="2.62694">
        <ele>110.59999847412</ele>
        <time>2022-01-03T14:10:34.000Z</time>
      </trkpt>
      <trkpt lat="43.2895" lon="2.62692">
        <ele>111.40000152588</ele>
        <time>2022-01-03T14:10:43.000Z</time>
      </trkpt>
      <trkpt lat="43.28958" lon="2.62685">
        <ele>111.80000305176</ele>
        <time>2022-01-03T14:10:51.000Z</time>
      </trkpt>
      <trkpt lat="43.28961" lon="2.62676">
        <ele>113</ele>
        <time>2022-01-03T14:10:57.000Z</time>
      </trkpt>
      <trkpt lat="43.28961" lon="2.62669">
        <ele>113.80000305176</ele>
        <time>2022-01-03T14:11:01.000Z</time>
      </trkpt>
      <trkpt lat="43.28961" lon="2.62668">
        <ele>114</ele>
        <time>2022-01-03T14:11:02.000Z</time>
      </trkpt>
      <trkpt lat="43.28963" lon="2.62658">
        <ele>114.40000152588</ele>
        <time>2022-01-03T14:11:09.000Z</time>
      </trkpt>
      <trkpt lat="43.28963" lon="2.62656">
        <ele>114.59999847412</ele>
        <time>2022-01-03T14:11:11.000Z</time>
      </trkpt>
      <trkpt lat="43.28963" lon="2.62654">
        <ele>114.80000305176</ele>
        <time>2022-01-03T14:11:14.000Z</time>
      </trkpt>
      <trkpt lat="43.28963" lon="2.62654">
        <ele>114.80000305176</ele>
        <time>2022-01-03T14:11:15.000Z</time>
      </trkpt>
      <trkpt lat="43.28963" lon="2.62654">
        <ele>115</ele>
        <time>2022-01-03T14:11:16.000Z</time>
      </trkpt>
      <trkpt lat="43.28963" lon="2.62654">
        <ele>114.80000305176</ele>
        <time>2022-01-03T14:11:18.000Z</time>
      </trkpt>
      <trkpt lat="43.28963" lon="2.62654">
        <ele>115</ele>
        <time>2022-01-03T14:11:19.000Z</time>
      </trkpt>
      <trkpt lat="43.28964" lon="2.62653">
        <ele>114.80000305176</ele>
        <time>2022-01-03T14:11:24.000Z</time>
      </trkpt>
      <trkpt lat="43.28964" lon="2.62653">
        <ele>114</ele>
        <time>2022-01-03T14:11:28.000Z</time>
      </trkpt>
      <trkpt lat="43.28966" lon="2.62651">
        <ele>113.80000305176</ele>
        <time>2022-01-03T14:11:33.000Z</time>
      </trkpt>
      <trkpt lat="43.28971" lon="2.62641">
        <ele>113.80000305176</ele>
        <time>2022-01-03T14:11:39.000Z</time>
      </trkpt>
      <trkpt lat="43.28976" lon="2.62634">
        <ele>114.19999694824</ele>
        <time>2022-01-03T14:11:44.000Z</time>
      </trkpt>
      <trkpt lat="43.28981" lon="2.62626">
        <ele>114.19999694824</ele>
        <time>2022-01-03T14:11:49.000Z</time>
      </trkpt>
      <trkpt lat="43.28987" lon="2.62616">
        <ele>114.59999847412</ele>
        <time>2022-01-03T14:11:58.000Z</time>
      </trkpt>
      <trkpt lat="43.28991" lon="2.62609">
        <ele>114.59999847412</ele>
        <time>2022-01-03T14:12:03.000Z</time>
      </trkpt>
      <trkpt lat="43.28993" lon="2.62605">
        <ele>114.59999847412</ele>
        <time>2022-01-03T14:12:06.000Z</time>
      </trkpt>
      <trkpt lat="43.28996" lon="2.62602">
        <ele>114.80000305176</ele>
        <time>2022-01-03T14:12:09.000Z</time>
      </trkpt>
      <trkpt lat="43.29" lon="2.62598">
        <ele>114.80000305176</ele>
        <time>2022-01-03T14:12:12.000Z</time>
      </trkpt>
      <trkpt lat="43.29007" lon="2.62592">
        <ele>114.80000305176</ele>
        <time>2022-01-03T14:12:19.000Z</time>
      </trkpt>
      <trkpt lat="43.29008" lon="2.62592">
        <ele>114.80000305176</ele>
        <time>2022-01-03T14:12:20.000Z</time>
      </trkpt>
      <trkpt lat="43.29009" lon="2.62591">
        <ele>114.80000305176</ele>
        <time>2022-01-03T14:12:21.000Z</time>
      </trkpt>
      <trkpt lat="43.29011" lon="2.62588">
        <ele>114.80000305176</ele>
        <time>2022-01-03T14:12:23.000Z</time>
      </trkpt>
      <trkpt lat="43.29013" lon="2.62587">
        <ele>115</ele>
        <time>2022-01-03T14:12:25.000Z</time>
      </trkpt>
      <trkpt lat="43.29014" lon="2.62586">
        <ele>115.19999694824</ele>
        <time>2022-01-03T14:12:26.000Z</time>
      </trkpt>
      <trkpt lat="43.29017" lon="2.62583">
        <ele>115.59999847412</ele>
        <time>2022-01-03T14:12:29.000Z</time>
      </trkpt>
      <trkpt lat="43.29023" lon="2.62578">
        <ele>116.19999694824</ele>
        <time>2022-01-03T14:12:34.000Z</time>
      </trkpt>
      <trkpt lat="43.29028" lon="2.62574">
        <ele>116.80000305176</ele>
        <time>2022-01-03T14:12:39.000Z</time>
      </trkpt>
      <trkpt lat="43.29033" lon="2.62571">
        <ele>117.40000152588</ele>
        <time>2022-01-03T14:12:43.000Z</time>
      </trkpt>
      <trkpt lat="43.29042" lon="2.62565">
        <ele>117.19999694824</ele>
        <time>2022-01-03T14:12:51.000Z</time>
      </trkpt>
      <trkpt lat="43.29048" lon="2.62562">
        <ele>117</ele>
        <time>2022-01-03T14:12:56.000Z</time>
      </trkpt>
      <trkpt lat="43.2905" lon="2.62561">
        <ele>117.19999694824</ele>
        <time>2022-01-03T14:12:58.000Z</time>
      </trkpt>
      <trkpt lat="43.29056" lon="2.62557">
        <ele>117</ele>
        <time>2022-01-03T14:13:03.000Z</time>
      </trkpt>
      <trkpt lat="43.29057" lon="2.62555">
        <ele>117.40000152588</ele>
        <time>2022-01-03T14:13:05.000Z</time>
      </trkpt>
      <trkpt lat="43.29059" lon="2.62552">
        <ele>117.59999847412</ele>
        <time>2022-01-03T14:13:08.000Z</time>
      </trkpt>
      <trkpt lat="43.29062" lon="2.62548">
        <ele>117.80000305176</ele>
        <time>2022-01-03T14:13:12.000Z</time>
      </trkpt>
      <trkpt lat="43.29064" lon="2.62544">
        <ele>117.80000305176</ele>
        <time>2022-01-03T14:13:15.000Z</time>
      </trkpt>
      <trkpt lat="43.29073" lon="2.6253">
        <ele>116.59999847412</ele>
        <time>2022-01-03T14:13:26.000Z</time>
      </trkpt>
      <trkpt lat="43.29074" lon="2.62529">
        <ele>116.59999847412</ele>
        <time>2022-01-03T14:13:27.000Z</time>
      </trkpt>
      <trkpt lat="43.29076" lon="2.62527">
        <ele>116.59999847412</ele>
        <time>2022-01-03T14:13:29.000Z</time>
      </trkpt>
      <trkpt lat="43.29078" lon="2.62523">
        <ele>116.80000305176</ele>
        <time>2022-01-03T14:13:32.000Z</time>
      </trkpt>
      <trkpt lat="43.29082" lon="2.62515">
        <ele>117</ele>
        <time>2022-01-03T14:13:39.000Z</time>
      </trkpt>
      <trkpt lat="43.29085" lon="2.6251">
        <ele>117.40000152588</ele>
        <time>2022-01-03T14:13:43.000Z</time>
      </trkpt>
      <trkpt lat="43.29086" lon="2.62509">
        <ele>117.59999847412</ele>
        <time>2022-01-03T14:13:44.000Z</time>
      </trkpt>
      <trkpt lat="43.29093" lon="2.62499">
        <ele>118.40000152588</ele>
        <time>2022-01-03T14:13:52.000Z</time>
      </trkpt>
      <trkpt lat="43.29094" lon="2.62496">
        <ele>118.80000305176</ele>
        <time>2022-01-03T14:13:54.000Z</time>
      </trkpt>
      <trkpt lat="43.29097" lon="2.62493">
        <ele>119.40000152588</ele>
        <time>2022-01-03T14:13:58.000Z</time>
      </trkpt>
      <trkpt lat="43.29102" lon="2.62489">
        <ele>120</ele>
        <time>2022-01-03T14:14:03.000Z</time>
      </trkpt>
      <trkpt lat="43.29103" lon="2.62488">
        <ele>120.40000152588</ele>
        <time>2022-01-03T14:14:06.000Z</time>
      </trkpt>
      <trkpt lat="43.29105" lon="2.62485">
        <ele>120.59999847412</ele>
        <time>2022-01-03T14:14:09.000Z</time>
      </trkpt>
      <trkpt lat="43.29107" lon="2.62484">
        <ele>120.80000305176</ele>
        <time>2022-01-03T14:14:10.000Z</time>
      </trkpt>
      <trkpt lat="43.2911" lon="2.62484">
        <ele>121.59999847412</ele>
        <time>2022-01-03T14:14:13.000Z</time>
      </trkpt>
      <trkpt lat="43.29113" lon="2.62487">
        <ele>122.40000152588</ele>
        <time>2022-01-03T14:14:16.000Z</time>
      </trkpt>
      <trkpt lat="43.29114" lon="2.62489">
        <ele>122.59999847412</ele>
        <time>2022-01-03T14:14:18.000Z</time>
      </trkpt>
      <trkpt lat="43.29114" lon="2.62489">
        <ele>122.80000305176</ele>
        <time>2022-01-03T14:14:19.000Z</time>
      </trkpt>
      <trkpt lat="43.29114" lon="2.62489">
        <ele>123</ele>
        <time>2022-01-03T14:14:20.000Z</time>
      </trkpt>
      <trkpt lat="43.29114" lon="2.62489">
        <ele>123</ele>
        <time>2022-01-03T14:14:21.000Z</time>
      </trkpt>
      <trkpt lat="43.29114" lon="2.6249">
        <ele>123.19999694824</ele>
        <time>2022-01-03T14:14:22.000Z</time>
      </trkpt>
      <trkpt lat="43.29115" lon="2.62496">
        <ele>123.19999694824</ele>
        <time>2022-01-03T14:14:26.000Z</time>
      </trkpt>
      <trkpt lat="43.29114" lon="2.62498">
        <ele>123.19999694824</ele>
        <time>2022-01-03T14:14:27.000Z</time>
      </trkpt>
      <trkpt lat="43.29115" lon="2.62507">
        <ele>122.80000305176</ele>
        <time>2022-01-03T14:14:33.000Z</time>
      </trkpt>
      <trkpt lat="43.29116" lon="2.62517">
        <ele>122.80000305176</ele>
        <time>2022-01-03T14:14:39.000Z</time>
      </trkpt>
      <trkpt lat="43.29117" lon="2.62523">
        <ele>123</ele>
        <time>2022-01-03T14:14:42.000Z</time>
      </trkpt>
      <trkpt lat="43.29117" lon="2.62524">
        <ele>123</ele>
        <time>2022-01-03T14:14:43.000Z</time>
      </trkpt>
      <trkpt lat="43.29121" lon="2.6254">
        <ele>122.59999847412</ele>
        <time>2022-01-03T14:14:53.000Z</time>
      </trkpt>
      <trkpt lat="43.29123" lon="2.62544">
        <ele>122.59999847412</ele>
        <time>2022-01-03T14:14:56.000Z</time>
      </trkpt>
      <trkpt lat="43.29126" lon="2.62554">
        <ele>122.19999694824</ele>
        <time>2022-01-03T14:15:04.000Z</time>
      </trkpt>
      <trkpt lat="43.29126" lon="2.62554">
        <ele>121.40000152588</ele>
        <time>2022-01-03T14:15:05.000Z</time>
      </trkpt>
      <trkpt lat="43.29127" lon="2.62555">
        <ele>121.40000152588</ele>
        <time>2022-01-03T14:15:06.000Z</time>
      </trkpt>
      <trkpt lat="43.2913" lon="2.62554">
        <ele>120.59999847412</ele>
        <time>2022-01-03T14:15:09.000Z</time>
      </trkpt>
      <trkpt lat="43.29132" lon="2.62553">
        <ele>120.19999694824</ele>
        <time>2022-01-03T14:15:11.000Z</time>
      </trkpt>
      <trkpt lat="43.29139" lon="2.6255">
        <ele>120</ele>
        <time>2022-01-03T14:15:17.000Z</time>
      </trkpt>
      <trkpt lat="43.29149" lon="2.62551">
        <ele>121.40000152588</ele>
        <time>2022-01-03T14:15:26.000Z</time>
      </trkpt>
      <trkpt lat="43.29159" lon="2.62552">
        <ele>121.80000305176</ele>
        <time>2022-01-03T14:15:35.000Z</time>
      </trkpt>
      <trkpt lat="43.29175" lon="2.62551">
        <ele>122.40000152588</ele>
        <time>2022-01-03T14:15:48.000Z</time>
      </trkpt>
      <trkpt lat="43.29176" lon="2.62551">
        <ele>122.59999847412</ele>
        <time>2022-01-03T14:15:49.000Z</time>
      </trkpt>
      <trkpt lat="43.29181" lon="2.62552">
        <ele>123</ele>
        <time>2022-01-03T14:15:53.000Z</time>
      </trkpt>
      <trkpt lat="43.29186" lon="2.62554">
        <ele>124</ele>
        <time>2022-01-03T14:15:58.000Z</time>
      </trkpt>
      <trkpt lat="43.29191" lon="2.62562">
        <ele>124.59999847412</ele>
        <time>2022-01-03T14:16:04.000Z</time>
      </trkpt>
      <trkpt lat="43.29191" lon="2.62564">
        <ele>124.59999847412</ele>
        <time>2022-01-03T14:16:05.000Z</time>
      </trkpt>
      <trkpt lat="43.29193" lon="2.6257">
        <ele>124.40000152588</ele>
        <time>2022-01-03T14:16:09.000Z</time>
      </trkpt>
      <trkpt lat="43.29195" lon="2.62574">
        <ele>124.59999847412</ele>
        <time>2022-01-03T14:16:12.000Z</time>
      </trkpt>
      <trkpt lat="43.29199" lon="2.62581">
        <ele>124.59999847412</ele>
        <time>2022-01-03T14:16:17.000Z</time>
      </trkpt>
      <trkpt lat="43.292" lon="2.62582">
        <ele>124.59999847412</ele>
        <time>2022-01-03T14:16:18.000Z</time>
      </trkpt>
      <trkpt lat="43.29204" lon="2.62586">
        <ele>124.40000152588</ele>
        <time>2022-01-03T14:16:24.000Z</time>
      </trkpt>
      <trkpt lat="43.29204" lon="2.62586">
        <ele>124.59999847412</ele>
        <time>2022-01-03T14:16:25.000Z</time>
      </trkpt>
      <trkpt lat="43.29201" lon="2.62584">
        <ele>124.59999847412</ele>
        <time>2022-01-03T14:16:29.000Z</time>
      </trkpt>
      <trkpt lat="43.29199" lon="2.62583">
        <ele>124.59999847412</ele>
        <time>2022-01-03T14:16:31.000Z</time>
      </trkpt>
      <trkpt lat="43.29197" lon="2.62582">
        <ele>124.40000152588</ele>
        <time>2022-01-03T14:16:39.000Z</time>
      </trkpt>
      <trkpt lat="43.29201" lon="2.62585">
        <ele>124.40000152588</ele>
        <time>2022-01-03T14:16:44.000Z</time>
      </trkpt>
      <trkpt lat="43.29212" lon="2.62589">
        <ele>124.19999694824</ele>
        <time>2022-01-03T14:16:52.000Z</time>
      </trkpt>
      <trkpt lat="43.29218" lon="2.62595">
        <ele>124</ele>
        <time>2022-01-03T14:16:59.000Z</time>
      </trkpt>
      <trkpt lat="43.29219" lon="2.62598">
        <ele>123.59999847412</ele>
        <time>2022-01-03T14:17:01.000Z</time>
      </trkpt>
      <trkpt lat="43.29218" lon="2.62601">
        <ele>123.40000152588</ele>
        <time>2022-01-03T14:17:03.000Z</time>
      </trkpt>
      <trkpt lat="43.29218" lon="2.62604">
        <ele>123.19999694824</ele>
        <time>2022-01-03T14:17:05.000Z</time>
      </trkpt>
      <trkpt lat="43.29218" lon="2.62608">
        <ele>122.80000305176</ele>
        <time>2022-01-03T14:17:08.000Z</time>
      </trkpt>
      <trkpt lat="43.29218" lon="2.62619">
        <ele>122</ele>
        <time>2022-01-03T14:17:15.000Z</time>
      </trkpt>
      <trkpt lat="43.29217" lon="2.6262">
        <ele>122</ele>
        <time>2022-01-03T14:17:16.000Z</time>
      </trkpt>
      <trkpt lat="43.29217" lon="2.62623">
        <ele>121.80000305176</ele>
        <time>2022-01-03T14:17:18.000Z</time>
      </trkpt>
      <trkpt lat="43.29217" lon="2.62625">
        <ele>121.80000305176</ele>
        <time>2022-01-03T14:17:19.000Z</time>
      </trkpt>
      <trkpt lat="43.29219" lon="2.62634">
        <ele>121.19999694824</ele>
        <time>2022-01-03T14:17:24.000Z</time>
      </trkpt>
      <trkpt lat="43.29219" lon="2.62636">
        <ele>120.80000305176</ele>
        <time>2022-01-03T14:17:25.000Z</time>
      </trkpt>
      <trkpt lat="43.2922" lon="2.62644">
        <ele>119.59999847412</ele>
        <time>2022-01-03T14:17:30.000Z</time>
      </trkpt>
      <trkpt lat="43.29221" lon="2.6265">
        <ele>118.80000305176</ele>
        <time>2022-01-03T14:17:34.000Z</time>
      </trkpt>
      <trkpt lat="43.29221" lon="2.62652">
        <ele>118.59999847412</ele>
        <time>2022-01-03T14:17:35.000Z</time>
      </trkpt>
      <trkpt lat="43.29224" lon="2.62661">
        <ele>117.40000152588</ele>
        <time>2022-01-03T14:17:41.000Z</time>
      </trkpt>
      <trkpt lat="43.29224" lon="2.62665">
        <ele>117.19999694824</ele>
        <time>2022-01-03T14:17:43.000Z</time>
      </trkpt>
      <trkpt lat="43.29225" lon="2.62672">
        <ele>116.40000152588</ele>
        <time>2022-01-03T14:17:47.000Z</time>
      </trkpt>
      <trkpt lat="43.29226" lon="2.62679">
        <ele>115.80000305176</ele>
        <time>2022-01-03T14:17:51.000Z</time>
      </trkpt>
      <trkpt lat="43.29227" lon="2.62684">
        <ele>115.59999847412</ele>
        <time>2022-01-03T14:17:54.000Z</time>
      </trkpt>
      <trkpt lat="43.29228" lon="2.62689">
        <ele>115.59999847412</ele>
        <time>2022-01-03T14:17:57.000Z</time>
      </trkpt>
      <trkpt lat="43.29229" lon="2.62694">
        <ele>115.40000152588</ele>
        <time>2022-01-03T14:18:00.000Z</time>
      </trkpt>
      <trkpt lat="43.2923" lon="2.627">
        <ele>115.40000152588</ele>
        <time>2022-01-03T14:18:03.000Z</time>
      </trkpt>
      <trkpt lat="43.29231" lon="2.6271">
        <ele>115.40000152588</ele>
        <time>2022-01-03T14:18:09.000Z</time>
      </trkpt>
      <trkpt lat="43.29232" lon="2.62716">
        <ele>114.59999847412</ele>
        <time>2022-01-03T14:18:12.000Z</time>
      </trkpt>
      <trkpt lat="43.29233" lon="2.6272">
        <ele>114.40000152588</ele>
        <time>2022-01-03T14:18:14.000Z</time>
      </trkpt>
      <trkpt lat="43.29236" lon="2.62727">
        <ele>113.40000152588</ele>
        <time>2022-01-03T14:18:18.000Z</time>
      </trkpt>
      <trkpt lat="43.29238" lon="2.62734">
        <ele>112.19999694824</ele>
        <time>2022-01-03T14:18:22.000Z</time>
      </trkpt>
      <trkpt lat="43.29241" lon="2.6274">
        <ele>111</ele>
        <time>2022-01-03T14:18:26.000Z</time>
      </trkpt>
      <trkpt lat="43.29243" lon="2.62747">
        <ele>110</ele>
        <time>2022-01-03T14:18:30.000Z</time>
      </trkpt>
      <trkpt lat="43.29244" lon="2.6276">
        <ele>109.80000305176</ele>
        <time>2022-01-03T14:18:38.000Z</time>
      </trkpt>
      <trkpt lat="43.29243" lon="2.62771">
        <ele>109.19999694824</ele>
        <time>2022-01-03T14:18:44.000Z</time>
      </trkpt>
      <trkpt lat="43.29242" lon="2.62774">
        <ele>109.19999694824</ele>
        <time>2022-01-03T14:18:46.000Z</time>
      </trkpt>
      <trkpt lat="43.29241" lon="2.62775">
        <ele>109.40000152588</ele>
        <time>2022-01-03T14:18:47.000Z</time>
      </trkpt>
      <trkpt lat="43.29242" lon="2.62782">
        <ele>109.40000152588</ele>
        <time>2022-01-03T14:18:51.000Z</time>
      </trkpt>
      <trkpt lat="43.29243" lon="2.62786">
        <ele>108.80000305176</ele>
        <time>2022-01-03T14:18:54.000Z</time>
      </trkpt>
      <trkpt lat="43.29248" lon="2.6279">
        <ele>108.80000305176</ele>
        <time>2022-01-03T14:18:58.000Z</time>
      </trkpt>
      <trkpt lat="43.29252" lon="2.62791">
        <ele>108.19999694824</ele>
        <time>2022-01-03T14:19:02.000Z</time>
      </trkpt>
      <trkpt lat="43.29255" lon="2.62792">
        <ele>108</ele>
        <time>2022-01-03T14:19:04.000Z</time>
      </trkpt>
      <trkpt lat="43.29256" lon="2.62793">
        <ele>107.80000305176</ele>
        <time>2022-01-03T14:19:05.000Z</time>
      </trkpt>
      <trkpt lat="43.29262" lon="2.62794">
        <ele>107.40000152588</ele>
        <time>2022-01-03T14:19:10.000Z</time>
      </trkpt>
      <trkpt lat="43.29263" lon="2.62794">
        <ele>107.19999694824</ele>
        <time>2022-01-03T14:19:11.000Z</time>
      </trkpt>
      <trkpt lat="43.29268" lon="2.62798">
        <ele>107</ele>
        <time>2022-01-03T14:19:16.000Z</time>
      </trkpt>
      <trkpt lat="43.29269" lon="2.628">
        <ele>106.80000305176</ele>
        <time>2022-01-03T14:19:17.000Z</time>
      </trkpt>
      <trkpt lat="43.29269" lon="2.62802">
        <ele>106.59999847412</ele>
        <time>2022-01-03T14:19:18.000Z</time>
      </trkpt>
      <trkpt lat="43.29269" lon="2.62803">
        <ele>106.59999847412</ele>
        <time>2022-01-03T14:19:19.000Z</time>
      </trkpt>
      <trkpt lat="43.29269" lon="2.62807">
        <ele>106.40000152588</ele>
        <time>2022-01-03T14:19:21.000Z</time>
      </trkpt>
      <trkpt lat="43.29268" lon="2.62816">
        <ele>105.80000305176</ele>
        <time>2022-01-03T14:19:26.000Z</time>
      </trkpt>
      <trkpt lat="43.29266" lon="2.62828">
        <ele>105.19999694824</ele>
        <time>2022-01-03T14:19:33.000Z</time>
      </trkpt>
      <trkpt lat="43.29265" lon="2.62833">
        <ele>105</ele>
        <time>2022-01-03T14:19:36.000Z</time>
      </trkpt>
      <trkpt lat="43.29265" lon="2.62834">
        <ele>104.80000305176</ele>
        <time>2022-01-03T14:19:37.000Z</time>
      </trkpt>
      <trkpt lat="43.29265" lon="2.62836">
        <ele>104.80000305176</ele>
        <time>2022-01-03T14:19:39.000Z</time>
      </trkpt>
      <trkpt lat="43.29265" lon="2.62838">
        <ele>104.59999847412</ele>
        <time>2022-01-03T14:19:40.000Z</time>
      </trkpt>
      <trkpt lat="43.29265" lon="2.62842">
        <ele>104.40000152588</ele>
        <time>2022-01-03T14:19:44.000Z</time>
      </trkpt>
      <trkpt lat="43.29265" lon="2.62845">
        <ele>104.40000152588</ele>
        <time>2022-01-03T14:19:46.000Z</time>
      </trkpt>
      <trkpt lat="43.29266" lon="2.62853">
        <ele>105</ele>
        <time>2022-01-03T14:19:51.000Z</time>
      </trkpt>
      <trkpt lat="43.29267" lon="2.62857">
        <ele>105.19999694824</ele>
        <time>2022-01-03T14:19:54.000Z</time>
      </trkpt>
      <trkpt lat="43.29267" lon="2.62863">
        <ele>105.80000305176</ele>
        <time>2022-01-03T14:19:57.000Z</time>
      </trkpt>
      <trkpt lat="43.29269" lon="2.62869">
        <ele>106</ele>
        <time>2022-01-03T14:20:01.000Z</time>
      </trkpt>
      <trkpt lat="43.29271" lon="2.62872">
        <ele>106.19999694824</ele>
        <time>2022-01-03T14:20:03.000Z</time>
      </trkpt>
      <trkpt lat="43.29279" lon="2.62876">
        <ele>106.19999694824</ele>
        <time>2022-01-03T14:20:10.000Z</time>
      </trkpt>
      <trkpt lat="43.29283" lon="2.62878">
        <ele>106</ele>
        <time>2022-01-03T14:20:13.000Z</time>
      </trkpt>
      <trkpt lat="43.29293" lon="2.62883">
        <ele>106</ele>
        <time>2022-01-03T14:20:21.000Z</time>
      </trkpt>
      <trkpt lat="43.29305" lon="2.62889">
        <ele>106.19999694824</ele>
        <time>2022-01-03T14:20:31.000Z</time>
      </trkpt>
      <trkpt lat="43.29309" lon="2.62891">
        <ele>106.40000152588</ele>
        <time>2022-01-03T14:20:34.000Z</time>
      </trkpt>
      <trkpt lat="43.29313" lon="2.62892">
        <ele>106.19999694824</ele>
        <time>2022-01-03T14:20:37.000Z</time>
      </trkpt>
      <trkpt lat="43.2932" lon="2.62895">
        <ele>106.59999847412</ele>
        <time>2022-01-03T14:20:43.000Z</time>
      </trkpt>
      <trkpt lat="43.29322" lon="2.62896">
        <ele>106.80000305176</ele>
        <time>2022-01-03T14:20:45.000Z</time>
      </trkpt>
      <trkpt lat="43.29328" lon="2.629">
        <ele>106.40000152588</ele>
        <time>2022-01-03T14:20:51.000Z</time>
      </trkpt>
      <trkpt lat="43.29341" lon="2.62907">
        <ele>105</ele>
        <time>2022-01-03T14:21:01.000Z</time>
      </trkpt>
      <trkpt lat="43.29342" lon="2.62908">
        <ele>105.19999694824</ele>
        <time>2022-01-03T14:21:03.000Z</time>
      </trkpt>
      <trkpt lat="43.29351" lon="2.62912">
        <ele>105.19999694824</ele>
        <time>2022-01-03T14:21:09.000Z</time>
      </trkpt>
      <trkpt lat="43.29356" lon="2.62915">
        <ele>105.80000305176</ele>
        <time>2022-01-03T14:21:14.000Z</time>
      </trkpt>
      <trkpt lat="43.29359" lon="2.62917">
        <ele>105.80000305176</ele>
        <time>2022-01-03T14:21:16.000Z</time>
      </trkpt>
      <trkpt lat="43.29362" lon="2.62918">
        <ele>105.80000305176</ele>
        <time>2022-01-03T14:21:19.000Z</time>
      </trkpt>
      <trkpt lat="43.29372" lon="2.62921">
        <ele>105.80000305176</ele>
        <time>2022-01-03T14:21:27.000Z</time>
      </trkpt>
      <trkpt lat="43.29377" lon="2.62923">
        <ele>106</ele>
        <time>2022-01-03T14:21:31.000Z</time>
      </trkpt>
      <trkpt lat="43.29382" lon="2.62925">
        <ele>106</ele>
        <time>2022-01-03T14:21:35.000Z</time>
      </trkpt>
      <trkpt lat="43.29385" lon="2.62927">
        <ele>106.19999694824</ele>
        <time>2022-01-03T14:21:37.000Z</time>
      </trkpt>
      <trkpt lat="43.29398" lon="2.62934">
        <ele>105.80000305176</ele>
        <time>2022-01-03T14:21:48.000Z</time>
      </trkpt>
      <trkpt lat="43.294" lon="2.62934">
        <ele>106</ele>
        <time>2022-01-03T14:21:49.000Z</time>
      </trkpt>
      <trkpt lat="43.29415" lon="2.6294">
        <ele>106</ele>
        <time>2022-01-03T14:22:01.000Z</time>
      </trkpt>
      <trkpt lat="43.29425" lon="2.62946">
        <ele>105.80000305176</ele>
        <time>2022-01-03T14:22:09.000Z</time>
      </trkpt>
      <trkpt lat="43.2943" lon="2.62949">
        <ele>106</ele>
        <time>2022-01-03T14:22:13.000Z</time>
      </trkpt>
      <trkpt lat="43.29432" lon="2.6295">
        <ele>106</ele>
        <time>2022-01-03T14:22:15.000Z</time>
      </trkpt>
      <trkpt lat="43.29434" lon="2.62952">
        <ele>106.19999694824</ele>
        <time>2022-01-03T14:22:17.000Z</time>
      </trkpt>
      <trkpt lat="43.29446" lon="2.62958">
        <ele>106.80000305176</ele>
        <time>2022-01-03T14:22:27.000Z</time>
      </trkpt>
      <trkpt lat="43.29447" lon="2.62959">
        <ele>106.80000305176</ele>
        <time>2022-01-03T14:22:28.000Z</time>
      </trkpt>
      <trkpt lat="43.29449" lon="2.6296">
        <ele>107</ele>
        <time>2022-01-03T14:22:29.000Z</time>
      </trkpt>
      <trkpt lat="43.29452" lon="2.62961">
        <ele>107</ele>
        <time>2022-01-03T14:22:32.000Z</time>
      </trkpt>
      <trkpt lat="43.29456" lon="2.62963">
        <ele>107.19999694824</ele>
        <time>2022-01-03T14:22:35.000Z</time>
      </trkpt>
      <trkpt lat="43.2946" lon="2.62964">
        <ele>107.19999694824</ele>
        <time>2022-01-03T14:22:38.000Z</time>
      </trkpt>
      <trkpt lat="43.29466" lon="2.62963">
        <ele>107.80000305176</ele>
        <time>2022-01-03T14:22:43.000Z</time>
      </trkpt>
      <trkpt lat="43.29468" lon="2.62963">
        <ele>108</ele>
        <time>2022-01-03T14:22:44.000Z</time>
      </trkpt>
      <trkpt lat="43.29476" lon="2.62969">
        <ele>108.40000152588</ele>
        <time>2022-01-03T14:22:50.000Z</time>
      </trkpt>
      <trkpt lat="43.29483" lon="2.62981">
        <ele>108</ele>
        <time>2022-01-03T14:23:00.000Z</time>
      </trkpt>
      <trkpt lat="43.29486" lon="2.62985">
        <ele>108</ele>
        <time>2022-01-03T14:23:03.000Z</time>
      </trkpt>
      <trkpt lat="43.29489" lon="2.62988">
        <ele>107.80000305176</ele>
        <time>2022-01-03T14:23:06.000Z</time>
      </trkpt>
      <trkpt lat="43.29492" lon="2.62991">
        <ele>107.80000305176</ele>
        <time>2022-01-03T14:23:09.000Z</time>
      </trkpt>
      <trkpt lat="43.29501" lon="2.63001">
        <ele>107.80000305176</ele>
        <time>2022-01-03T14:23:19.000Z</time>
      </trkpt>
      <trkpt lat="43.29509" lon="2.63009">
        <ele>108.19999694824</ele>
        <time>2022-01-03T14:23:27.000Z</time>
      </trkpt>
      <trkpt lat="43.29516" lon="2.63017">
        <ele>108.40000152588</ele>
        <time>2022-01-03T14:23:35.000Z</time>
      </trkpt>
      <trkpt lat="43.29521" lon="2.63027">
        <ele>108.40000152588</ele>
        <time>2022-01-03T14:23:42.000Z</time>
      </trkpt>
      <trkpt lat="43.29523" lon="2.63034">
        <ele>108.59999847412</ele>
        <time>2022-01-03T14:23:46.000Z</time>
      </trkpt>
      <trkpt lat="43.29523" lon="2.63037">
        <ele>109</ele>
        <time>2022-01-03T14:23:48.000Z</time>
      </trkpt>
      <trkpt lat="43.29523" lon="2.63039">
        <ele>109</ele>
        <time>2022-01-03T14:23:50.000Z</time>
      </trkpt>
      <trkpt lat="43.29522" lon="2.63038">
        <ele>109.19999694824</ele>
        <time>2022-01-03T14:23:51.000Z</time>
      </trkpt>
      <trkpt lat="43.29522" lon="2.63037">
        <ele>109.59999847412</ele>
        <time>2022-01-03T14:23:54.000Z</time>
      </trkpt>
      <trkpt lat="43.29522" lon="2.63036">
        <ele>110</ele>
        <time>2022-01-03T14:23:56.000Z</time>
      </trkpt>
      <trkpt lat="43.29522" lon="2.63036">
        <ele>110.19999694824</ele>
        <time>2022-01-03T14:23:57.000Z</time>
      </trkpt>
      <trkpt lat="43.29522" lon="2.63036">
        <ele>111</ele>
        <time>2022-01-03T14:24:00.000Z</time>
      </trkpt>
      <trkpt lat="43.29524" lon="2.63041">
        <ele>112</ele>
        <time>2022-01-03T14:24:05.000Z</time>
      </trkpt>
      <trkpt lat="43.29527" lon="2.63049">
        <ele>111.80000305176</ele>
        <time>2022-01-03T14:24:11.000Z</time>
      </trkpt>
      <trkpt lat="43.29533" lon="2.63059">
        <ele>110</ele>
        <time>2022-01-03T14:24:18.000Z</time>
      </trkpt>
      <trkpt lat="43.29533" lon="2.6306">
        <ele>110</ele>
        <time>2022-01-03T14:24:19.000Z</time>
      </trkpt>
      <trkpt lat="43.29539" lon="2.63066">
        <ele>109.80000305176</ele>
        <time>2022-01-03T14:24:24.000Z</time>
      </trkpt>
      <trkpt lat="43.29549" lon="2.63074">
        <ele>110.59999847412</ele>
        <time>2022-01-03T14:24:32.000Z</time>
      </trkpt>
      <trkpt lat="43.29552" lon="2.63077">
        <ele>111.19999694824</ele>
        <time>2022-01-03T14:24:35.000Z</time>
      </trkpt>
      <trkpt lat="43.29556" lon="2.63083">
        <ele>111.80000305176</ele>
        <time>2022-01-03T14:24:39.000Z</time>
      </trkpt>
      <trkpt lat="43.29559" lon="2.63086">
        <ele>112.19999694824</ele>
        <time>2022-01-03T14:24:43.000Z</time>
      </trkpt>
      <trkpt lat="43.29562" lon="2.6309">
        <ele>112</ele>
        <time>2022-01-03T14:24:46.000Z</time>
      </trkpt>
      <trkpt lat="43.29565" lon="2.63094">
        <ele>112.40000152588</ele>
        <time>2022-01-03T14:24:49.000Z</time>
      </trkpt>
      <trkpt lat="43.2957" lon="2.63098">
        <ele>113.19999694824</ele>
        <time>2022-01-03T14:24:53.000Z</time>
      </trkpt>
      <trkpt lat="43.29571" lon="2.63098">
        <ele>113.59999847412</ele>
        <time>2022-01-03T14:24:54.000Z</time>
      </trkpt>
      <trkpt lat="43.29572" lon="2.63098">
        <ele>113.80000305176</ele>
        <time>2022-01-03T14:24:55.000Z</time>
      </trkpt>
      <trkpt lat="43.29575" lon="2.631">
        <ele>114.80000305176</ele>
        <time>2022-01-03T14:24:58.000Z</time>
      </trkpt>
      <trkpt lat="43.29578" lon="2.63105">
        <ele>115.80000305176</ele>
        <time>2022-01-03T14:25:01.000Z</time>
      </trkpt>
      <trkpt lat="43.2958" lon="2.63107">
        <ele>116.19999694824</ele>
        <time>2022-01-03T14:25:03.000Z</time>
      </trkpt>
      <trkpt lat="43.29582" lon="2.6311">
        <ele>116.19999694824</ele>
        <time>2022-01-03T14:25:05.000Z</time>
      </trkpt>
      <trkpt lat="43.29585" lon="2.63112">
        <ele>116.19999694824</ele>
        <time>2022-01-03T14:25:08.000Z</time>
      </trkpt>
      <trkpt lat="43.2959" lon="2.63117">
        <ele>115.80000305176</ele>
        <time>2022-01-03T14:25:12.000Z</time>
      </trkpt>
      <trkpt lat="43.29593" lon="2.63121">
        <ele>115.19999694824</ele>
        <time>2022-01-03T14:25:16.000Z</time>
      </trkpt>
      <trkpt lat="43.29593" lon="2.63121">
        <ele>115.19999694824</ele>
        <time>2022-01-03T14:25:17.000Z</time>
      </trkpt>
      <trkpt lat="43.29595" lon="2.63123">
        <ele>115.19999694824</ele>
        <time>2022-01-03T14:25:19.000Z</time>
      </trkpt>
      <trkpt lat="43.29599" lon="2.63128">
        <ele>115.40000152588</ele>
        <time>2022-01-03T14:25:23.000Z</time>
      </trkpt>
      <trkpt lat="43.296" lon="2.6313">
        <ele>115.59999847412</ele>
        <time>2022-01-03T14:25:25.000Z</time>
      </trkpt>
      <trkpt lat="43.29602" lon="2.63132">
        <ele>115.59999847412</ele>
        <time>2022-01-03T14:25:27.000Z</time>
      </trkpt>
      <trkpt lat="43.29605" lon="2.63138">
        <ele>115.80000305176</ele>
        <time>2022-01-03T14:25:31.000Z</time>
      </trkpt>
      <trkpt lat="43.2961" lon="2.63148">
        <ele>115.59999847412</ele>
        <time>2022-01-03T14:25:38.000Z</time>
      </trkpt>
      <trkpt lat="43.29613" lon="2.63152">
        <ele>115.80000305176</ele>
        <time>2022-01-03T14:25:41.000Z</time>
      </trkpt>
      <trkpt lat="43.29617" lon="2.6316">
        <ele>117</ele>
        <time>2022-01-03T14:25:46.000Z</time>
      </trkpt>
      <trkpt lat="43.2962" lon="2.63164">
        <ele>117.40000152588</ele>
        <time>2022-01-03T14:25:49.000Z</time>
      </trkpt>
      <trkpt lat="43.29628" lon="2.63177">
        <ele>117.19999694824</ele>
        <time>2022-01-03T14:25:59.000Z</time>
      </trkpt>
      <trkpt lat="43.29641" lon="2.63189">
        <ele>116.19999694824</ele>
        <time>2022-01-03T14:26:11.000Z</time>
      </trkpt>
      <trkpt lat="43.29642" lon="2.6319">
        <ele>116</ele>
        <time>2022-01-03T14:26:12.000Z</time>
      </trkpt>
      <trkpt lat="43.29644" lon="2.63191">
        <ele>116</ele>
        <time>2022-01-03T14:26:13.000Z</time>
      </trkpt>
      <trkpt lat="43.29659" lon="2.63199">
        <ele>117</ele>
        <time>2022-01-03T14:26:26.000Z</time>
      </trkpt>
      <trkpt lat="43.29666" lon="2.63203">
        <ele>118.19999694824</ele>
        <time>2022-01-03T14:26:32.000Z</time>
      </trkpt>
      <trkpt lat="43.29669" lon="2.63205">
        <ele>118.59999847412</ele>
        <time>2022-01-03T14:26:35.000Z</time>
      </trkpt>
      <trkpt lat="43.29676" lon="2.63207">
        <ele>119</ele>
        <time>2022-01-03T14:26:40.000Z</time>
      </trkpt>
      <trkpt lat="43.29681" lon="2.63209">
        <ele>119.19999694824</ele>
        <time>2022-01-03T14:26:44.000Z</time>
      </trkpt>
      <trkpt lat="43.2969" lon="2.63209">
        <ele>119.40000152588</ele>
        <time>2022-01-03T14:26:51.000Z</time>
      </trkpt>
      <trkpt lat="43.29699" lon="2.63208">
        <ele>119.19999694824</ele>
        <time>2022-01-03T14:26:59.000Z</time>
      </trkpt>
      <trkpt lat="43.29703" lon="2.63207">
        <ele>119.19999694824</ele>
        <time>2022-01-03T14:27:02.000Z</time>
      </trkpt>
      <trkpt lat="43.29712" lon="2.63205">
        <ele>120.19999694824</ele>
        <time>2022-01-03T14:27:09.000Z</time>
      </trkpt>
      <trkpt lat="43.29718" lon="2.63204">
        <ele>120.59999847412</ele>
        <time>2022-01-03T14:27:14.000Z</time>
      </trkpt>
      <trkpt lat="43.2973" lon="2.63201">
        <ele>121.40000152588</ele>
        <time>2022-01-03T14:27:25.000Z</time>
      </trkpt>
      <trkpt lat="43.29733" lon="2.632">
        <ele>121.40000152588</ele>
        <time>2022-01-03T14:27:28.000Z</time>
      </trkpt>
      <trkpt lat="43.2975" lon="2.63199">
        <ele>121.19999694824</ele>
        <time>2022-01-03T14:27:41.000Z</time>
      </trkpt>
      <trkpt lat="43.29752" lon="2.63199">
        <ele>121</ele>
        <time>2022-01-03T14:27:43.000Z</time>
      </trkpt>
      <trkpt lat="43.29755" lon="2.63199">
        <ele>120.80000305176</ele>
        <time>2022-01-03T14:27:46.000Z</time>
      </trkpt>
      <trkpt lat="43.29767" lon="2.63199">
        <ele>120.59999847412</ele>
        <time>2022-01-03T14:27:55.000Z</time>
      </trkpt>
      <trkpt lat="43.2977" lon="2.63199">
        <ele>120.19999694824</ele>
        <time>2022-01-03T14:27:58.000Z</time>
      </trkpt>
      <trkpt lat="43.29771" lon="2.632">
        <ele>120.19999694824</ele>
        <time>2022-01-03T14:27:59.000Z</time>
      </trkpt>
      <trkpt lat="43.29785" lon="2.63199">
        <ele>119.19999694824</ele>
        <time>2022-01-03T14:28:10.000Z</time>
      </trkpt>
      <trkpt lat="43.29786" lon="2.632">
        <ele>119.19999694824</ele>
        <time>2022-01-03T14:28:11.000Z</time>
      </trkpt>
      <trkpt lat="43.29794" lon="2.63199">
        <ele>119.40000152588</ele>
        <time>2022-01-03T14:28:18.000Z</time>
      </trkpt>
      <trkpt lat="43.29794" lon="2.63199">
        <ele>119.40000152588</ele>
        <time>2022-01-03T14:28:19.000Z</time>
      </trkpt>
      <trkpt lat="43.29802" lon="2.63199">
        <ele>119.40000152588</ele>
        <time>2022-01-03T14:28:26.000Z</time>
      </trkpt>
      <trkpt lat="43.29805" lon="2.63199">
        <ele>119.59999847412</ele>
        <time>2022-01-03T14:28:28.000Z</time>
      </trkpt>
      <trkpt lat="43.29812" lon="2.63199">
        <ele>120.40000152588</ele>
        <time>2022-01-03T14:28:34.000Z</time>
      </trkpt>
      <trkpt lat="43.29819" lon="2.63197">
        <ele>121.19999694824</ele>
        <time>2022-01-03T14:28:39.000Z</time>
      </trkpt>
      <trkpt lat="43.29821" lon="2.63197">
        <ele>121.40000152588</ele>
        <time>2022-01-03T14:28:41.000Z</time>
      </trkpt>
      <trkpt lat="43.29835" lon="2.63196">
        <ele>120.59999847412</ele>
        <time>2022-01-03T14:28:55.000Z</time>
      </trkpt>
      <trkpt lat="43.29835" lon="2.63196">
        <ele>120.59999847412</ele>
        <time>2022-01-03T14:28:56.000Z</time>
      </trkpt>
      <trkpt lat="43.29835" lon="2.63196">
        <ele>120.40000152588</ele>
        <time>2022-01-03T14:28:58.000Z</time>
      </trkpt>
      <trkpt lat="43.29833" lon="2.63197">
        <ele>120.59999847412</ele>
        <time>2022-01-03T14:29:07.000Z</time>
      </trkpt>
      <trkpt lat="43.29833" lon="2.63197">
        <ele>120.80000305176</ele>
        <time>2022-01-03T14:29:11.000Z</time>
      </trkpt>
      <trkpt lat="43.29834" lon="2.63196">
        <ele>120.80000305176</ele>
        <time>2022-01-03T14:29:16.000Z</time>
      </trkpt>
      <trkpt lat="43.29834" lon="2.63196">
        <ele>120.80000305176</ele>
        <time>2022-01-03T14:29:18.000Z</time>
      </trkpt>
      <trkpt lat="43.29834" lon="2.63196">
        <ele>121</ele>
        <time>2022-01-03T14:29:20.000Z</time>
      </trkpt>
      <trkpt lat="43.29834" lon="2.63196">
        <ele>121.40000152588</ele>
        <time>2022-01-03T14:29:22.000Z</time>
      </trkpt>
      <trkpt lat="43.29834" lon="2.63196">
        <ele>121.59999847412</ele>
        <time>2022-01-03T14:29:25.000Z</time>
      </trkpt>
      <trkpt lat="43.29834" lon="2.63196">
        <ele>121.40000152588</ele>
        <time>2022-01-03T14:29:27.000Z</time>
      </trkpt>
      <trkpt lat="43.29834" lon="2.63196">
        <ele>121.19999694824</ele>
        <time>2022-01-03T14:29:31.000Z</time>
      </trkpt>
      <trkpt lat="43.29839" lon="2.63193">
        <ele>121.19999694824</ele>
        <time>2022-01-03T14:29:50.000Z</time>
      </trkpt>
      <trkpt lat="43.29837" lon="2.63201">
        <ele>121.19999694824</ele>
        <time>2022-01-03T14:29:58.000Z</time>
      </trkpt>
      <trkpt lat="43.29834" lon="2.63219">
        <ele>120.80000305176</ele>
        <time>2022-01-03T14:30:07.000Z</time>
      </trkpt>
      <trkpt lat="43.29829" lon="2.63233">
        <ele>120</ele>
        <time>2022-01-03T14:30:16.000Z</time>
      </trkpt>
      <trkpt lat="43.29829" lon="2.63234">
        <ele>120.19999694824</ele>
        <time>2022-01-03T14:30:17.000Z</time>
      </trkpt>
      <trkpt lat="43.29829" lon="2.63233">
        <ele>120.19999694824</ele>
        <time>2022-01-03T14:30:18.000Z</time>
      </trkpt>
      <trkpt lat="43.29833" lon="2.63233">
        <ele>119.80000305176</ele>
        <time>2022-01-03T14:30:21.000Z</time>
      </trkpt>
      <trkpt lat="43.29833" lon="2.63234">
        <ele>119.40000152588</ele>
        <time>2022-01-03T14:30:23.000Z</time>
      </trkpt>
      <trkpt lat="43.29831" lon="2.63235">
        <ele>119</ele>
        <time>2022-01-03T14:30:25.000Z</time>
      </trkpt>
      <trkpt lat="43.29828" lon="2.63238">
        <ele>118.80000305176</ele>
        <time>2022-01-03T14:30:28.000Z</time>
      </trkpt>
      <trkpt lat="43.29823" lon="2.63247">
        <ele>119.59999847412</ele>
        <time>2022-01-03T14:30:33.000Z</time>
      </trkpt>
      <trkpt lat="43.29822" lon="2.63252">
        <ele>119.80000305176</ele>
        <time>2022-01-03T14:30:36.000Z</time>
      </trkpt>
      <trkpt lat="43.2982" lon="2.63255">
        <ele>120</ele>
        <time>2022-01-03T14:30:38.000Z</time>
      </trkpt>
      <trkpt lat="43.29819" lon="2.63256">
        <ele>120</ele>
        <time>2022-01-03T14:30:39.000Z</time>
      </trkpt>
      <trkpt lat="43.29813" lon="2.63266">
        <ele>120.40000152588</ele>
        <time>2022-01-03T14:30:46.000Z</time>
      </trkpt>
      <trkpt lat="43.2981" lon="2.63271">
        <ele>121</ele>
        <time>2022-01-03T14:30:49.000Z</time>
      </trkpt>
      <trkpt lat="43.29809" lon="2.63273">
        <ele>121.40000152588</ele>
        <time>2022-01-03T14:30:51.000Z</time>
      </trkpt>
      <trkpt lat="43.29805" lon="2.63277">
        <ele>121.59999847412</ele>
        <time>2022-01-03T14:30:54.000Z</time>
      </trkpt>
      <trkpt lat="43.29804" lon="2.63278">
        <ele>121.59999847412</ele>
        <time>2022-01-03T14:30:55.000Z</time>
      </trkpt>
      <trkpt lat="43.298" lon="2.63284">
        <ele>121.80000305176</ele>
        <time>2022-01-03T14:31:00.000Z</time>
      </trkpt>
      <trkpt lat="43.29797" lon="2.63288">
        <ele>121.19999694824</ele>
        <time>2022-01-03T14:31:03.000Z</time>
      </trkpt>
      <trkpt lat="43.29788" lon="2.63299">
        <ele>121.40000152588</ele>
        <time>2022-01-03T14:31:12.000Z</time>
      </trkpt>
      <trkpt lat="43.29778" lon="2.6331">
        <ele>121</ele>
        <time>2022-01-03T14:31:21.000Z</time>
      </trkpt>
      <trkpt lat="43.29778" lon="2.63311">
        <ele>120.80000305176</ele>
        <time>2022-01-03T14:31:22.000Z</time>
      </trkpt>
      <trkpt lat="43.29773" lon="2.63314">
        <ele>120.40000152588</ele>
        <time>2022-01-03T14:31:26.000Z</time>
      </trkpt>
      <trkpt lat="43.29772" lon="2.63316">
        <ele>120.19999694824</ele>
        <time>2022-01-03T14:31:27.000Z</time>
      </trkpt>
      <trkpt lat="43.2977" lon="2.63318">
        <ele>120</ele>
        <time>2022-01-03T14:31:29.000Z</time>
      </trkpt>
      <trkpt lat="43.29766" lon="2.63322">
        <ele>119.40000152588</ele>
        <time>2022-01-03T14:31:33.000Z</time>
      </trkpt>
      <trkpt lat="43.29762" lon="2.63327">
        <ele>119.40000152588</ele>
        <time>2022-01-03T14:31:37.000Z</time>
      </trkpt>
      <trkpt lat="43.29758" lon="2.63332">
        <ele>119.59999847412</ele>
        <time>2022-01-03T14:31:41.000Z</time>
      </trkpt>
      <trkpt lat="43.29757" lon="2.63333">
        <ele>119.59999847412</ele>
        <time>2022-01-03T14:31:42.000Z</time>
      </trkpt>
      <trkpt lat="43.29753" lon="2.63339">
        <ele>119.59999847412</ele>
        <time>2022-01-03T14:31:46.000Z</time>
      </trkpt>
      <trkpt lat="43.29746" lon="2.63347">
        <ele>120.59999847412</ele>
        <time>2022-01-03T14:31:52.000Z</time>
      </trkpt>
      <trkpt lat="43.29738" lon="2.63356">
        <ele>120.80000305176</ele>
        <time>2022-01-03T14:32:03.000Z</time>
      </trkpt>
      <trkpt lat="43.29738" lon="2.63357">
        <ele>121</ele>
        <time>2022-01-03T14:32:04.000Z</time>
      </trkpt>
      <trkpt lat="43.29735" lon="2.63362">
        <ele>121.59999847412</ele>
        <time>2022-01-03T14:32:08.000Z</time>
      </trkpt>
      <trkpt lat="43.29732" lon="2.63366">
        <ele>121.80000305176</ele>
        <time>2022-01-03T14:32:10.000Z</time>
      </trkpt>
      <trkpt lat="43.29727" lon="2.63376">
        <ele>122</ele>
        <time>2022-01-03T14:32:16.000Z</time>
      </trkpt>
      <trkpt lat="43.29724" lon="2.63381">
        <ele>122.19999694824</ele>
        <time>2022-01-03T14:32:20.000Z</time>
      </trkpt>
      <trkpt lat="43.29718" lon="2.63391">
        <ele>122.59999847412</ele>
        <time>2022-01-03T14:32:26.000Z</time>
      </trkpt>
      <trkpt lat="43.29715" lon="2.63394">
        <ele>122.59999847412</ele>
        <time>2022-01-03T14:32:29.000Z</time>
      </trkpt>
      <trkpt lat="43.29713" lon="2.63397">
        <ele>123</ele>
        <time>2022-01-03T14:32:31.000Z</time>
      </trkpt>
      <trkpt lat="43.29709" lon="2.63402">
        <ele>123.19999694824</ele>
        <time>2022-01-03T14:32:35.000Z</time>
      </trkpt>
      <trkpt lat="43.29702" lon="2.6341">
        <ele>122.80000305176</ele>
        <time>2022-01-03T14:32:42.000Z</time>
      </trkpt>
      <trkpt lat="43.297" lon="2.63413">
        <ele>121.80000305176</ele>
        <time>2022-01-03T14:32:45.000Z</time>
      </trkpt>
      <trkpt lat="43.29695" lon="2.63418">
        <ele>121.40000152588</ele>
        <time>2022-01-03T14:32:50.000Z</time>
      </trkpt>
      <trkpt lat="43.29693" lon="2.6342">
        <ele>120.80000305176</ele>
        <time>2022-01-03T14:32:52.000Z</time>
      </trkpt>
      <trkpt lat="43.29691" lon="2.63423">
        <ele>120.40000152588</ele>
        <time>2022-01-03T14:32:54.000Z</time>
      </trkpt>
      <trkpt lat="43.29688" lon="2.63428">
        <ele>119.80000305176</ele>
        <time>2022-01-03T14:32:57.000Z</time>
      </trkpt>
      <trkpt lat="43.29682" lon="2.63435">
        <ele>119.80000305176</ele>
        <time>2022-01-03T14:33:03.000Z</time>
      </trkpt>
      <trkpt lat="43.29677" lon="2.63441">
        <ele>119.40000152588</ele>
        <time>2022-01-03T14:33:08.000Z</time>
      </trkpt>
      <trkpt lat="43.29677" lon="2.63443">
        <ele>119.19999694824</ele>
        <time>2022-01-03T14:33:09.000Z</time>
      </trkpt>
      <trkpt lat="43.29675" lon="2.63445">
        <ele>118.59999847412</ele>
        <time>2022-01-03T14:33:11.000Z</time>
      </trkpt>
      <trkpt lat="43.29672" lon="2.63451">
        <ele>117.59999847412</ele>
        <time>2022-01-03T14:33:15.000Z</time>
      </trkpt>
      <trkpt lat="43.29669" lon="2.63455">
        <ele>117.40000152588</ele>
        <time>2022-01-03T14:33:18.000Z</time>
      </trkpt>
      <trkpt lat="43.29668" lon="2.63457">
        <ele>117.40000152588</ele>
        <time>2022-01-03T14:33:19.000Z</time>
      </trkpt>
      <trkpt lat="43.29666" lon="2.63459">
        <ele>117.40000152588</ele>
        <time>2022-01-03T14:33:21.000Z</time>
      </trkpt>
      <trkpt lat="43.29654" lon="2.63475">
        <ele>117.40000152588</ele>
        <time>2022-01-03T14:33:33.000Z</time>
      </trkpt>
      <trkpt lat="43.29649" lon="2.63482">
        <ele>118</ele>
        <time>2022-01-03T14:33:38.000Z</time>
      </trkpt>
      <trkpt lat="43.29644" lon="2.63489">
        <ele>118</ele>
        <time>2022-01-03T14:33:43.000Z</time>
      </trkpt>
      <trkpt lat="43.29641" lon="2.63494">
        <ele>118.59999847412</ele>
        <time>2022-01-03T14:33:47.000Z</time>
      </trkpt>
      <trkpt lat="43.2964" lon="2.63494">
        <ele>118.59999847412</ele>
        <time>2022-01-03T14:33:48.000Z</time>
      </trkpt>
      <trkpt lat="43.29638" lon="2.63497">
        <ele>118.80000305176</ele>
        <time>2022-01-03T14:33:50.000Z</time>
      </trkpt>
      <trkpt lat="43.29632" lon="2.63503">
        <ele>118.40000152588</ele>
        <time>2022-01-03T14:33:56.000Z</time>
      </trkpt>
      <trkpt lat="43.29627" lon="2.63509">
        <ele>117.80000305176</ele>
        <time>2022-01-03T14:34:01.000Z</time>
      </trkpt>
      <trkpt lat="43.29626" lon="2.6351">
        <ele>117.40000152588</ele>
        <time>2022-01-03T14:34:02.000Z</time>
      </trkpt>
      <trkpt lat="43.2962" lon="2.63517">
        <ele>116.59999847412</ele>
        <time>2022-01-03T14:34:07.000Z</time>
      </trkpt>
      <trkpt lat="43.29619" lon="2.63519">
        <ele>116.19999694824</ele>
        <time>2022-01-03T14:34:08.000Z</time>
      </trkpt>
      <trkpt lat="43.29615" lon="2.63526">
        <ele>116.19999694824</ele>
        <time>2022-01-03T14:34:13.000Z</time>
      </trkpt>
      <trkpt lat="43.29614" lon="2.63527">
        <ele>116</ele>
        <time>2022-01-03T14:34:14.000Z</time>
      </trkpt>
      <trkpt lat="43.29607" lon="2.63539">
        <ele>116</ele>
        <time>2022-01-03T14:34:24.000Z</time>
      </trkpt>
      <trkpt lat="43.296" lon="2.63549">
        <ele>116.19999694824</ele>
        <time>2022-01-03T14:34:32.000Z</time>
      </trkpt>
      <trkpt lat="43.29599" lon="2.63551">
        <ele>116.40000152588</ele>
        <time>2022-01-03T14:34:34.000Z</time>
      </trkpt>
      <trkpt lat="43.29593" lon="2.63567">
        <ele>116.59999847412</ele>
        <time>2022-01-03T14:34:43.000Z</time>
      </trkpt>
      <trkpt lat="43.29591" lon="2.63572">
        <ele>116.40000152588</ele>
        <time>2022-01-03T14:34:46.000Z</time>
      </trkpt>
      <trkpt lat="43.29588" lon="2.63583">
        <ele>116.19999694824</ele>
        <time>2022-01-03T14:34:52.000Z</time>
      </trkpt>
      <trkpt lat="43.29587" lon="2.63586">
        <ele>116</ele>
        <time>2022-01-03T14:34:54.000Z</time>
      </trkpt>
      <trkpt lat="43.29584" lon="2.63594">
        <ele>115.19999694824</ele>
        <time>2022-01-03T14:34:58.000Z</time>
      </trkpt>
      <trkpt lat="43.29583" lon="2.63596">
        <ele>114.80000305176</ele>
        <time>2022-01-03T14:35:00.000Z</time>
      </trkpt>
      <trkpt lat="43.29582" lon="2.63598">
        <ele>114.59999847412</ele>
        <time>2022-01-03T14:35:02.000Z</time>
      </trkpt>
      <trkpt lat="43.29582" lon="2.636">
        <ele>114.40000152588</ele>
        <time>2022-01-03T14:35:03.000Z</time>
      </trkpt>
      <trkpt lat="43.29581" lon="2.63603">
        <ele>114.40000152588</ele>
        <time>2022-01-03T14:35:05.000Z</time>
      </trkpt>
      <trkpt lat="43.29579" lon="2.63608">
        <ele>114.80000305176</ele>
        <time>2022-01-03T14:35:09.000Z</time>
      </trkpt>
      <trkpt lat="43.29574" lon="2.63618">
        <ele>115</ele>
        <time>2022-01-03T14:35:15.000Z</time>
      </trkpt>
      <trkpt lat="43.29571" lon="2.63627">
        <ele>115.40000152588</ele>
        <time>2022-01-03T14:35:19.000Z</time>
      </trkpt>
      <trkpt lat="43.29567" lon="2.63647">
        <ele>116.19999694824</ele>
        <time>2022-01-03T14:35:29.000Z</time>
      </trkpt>
      <trkpt lat="43.29565" lon="2.63654">
        <ele>116.40000152588</ele>
        <time>2022-01-03T14:35:33.000Z</time>
      </trkpt>
      <trkpt lat="43.29564" lon="2.63663">
        <ele>116.59999847412</ele>
        <time>2022-01-03T14:35:38.000Z</time>
      </trkpt>
      <trkpt lat="43.29563" lon="2.63671">
        <ele>117</ele>
        <time>2022-01-03T14:35:42.000Z</time>
      </trkpt>
      <trkpt lat="43.29561" lon="2.63687">
        <ele>116.80000305176</ele>
        <time>2022-01-03T14:35:51.000Z</time>
      </trkpt>
      <trkpt lat="43.2956" lon="2.63689">
        <ele>117</ele>
        <time>2022-01-03T14:35:52.000Z</time>
      </trkpt>
      <trkpt lat="43.29553" lon="2.6371">
        <ele>116</ele>
        <time>2022-01-03T14:36:04.000Z</time>
      </trkpt>
      <trkpt lat="43.2955" lon="2.63719">
        <ele>116.19999694824</ele>
        <time>2022-01-03T14:36:10.000Z</time>
      </trkpt>
      <trkpt lat="43.29548" lon="2.63723">
        <ele>116.19999694824</ele>
        <time>2022-01-03T14:36:13.000Z</time>
      </trkpt>
      <trkpt lat="43.29545" lon="2.6373">
        <ele>116.19999694824</ele>
        <time>2022-01-03T14:36:17.000Z</time>
      </trkpt>
      <trkpt lat="43.29544" lon="2.63735">
        <ele>116.19999694824</ele>
        <time>2022-01-03T14:36:20.000Z</time>
      </trkpt>
      <trkpt lat="43.29542" lon="2.63741">
        <ele>116</ele>
        <time>2022-01-03T14:36:24.000Z</time>
      </trkpt>
      <trkpt lat="43.29539" lon="2.63749">
        <ele>115.19999694824</ele>
        <time>2022-01-03T14:36:29.000Z</time>
      </trkpt>
      <trkpt lat="43.29536" lon="2.63761">
        <ele>114.19999694824</ele>
        <time>2022-01-03T14:36:36.000Z</time>
      </trkpt>
      <trkpt lat="43.29535" lon="2.63762">
        <ele>114.19999694824</ele>
        <time>2022-01-03T14:36:37.000Z</time>
      </trkpt>
      <trkpt lat="43.29528" lon="2.63778">
        <ele>114.59999847412</ele>
        <time>2022-01-03T14:36:47.000Z</time>
      </trkpt>
      <trkpt lat="43.29527" lon="2.63779">
        <ele>114.80000305176</ele>
        <time>2022-01-03T14:36:48.000Z</time>
      </trkpt>
      <trkpt lat="43.29527" lon="2.63781">
        <ele>114.80000305176</ele>
        <time>2022-01-03T14:36:49.000Z</time>
      </trkpt>
      <trkpt lat="43.29526" lon="2.63783">
        <ele>115</ele>
        <time>2022-01-03T14:36:50.000Z</time>
      </trkpt>
      <trkpt lat="43.29525" lon="2.63784">
        <ele>114.80000305176</ele>
        <time>2022-01-03T14:36:51.000Z</time>
      </trkpt>
      <trkpt lat="43.29522" lon="2.63791">
        <ele>114.40000152588</ele>
        <time>2022-01-03T14:36:55.000Z</time>
      </trkpt>
      <trkpt lat="43.29521" lon="2.63794">
        <ele>114.19999694824</ele>
        <time>2022-01-03T14:36:57.000Z</time>
      </trkpt>
      <trkpt lat="43.29518" lon="2.63801">
        <ele>114.59999847412</ele>
        <time>2022-01-03T14:37:01.000Z</time>
      </trkpt>
      <trkpt lat="43.29513" lon="2.63812">
        <ele>115.19999694824</ele>
        <time>2022-01-03T14:37:08.000Z</time>
      </trkpt>
      <trkpt lat="43.2951" lon="2.63817">
        <ele>115.40000152588</ele>
        <time>2022-01-03T14:37:11.000Z</time>
      </trkpt>
      <trkpt lat="43.29506" lon="2.63826">
        <ele>115.40000152588</ele>
        <time>2022-01-03T14:37:18.000Z</time>
      </trkpt>
      <trkpt lat="43.29505" lon="2.63829">
        <ele>115</ele>
        <time>2022-01-03T14:37:20.000Z</time>
      </trkpt>
      <trkpt lat="43.29501" lon="2.63836">
        <ele>114.80000305176</ele>
        <time>2022-01-03T14:37:24.000Z</time>
      </trkpt>
      <trkpt lat="43.29499" lon="2.63841">
        <ele>114.80000305176</ele>
        <time>2022-01-03T14:37:27.000Z</time>
      </trkpt>
      <trkpt lat="43.29497" lon="2.63844">
        <ele>115.40000152588</ele>
        <time>2022-01-03T14:37:29.000Z</time>
      </trkpt>
      <trkpt lat="43.29491" lon="2.63855">
        <ele>115.59999847412</ele>
        <time>2022-01-03T14:37:37.000Z</time>
      </trkpt>
      <trkpt lat="43.2949" lon="2.63857">
        <ele>115.40000152588</ele>
        <time>2022-01-03T14:37:38.000Z</time>
      </trkpt>
      <trkpt lat="43.29486" lon="2.63867">
        <ele>114.59999847412</ele>
        <time>2022-01-03T14:37:44.000Z</time>
      </trkpt>
      <trkpt lat="43.29485" lon="2.63868">
        <ele>114.19999694824</ele>
        <time>2022-01-03T14:37:45.000Z</time>
      </trkpt>
      <trkpt lat="43.29484" lon="2.63871">
        <ele>114.19999694824</ele>
        <time>2022-01-03T14:37:47.000Z</time>
      </trkpt>
      <trkpt lat="43.29482" lon="2.63878">
        <ele>113.19999694824</ele>
        <time>2022-01-03T14:37:51.000Z</time>
      </trkpt>
      <trkpt lat="43.29479" lon="2.63886">
        <ele>112.80000305176</ele>
        <time>2022-01-03T14:37:55.000Z</time>
      </trkpt>
      <trkpt lat="43.29477" lon="2.63891">
        <ele>112.59999847412</ele>
        <time>2022-01-03T14:37:58.000Z</time>
      </trkpt>
      <trkpt lat="43.29477" lon="2.63894">
        <ele>112.40000152588</ele>
        <time>2022-01-03T14:38:00.000Z</time>
      </trkpt>
      <trkpt lat="43.29476" lon="2.63899">
        <ele>112.19999694824</ele>
        <time>2022-01-03T14:38:03.000Z</time>
      </trkpt>
      <trkpt lat="43.29475" lon="2.63902">
        <ele>111.40000152588</ele>
        <time>2022-01-03T14:38:06.000Z</time>
      </trkpt>
      <trkpt lat="43.29474" lon="2.63902">
        <ele>111.19999694824</ele>
        <time>2022-01-03T14:38:08.000Z</time>
      </trkpt>
      <trkpt lat="43.29473" lon="2.63903">
        <ele>111</ele>
        <time>2022-01-03T14:38:10.000Z</time>
      </trkpt>
      <trkpt lat="43.29473" lon="2.63904">
        <ele>111.59999847412</ele>
        <time>2022-01-03T14:38:13.000Z</time>
      </trkpt>
      <trkpt lat="43.29474" lon="2.63905">
        <ele>112</ele>
        <time>2022-01-03T14:38:17.000Z</time>
      </trkpt>
      <trkpt lat="43.29474" lon="2.63905">
        <ele>112.19999694824</ele>
        <time>2022-01-03T14:38:20.000Z</time>
      </trkpt>
      <trkpt lat="43.29474" lon="2.63907">
        <ele>111.80000305176</ele>
        <time>2022-01-03T14:38:24.000Z</time>
      </trkpt>
      <trkpt lat="43.29475" lon="2.63915">
        <ele>111.59999847412</ele>
        <time>2022-01-03T14:38:28.000Z</time>
      </trkpt>
      <trkpt lat="43.29476" lon="2.63918">
        <ele>111</ele>
        <time>2022-01-03T14:38:30.000Z</time>
      </trkpt>
      <trkpt lat="43.29479" lon="2.6393">
        <ele>111.19999694824</ele>
        <time>2022-01-03T14:38:36.000Z</time>
      </trkpt>
      <trkpt lat="43.29485" lon="2.63949">
        <ele>111.40000152588</ele>
        <time>2022-01-03T14:38:48.000Z</time>
      </trkpt>
      <trkpt lat="43.29485" lon="2.6395">
        <ele>111.40000152588</ele>
        <time>2022-01-03T14:38:49.000Z</time>
      </trkpt>
      <trkpt lat="43.29491" lon="2.63964">
        <ele>111.40000152588</ele>
        <time>2022-01-03T14:38:58.000Z</time>
      </trkpt>
      <trkpt lat="43.29495" lon="2.63977">
        <ele>110.80000305176</ele>
        <time>2022-01-03T14:39:06.000Z</time>
      </trkpt>
      <trkpt lat="43.29498" lon="2.63985">
        <ele>110.80000305176</ele>
        <time>2022-01-03T14:39:11.000Z</time>
      </trkpt>
      <trkpt lat="43.29503" lon="2.63996">
        <ele>111</ele>
        <time>2022-01-03T14:39:19.000Z</time>
      </trkpt>
      <trkpt lat="43.29506" lon="2.64008">
        <ele>110.80000305176</ele>
        <time>2022-01-03T14:39:26.000Z</time>
      </trkpt>
      <trkpt lat="43.29508" lon="2.64013">
        <ele>110.80000305176</ele>
        <time>2022-01-03T14:39:29.000Z</time>
      </trkpt>
      <trkpt lat="43.29509" lon="2.64021">
        <ele>112.19999694824</ele>
        <time>2022-01-03T14:39:34.000Z</time>
      </trkpt>
      <trkpt lat="43.29509" lon="2.64023">
        <ele>112.40000152588</ele>
        <time>2022-01-03T14:39:35.000Z</time>
      </trkpt>
      <trkpt lat="43.29511" lon="2.64029">
        <ele>112.80000305176</ele>
        <time>2022-01-03T14:39:39.000Z</time>
      </trkpt>
      <trkpt lat="43.29511" lon="2.64031">
        <ele>112.59999847412</ele>
        <time>2022-01-03T14:39:40.000Z</time>
      </trkpt>
      <trkpt lat="43.29512" lon="2.64033">
        <ele>112.80000305176</ele>
        <time>2022-01-03T14:39:41.000Z</time>
      </trkpt>
      <trkpt lat="43.29514" lon="2.64037">
        <ele>112.80000305176</ele>
        <time>2022-01-03T14:39:44.000Z</time>
      </trkpt>
      <trkpt lat="43.29516" lon="2.64041">
        <ele>112.59999847412</ele>
        <time>2022-01-03T14:39:47.000Z</time>
      </trkpt>
      <trkpt lat="43.29521" lon="2.64051">
        <ele>112.80000305176</ele>
        <time>2022-01-03T14:39:54.000Z</time>
      </trkpt>
      <trkpt lat="43.29527" lon="2.64072">
        <ele>113.19999694824</ele>
        <time>2022-01-03T14:40:07.000Z</time>
      </trkpt>
      <trkpt lat="43.29532" lon="2.64086">
        <ele>113.40000152588</ele>
        <time>2022-01-03T14:40:16.000Z</time>
      </trkpt>
      <trkpt lat="43.29536" lon="2.64095">
        <ele>113</ele>
        <time>2022-01-03T14:40:22.000Z</time>
      </trkpt>
      <trkpt lat="43.29538" lon="2.641">
        <ele>112.80000305176</ele>
        <time>2022-01-03T14:40:25.000Z</time>
      </trkpt>
      <trkpt lat="43.2954" lon="2.64104">
        <ele>112.19999694824</ele>
        <time>2022-01-03T14:40:28.000Z</time>
      </trkpt>
      <trkpt lat="43.29543" lon="2.64113">
        <ele>111.40000152588</ele>
        <time>2022-01-03T14:40:33.000Z</time>
      </trkpt>
      <trkpt lat="43.29544" lon="2.64116">
        <ele>111</ele>
        <time>2022-01-03T14:40:35.000Z</time>
      </trkpt>
      <trkpt lat="43.29545" lon="2.64119">
        <ele>110.59999847412</ele>
        <time>2022-01-03T14:40:37.000Z</time>
      </trkpt>
      <trkpt lat="43.29547" lon="2.64121">
        <ele>110.40000152588</ele>
        <time>2022-01-03T14:40:39.000Z</time>
      </trkpt>
      <trkpt lat="43.29548" lon="2.64125">
        <ele>110.40000152588</ele>
        <time>2022-01-03T14:40:42.000Z</time>
      </trkpt>
      <trkpt lat="43.29549" lon="2.64131">
        <ele>110.59999847412</ele>
        <time>2022-01-03T14:40:45.000Z</time>
      </trkpt>
      <trkpt lat="43.29553" lon="2.64145">
        <ele>111.40000152588</ele>
        <time>2022-01-03T14:40:53.000Z</time>
      </trkpt>
      <trkpt lat="43.29555" lon="2.64149">
        <ele>112.19999694824</ele>
        <time>2022-01-03T14:40:56.000Z</time>
      </trkpt>
      <trkpt lat="43.29556" lon="2.64155">
        <ele>112.59999847412</ele>
        <time>2022-01-03T14:41:00.000Z</time>
      </trkpt>
      <trkpt lat="43.29557" lon="2.64162">
        <ele>112.80000305176</ele>
        <time>2022-01-03T14:41:04.000Z</time>
      </trkpt>
      <trkpt lat="43.29558" lon="2.64163">
        <ele>113</ele>
        <time>2022-01-03T14:41:05.000Z</time>
      </trkpt>
      <trkpt lat="43.29565" lon="2.64181">
        <ele>111.40000152588</ele>
        <time>2022-01-03T14:41:17.000Z</time>
      </trkpt>
      <trkpt lat="43.29566" lon="2.64184">
        <ele>111</ele>
        <time>2022-01-03T14:41:19.000Z</time>
      </trkpt>
      <trkpt lat="43.29567" lon="2.64188">
        <ele>110.80000305176</ele>
        <time>2022-01-03T14:41:21.000Z</time>
      </trkpt>
      <trkpt lat="43.2957" lon="2.64196">
        <ele>110.19999694824</ele>
        <time>2022-01-03T14:41:27.000Z</time>
      </trkpt>
      <trkpt lat="43.29572" lon="2.64202">
        <ele>110.19999694824</ele>
        <time>2022-01-03T14:41:31.000Z</time>
      </trkpt>
      <trkpt lat="43.29574" lon="2.64207">
        <ele>110.59999847412</ele>
        <time>2022-01-03T14:41:34.000Z</time>
      </trkpt>
      <trkpt lat="43.29576" lon="2.64214">
        <ele>110.59999847412</ele>
        <time>2022-01-03T14:41:38.000Z</time>
      </trkpt>
      <trkpt lat="43.29576" lon="2.64215">
        <ele>110.59999847412</ele>
        <time>2022-01-03T14:41:39.000Z</time>
      </trkpt>
      <trkpt lat="43.29578" lon="2.64219">
        <ele>110.40000152588</ele>
        <time>2022-01-03T14:41:42.000Z</time>
      </trkpt>
      <trkpt lat="43.29579" lon="2.64223">
        <ele>110.19999694824</ele>
        <time>2022-01-03T14:41:44.000Z</time>
      </trkpt>
      <trkpt lat="43.29582" lon="2.64228">
        <ele>110</ele>
        <time>2022-01-03T14:41:48.000Z</time>
      </trkpt>
      <trkpt lat="43.29583" lon="2.64232">
        <ele>110</ele>
        <time>2022-01-03T14:41:51.000Z</time>
      </trkpt>
      <trkpt lat="43.29585" lon="2.64235">
        <ele>110</ele>
        <time>2022-01-03T14:41:53.000Z</time>
      </trkpt>
      <trkpt lat="43.29591" lon="2.64251">
        <ele>110</ele>
        <time>2022-01-03T14:42:03.000Z</time>
      </trkpt>
      <trkpt lat="43.29591" lon="2.64253">
        <ele>110</ele>
        <time>2022-01-03T14:42:04.000Z</time>
      </trkpt>
      <trkpt lat="43.29598" lon="2.64272">
        <ele>110.40000152588</ele>
        <time>2022-01-03T14:42:17.000Z</time>
      </trkpt>
      <trkpt lat="43.29599" lon="2.64274">
        <ele>110.40000152588</ele>
        <time>2022-01-03T14:42:18.000Z</time>
      </trkpt>
      <trkpt lat="43.29599" lon="2.64275">
        <ele>110.40000152588</ele>
        <time>2022-01-03T14:42:19.000Z</time>
      </trkpt>
      <trkpt lat="43.29601" lon="2.64284">
        <ele>110.59999847412</ele>
        <time>2022-01-03T14:42:25.000Z</time>
      </trkpt>
      <trkpt lat="43.29602" lon="2.64286">
        <ele>110.80000305176</ele>
        <time>2022-01-03T14:42:26.000Z</time>
      </trkpt>
      <trkpt lat="43.29606" lon="2.64295">
        <ele>110.80000305176</ele>
        <time>2022-01-03T14:42:33.000Z</time>
      </trkpt>
      <trkpt lat="43.2961" lon="2.64304">
        <ele>110.59999847412</ele>
        <time>2022-01-03T14:42:39.000Z</time>
      </trkpt>
      <trkpt lat="43.29616" lon="2.64314">
        <ele>110.19999694824</ele>
        <time>2022-01-03T14:42:47.000Z</time>
      </trkpt>
      <trkpt lat="43.29617" lon="2.64316">
        <ele>110</ele>
        <time>2022-01-03T14:42:49.000Z</time>
      </trkpt>
      <trkpt lat="43.29619" lon="2.64323">
        <ele>109.80000305176</ele>
        <time>2022-01-03T14:42:54.000Z</time>
      </trkpt>
      <trkpt lat="43.29622" lon="2.64327">
        <ele>109.59999847412</ele>
        <time>2022-01-03T14:42:57.000Z</time>
      </trkpt>
      <trkpt lat="43.29622" lon="2.64328">
        <ele>109.80000305176</ele>
        <time>2022-01-03T14:42:58.000Z</time>
      </trkpt>
      <trkpt lat="43.29631" lon="2.64343">
        <ele>109.40000152588</ele>
        <time>2022-01-03T14:43:09.000Z</time>
      </trkpt>
      <trkpt lat="43.29633" lon="2.64345">
        <ele>109.40000152588</ele>
        <time>2022-01-03T14:43:11.000Z</time>
      </trkpt>
      <trkpt lat="43.2964" lon="2.64362">
        <ele>109.59999847412</ele>
        <time>2022-01-03T14:43:22.000Z</time>
      </trkpt>
      <trkpt lat="43.29648" lon="2.64376">
        <ele>109.80000305176</ele>
        <time>2022-01-03T14:43:33.000Z</time>
      </trkpt>
      <trkpt lat="43.2965" lon="2.6438">
        <ele>110.19999694824</ele>
        <time>2022-01-03T14:43:36.000Z</time>
      </trkpt>
      <trkpt lat="43.29655" lon="2.64386">
        <ele>110.80000305176</ele>
        <time>2022-01-03T14:43:41.000Z</time>
      </trkpt>
      <trkpt lat="43.29655" lon="2.64389">
        <ele>111.19999694824</ele>
        <time>2022-01-03T14:43:43.000Z</time>
      </trkpt>
      <trkpt lat="43.29656" lon="2.6439">
        <ele>111.40000152588</ele>
        <time>2022-01-03T14:43:44.000Z</time>
      </trkpt>
      <trkpt lat="43.29658" lon="2.64393">
        <ele>111.80000305176</ele>
        <time>2022-01-03T14:43:46.000Z</time>
      </trkpt>
      <trkpt lat="43.29658" lon="2.64394">
        <ele>111.40000152588</ele>
        <time>2022-01-03T14:43:47.000Z</time>
      </trkpt>
      <trkpt lat="43.29659" lon="2.64396">
        <ele>111.59999847412</ele>
        <time>2022-01-03T14:43:48.000Z</time>
      </trkpt>
      <trkpt lat="43.29661" lon="2.64398">
        <ele>111.80000305176</ele>
        <time>2022-01-03T14:43:49.000Z</time>
      </trkpt>
      <trkpt lat="43.29662" lon="2.64399">
        <ele>111.80000305176</ele>
        <time>2022-01-03T14:43:51.000Z</time>
      </trkpt>
      <trkpt lat="43.29666" lon="2.64407">
        <ele>111.40000152588</ele>
        <time>2022-01-03T14:43:56.000Z</time>
      </trkpt>
      <trkpt lat="43.29666" lon="2.64408">
        <ele>111.19999694824</ele>
        <time>2022-01-03T14:43:57.000Z</time>
      </trkpt>
      <trkpt lat="43.29666" lon="2.64409">
        <ele>111</ele>
        <time>2022-01-03T14:43:58.000Z</time>
      </trkpt>
      <trkpt lat="43.29666" lon="2.64411">
        <ele>110.80000305176</ele>
        <time>2022-01-03T14:44:00.000Z</time>
      </trkpt>
      <trkpt lat="43.29665" lon="2.64413">
        <ele>110.80000305176</ele>
        <time>2022-01-03T14:44:02.000Z</time>
      </trkpt>
      <trkpt lat="43.29666" lon="2.64414">
        <ele>110.59999847412</ele>
        <time>2022-01-03T14:44:03.000Z</time>
      </trkpt>
      <trkpt lat="43.29673" lon="2.64425">
        <ele>112</ele>
        <time>2022-01-03T14:44:11.000Z</time>
      </trkpt>
      <trkpt lat="43.29673" lon="2.64427">
        <ele>112.19999694824</ele>
        <time>2022-01-03T14:44:12.000Z</time>
      </trkpt>
      <trkpt lat="43.29674" lon="2.64431">
        <ele>112.40000152588</ele>
        <time>2022-01-03T14:44:15.000Z</time>
      </trkpt>
      <trkpt lat="43.29676" lon="2.64436">
        <ele>111.80000305176</ele>
        <time>2022-01-03T14:44:18.000Z</time>
      </trkpt>
      <trkpt lat="43.29677" lon="2.64442">
        <ele>111.40000152588</ele>
        <time>2022-01-03T14:44:24.000Z</time>
      </trkpt>
      <trkpt lat="43.29677" lon="2.64441">
        <ele>111.40000152588</ele>
        <time>2022-01-03T14:44:25.000Z</time>
      </trkpt>
      <trkpt lat="43.2968" lon="2.64446">
        <ele>111.40000152588</ele>
        <time>2022-01-03T14:44:32.000Z</time>
      </trkpt>
      <trkpt lat="43.2968" lon="2.64448">
        <ele>111</ele>
        <time>2022-01-03T14:44:34.000Z</time>
      </trkpt>
      <trkpt lat="43.29681" lon="2.64451">
        <ele>111</ele>
        <time>2022-01-03T14:44:36.000Z</time>
      </trkpt>
      <trkpt lat="43.29681" lon="2.64453">
        <ele>111</ele>
        <time>2022-01-03T14:44:39.000Z</time>
      </trkpt>
      <trkpt lat="43.29681" lon="2.64453">
        <ele>111</ele>
        <time>2022-01-03T14:44:40.000Z</time>
      </trkpt>
      <trkpt lat="43.29681" lon="2.64453">
        <ele>111</ele>
        <time>2022-01-03T14:44:41.000Z</time>
      </trkpt>
      <trkpt lat="43.29681" lon="2.64453">
        <ele>110.80000305176</ele>
        <time>2022-01-03T14:44:44.000Z</time>
      </trkpt>
      <trkpt lat="43.29681" lon="2.64453">
        <ele>110.59999847412</ele>
        <time>2022-01-03T14:44:58.000Z</time>
      </trkpt>
      <trkpt lat="43.29681" lon="2.64453">
        <ele>110.40000152588</ele>
        <time>2022-01-03T14:45:06.000Z</time>
      </trkpt>
      <trkpt lat="43.29685" lon="2.64464">
        <ele>110.19999694824</ele>
        <time>2022-01-03T14:45:14.000Z</time>
      </trkpt>
      <trkpt lat="43.29686" lon="2.64466">
        <ele>110</ele>
        <time>2022-01-03T14:45:15.000Z</time>
      </trkpt>
      <trkpt lat="43.29692" lon="2.6448">
        <ele>109.40000152588</ele>
        <time>2022-01-03T14:45:22.000Z</time>
      </trkpt>
      <trkpt lat="43.29693" lon="2.64485">
        <ele>109.40000152588</ele>
        <time>2022-01-03T14:45:25.000Z</time>
      </trkpt>
      <trkpt lat="43.29693" lon="2.64489">
        <ele>109</ele>
        <time>2022-01-03T14:45:27.000Z</time>
      </trkpt>
      <trkpt lat="43.29695" lon="2.64497">
        <ele>109</ele>
        <time>2022-01-03T14:45:31.000Z</time>
      </trkpt>
      <trkpt lat="43.29696" lon="2.645">
        <ele>109</ele>
        <time>2022-01-03T14:45:33.000Z</time>
      </trkpt>
      <trkpt lat="43.29697" lon="2.64503">
        <ele>109</ele>
        <time>2022-01-03T14:45:35.000Z</time>
      </trkpt>
      <trkpt lat="43.29701" lon="2.6451">
        <ele>109.19999694824</ele>
        <time>2022-01-03T14:45:40.000Z</time>
      </trkpt>
      <trkpt lat="43.29702" lon="2.64515">
        <ele>109</ele>
        <time>2022-01-03T14:45:43.000Z</time>
      </trkpt>
      <trkpt lat="43.29707" lon="2.64533">
        <ele>108.40000152588</ele>
        <time>2022-01-03T14:45:53.000Z</time>
      </trkpt>
      <trkpt lat="43.29713" lon="2.64545">
        <ele>108.19999694824</ele>
        <time>2022-01-03T14:46:02.000Z</time>
      </trkpt>
      <trkpt lat="43.29716" lon="2.6455">
        <ele>108</ele>
        <time>2022-01-03T14:46:05.000Z</time>
      </trkpt>
      <trkpt lat="43.29719" lon="2.64556">
        <ele>107.80000305176</ele>
        <time>2022-01-03T14:46:09.000Z</time>
      </trkpt>
      <trkpt lat="43.29723" lon="2.64562">
        <ele>107</ele>
        <time>2022-01-03T14:46:14.000Z</time>
      </trkpt>
      <trkpt lat="43.29726" lon="2.64568">
        <ele>106.59999847412</ele>
        <time>2022-01-03T14:46:18.000Z</time>
      </trkpt>
      <trkpt lat="43.29738" lon="2.64583">
        <ele>107.59999847412</ele>
        <time>2022-01-03T14:46:30.000Z</time>
      </trkpt>
      <trkpt lat="43.2974" lon="2.64586">
        <ele>107.59999847412</ele>
        <time>2022-01-03T14:46:32.000Z</time>
      </trkpt>
      <trkpt lat="43.29742" lon="2.64589">
        <ele>107.59999847412</ele>
        <time>2022-01-03T14:46:35.000Z</time>
      </trkpt>
      <trkpt lat="43.29744" lon="2.64592">
        <ele>107.80000305176</ele>
        <time>2022-01-03T14:46:37.000Z</time>
      </trkpt>
      <trkpt lat="43.29747" lon="2.64598">
        <ele>107.40000152588</ele>
        <time>2022-01-03T14:46:41.000Z</time>
      </trkpt>
      <trkpt lat="43.29753" lon="2.64607">
        <ele>107.59999847412</ele>
        <time>2022-01-03T14:46:47.000Z</time>
      </trkpt>
      <trkpt lat="43.29754" lon="2.64608">
        <ele>107.59999847412</ele>
        <time>2022-01-03T14:46:48.000Z</time>
      </trkpt>
      <trkpt lat="43.29758" lon="2.64617">
        <ele>107.80000305176</ele>
        <time>2022-01-03T14:46:54.000Z</time>
      </trkpt>
      <trkpt lat="43.29759" lon="2.64619">
        <ele>107.80000305176</ele>
        <time>2022-01-03T14:46:56.000Z</time>
      </trkpt>
      <trkpt lat="43.2976" lon="2.64621">
        <ele>108</ele>
        <time>2022-01-03T14:46:57.000Z</time>
      </trkpt>
      <trkpt lat="43.29762" lon="2.64624">
        <ele>108</ele>
        <time>2022-01-03T14:46:59.000Z</time>
      </trkpt>
      <trkpt lat="43.29768" lon="2.6464">
        <ele>108.40000152588</ele>
        <time>2022-01-03T14:47:09.000Z</time>
      </trkpt>
      <trkpt lat="43.29775" lon="2.64658">
        <ele>107.59999847412</ele>
        <time>2022-01-03T14:47:21.000Z</time>
      </trkpt>
      <trkpt lat="43.2978" lon="2.64669">
        <ele>107.59999847412</ele>
        <time>2022-01-03T14:47:29.000Z</time>
      </trkpt>
      <trkpt lat="43.29784" lon="2.64676">
        <ele>107</ele>
        <time>2022-01-03T14:47:34.000Z</time>
      </trkpt>
      <trkpt lat="43.29788" lon="2.64685">
        <ele>106.19999694824</ele>
        <time>2022-01-03T14:47:40.000Z</time>
      </trkpt>
      <trkpt lat="43.29796" lon="2.64698">
        <ele>106.59999847412</ele>
        <time>2022-01-03T14:47:49.000Z</time>
      </trkpt>
      <trkpt lat="43.29802" lon="2.64706">
        <ele>106</ele>
        <time>2022-01-03T14:47:55.000Z</time>
      </trkpt>
      <trkpt lat="43.29804" lon="2.64708">
        <ele>105.80000305176</ele>
        <time>2022-01-03T14:47:57.000Z</time>
      </trkpt>
      <trkpt lat="43.29805" lon="2.64711">
        <ele>105.59999847412</ele>
        <time>2022-01-03T14:47:59.000Z</time>
      </trkpt>
      <trkpt lat="43.29809" lon="2.64715">
        <ele>106</ele>
        <time>2022-01-03T14:48:03.000Z</time>
      </trkpt>
      <trkpt lat="43.29815" lon="2.64721">
        <ele>106</ele>
        <time>2022-01-03T14:48:09.000Z</time>
      </trkpt>
      <trkpt lat="43.29818" lon="2.64724">
        <ele>106.40000152588</ele>
        <time>2022-01-03T14:48:12.000Z</time>
      </trkpt>
      <trkpt lat="43.29828" lon="2.64731">
        <ele>105.19999694824</ele>
        <time>2022-01-03T14:48:21.000Z</time>
      </trkpt>
      <trkpt lat="43.29831" lon="2.64733">
        <ele>105</ele>
        <time>2022-01-03T14:48:23.000Z</time>
      </trkpt>
      <trkpt lat="43.29841" lon="2.64741">
        <ele>105</ele>
        <time>2022-01-03T14:48:33.000Z</time>
      </trkpt>
      <trkpt lat="43.29843" lon="2.64742">
        <ele>105</ele>
        <time>2022-01-03T14:48:35.000Z</time>
      </trkpt>
      <trkpt lat="43.29847" lon="2.64744">
        <ele>104.80000305176</ele>
        <time>2022-01-03T14:48:38.000Z</time>
      </trkpt>
      <trkpt lat="43.29852" lon="2.64751">
        <ele>104.80000305176</ele>
        <time>2022-01-03T14:48:45.000Z</time>
      </trkpt>
      <trkpt lat="43.29853" lon="2.64752">
        <ele>105</ele>
        <time>2022-01-03T14:48:46.000Z</time>
      </trkpt>
      <trkpt lat="43.29857" lon="2.64755">
        <ele>105.19999694824</ele>
        <time>2022-01-03T14:48:50.000Z</time>
      </trkpt>
      <trkpt lat="43.29862" lon="2.64761">
        <ele>106.40000152588</ele>
        <time>2022-01-03T14:48:56.000Z</time>
      </trkpt>
      <trkpt lat="43.29866" lon="2.64763">
        <ele>106.80000305176</ele>
        <time>2022-01-03T14:48:59.000Z</time>
      </trkpt>
      <trkpt lat="43.29869" lon="2.64766">
        <ele>107</ele>
        <time>2022-01-03T14:49:02.000Z</time>
      </trkpt>
      <trkpt lat="43.29874" lon="2.64769">
        <ele>107.40000152588</ele>
        <time>2022-01-03T14:49:06.000Z</time>
      </trkpt>
      <trkpt lat="43.29884" lon="2.64777">
        <ele>106.80000305176</ele>
        <time>2022-01-03T14:49:15.000Z</time>
      </trkpt>
      <trkpt lat="43.29895" lon="2.64786">
        <ele>106.40000152588</ele>
        <time>2022-01-03T14:49:26.000Z</time>
      </trkpt>
      <trkpt lat="43.29896" lon="2.64786">
        <ele>106.40000152588</ele>
        <time>2022-01-03T14:49:27.000Z</time>
      </trkpt>
      <trkpt lat="43.29897" lon="2.64786">
        <ele>106.59999847412</ele>
        <time>2022-01-03T14:49:30.000Z</time>
      </trkpt>
      <trkpt lat="43.29897" lon="2.64787">
        <ele>106.59999847412</ele>
        <time>2022-01-03T14:49:31.000Z</time>
      </trkpt>
      <trkpt lat="43.29898" lon="2.64792">
        <ele>106.40000152588</ele>
        <time>2022-01-03T14:49:35.000Z</time>
      </trkpt>
      <trkpt lat="43.299" lon="2.64796">
        <ele>106.40000152588</ele>
        <time>2022-01-03T14:49:38.000Z</time>
      </trkpt>
      <trkpt lat="43.29912" lon="2.64807">
        <ele>106.19999694824</ele>
        <time>2022-01-03T14:49:50.000Z</time>
      </trkpt>
      <trkpt lat="43.2992" lon="2.6482">
        <ele>105.80000305176</ele>
        <time>2022-01-03T14:50:00.000Z</time>
      </trkpt>
      <trkpt lat="43.29929" lon="2.64836">
        <ele>106.80000305176</ele>
        <time>2022-01-03T14:50:11.000Z</time>
      </trkpt>
      <trkpt lat="43.29931" lon="2.6484">
        <ele>107</ele>
        <time>2022-01-03T14:50:14.000Z</time>
      </trkpt>
      <trkpt lat="43.29939" lon="2.64858">
        <ele>107.40000152588</ele>
        <time>2022-01-03T14:50:26.000Z</time>
      </trkpt>
      <trkpt lat="43.29945" lon="2.64872">
        <ele>106.59999847412</ele>
        <time>2022-01-03T14:50:35.000Z</time>
      </trkpt>
      <trkpt lat="43.29946" lon="2.64874">
        <ele>106.40000152588</ele>
        <time>2022-01-03T14:50:37.000Z</time>
      </trkpt>
      <trkpt lat="43.29953" lon="2.64887">
        <ele>107.40000152588</ele>
        <time>2022-01-03T14:50:46.000Z</time>
      </trkpt>
      <trkpt lat="43.29954" lon="2.6489">
        <ele>107.59999847412</ele>
        <time>2022-01-03T14:50:48.000Z</time>
      </trkpt>
      <trkpt lat="43.29959" lon="2.64897">
        <ele>107.80000305176</ele>
        <time>2022-01-03T14:50:53.000Z</time>
      </trkpt>
      <trkpt lat="43.29963" lon="2.64906">
        <ele>107.59999847412</ele>
        <time>2022-01-03T14:51:00.000Z</time>
      </trkpt>
      <trkpt lat="43.29973" lon="2.64924">
        <ele>107.19999694824</ele>
        <time>2022-01-03T14:51:12.000Z</time>
      </trkpt>
      <trkpt lat="43.29974" lon="2.64927">
        <ele>107.19999694824</ele>
        <time>2022-01-03T14:51:14.000Z</time>
      </trkpt>
      <trkpt lat="43.29979" lon="2.64938">
        <ele>107.19999694824</ele>
        <time>2022-01-03T14:51:22.000Z</time>
      </trkpt>
      <trkpt lat="43.29982" lon="2.64944">
        <ele>106.80000305176</ele>
        <time>2022-01-03T14:51:26.000Z</time>
      </trkpt>
      <trkpt lat="43.29989" lon="2.64965">
        <ele>106</ele>
        <time>2022-01-03T14:51:39.000Z</time>
      </trkpt>
      <trkpt lat="43.29991" lon="2.64968">
        <ele>105.59999847412</ele>
        <time>2022-01-03T14:51:41.000Z</time>
      </trkpt>
      <trkpt lat="43.29997" lon="2.64983">
        <ele>104.80000305176</ele>
        <time>2022-01-03T14:51:50.000Z</time>
      </trkpt>
      <trkpt lat="43.30001" lon="2.64997">
        <ele>104.80000305176</ele>
        <time>2022-01-03T14:51:59.000Z</time>
      </trkpt>
      <trkpt lat="43.30002" lon="2.64998">
        <ele>104.80000305176</ele>
        <time>2022-01-03T14:52:00.000Z</time>
      </trkpt>
      <trkpt lat="43.30005" lon="2.65009">
        <ele>104.59999847412</ele>
        <time>2022-01-03T14:52:06.000Z</time>
      </trkpt>
      <trkpt lat="43.30006" lon="2.65014">
        <ele>104.40000152588</ele>
        <time>2022-01-03T14:52:09.000Z</time>
      </trkpt>
      <trkpt lat="43.30012" lon="2.65032">
        <ele>104.59999847412</ele>
        <time>2022-01-03T14:52:21.000Z</time>
      </trkpt>
      <trkpt lat="43.30016" lon="2.65044">
        <ele>105.59999847412</ele>
        <time>2022-01-03T14:52:28.000Z</time>
      </trkpt>
      <trkpt lat="43.30018" lon="2.65051">
        <ele>106.19999694824</ele>
        <time>2022-01-03T14:52:32.000Z</time>
      </trkpt>
      <trkpt lat="43.3002" lon="2.65061">
        <ele>106.59999847412</ele>
        <time>2022-01-03T14:52:38.000Z</time>
      </trkpt>
      <trkpt lat="43.3002" lon="2.65062">
        <ele>106.59999847412</ele>
        <time>2022-01-03T14:52:39.000Z</time>
      </trkpt>
      <trkpt lat="43.30021" lon="2.65064">
        <ele>105.80000305176</ele>
        <time>2022-01-03T14:52:43.000Z</time>
      </trkpt>
      <trkpt lat="43.30021" lon="2.65066">
        <ele>105.59999847412</ele>
        <time>2022-01-03T14:52:45.000Z</time>
      </trkpt>
      <trkpt lat="43.30021" lon="2.65067">
        <ele>105.59999847412</ele>
        <time>2022-01-03T14:52:46.000Z</time>
      </trkpt>
      <trkpt lat="43.30024" lon="2.6508">
        <ele>105.19999694824</ele>
        <time>2022-01-03T14:52:53.000Z</time>
      </trkpt>
      <trkpt lat="43.30028" lon="2.65096">
        <ele>105</ele>
        <time>2022-01-03T14:53:02.000Z</time>
      </trkpt>
      <trkpt lat="43.30028" lon="2.65098">
        <ele>104.59999847412</ele>
        <time>2022-01-03T14:53:04.000Z</time>
      </trkpt>
      <trkpt lat="43.30029" lon="2.651">
        <ele>104.59999847412</ele>
        <time>2022-01-03T14:53:05.000Z</time>
      </trkpt>
      <trkpt lat="43.30034" lon="2.65118">
        <ele>103.40000152588</ele>
        <time>2022-01-03T14:53:16.000Z</time>
      </trkpt>
      <trkpt lat="43.30036" lon="2.65123">
        <ele>103.19999694824</ele>
        <time>2022-01-03T14:53:19.000Z</time>
      </trkpt>
      <trkpt lat="43.3004" lon="2.65137">
        <ele>103.19999694824</ele>
        <time>2022-01-03T14:53:28.000Z</time>
      </trkpt>
      <trkpt lat="43.30041" lon="2.65138">
        <ele>103.40000152588</ele>
        <time>2022-01-03T14:53:29.000Z</time>
      </trkpt>
      <trkpt lat="43.30045" lon="2.6515">
        <ele>103.80000305176</ele>
        <time>2022-01-03T14:53:37.000Z</time>
      </trkpt>
      <trkpt lat="43.30047" lon="2.65153">
        <ele>103.40000152588</ele>
        <time>2022-01-03T14:53:39.000Z</time>
      </trkpt>
      <trkpt lat="43.30053" lon="2.65169">
        <ele>103</ele>
        <time>2022-01-03T14:53:49.000Z</time>
      </trkpt>
      <trkpt lat="43.30056" lon="2.65175">
        <ele>103.40000152588</ele>
        <time>2022-01-03T14:53:53.000Z</time>
      </trkpt>
      <trkpt lat="43.30059" lon="2.65186">
        <ele>103.19999694824</ele>
        <time>2022-01-03T14:54:00.000Z</time>
      </trkpt>
      <trkpt lat="43.30065" lon="2.65203">
        <ele>102.80000305176</ele>
        <time>2022-01-03T14:54:11.000Z</time>
      </trkpt>
      <trkpt lat="43.30067" lon="2.65211">
        <ele>103.19999694824</ele>
        <time>2022-01-03T14:54:16.000Z</time>
      </trkpt>
      <trkpt lat="43.30069" lon="2.65218">
        <ele>103.40000152588</ele>
        <time>2022-01-03T14:54:20.000Z</time>
      </trkpt>
      <trkpt lat="43.3007" lon="2.65221">
        <ele>103.19999694824</ele>
        <time>2022-01-03T14:54:22.000Z</time>
      </trkpt>
      <trkpt lat="43.30074" lon="2.65236">
        <ele>103</ele>
        <time>2022-01-03T14:54:31.000Z</time>
      </trkpt>
      <trkpt lat="43.30076" lon="2.65242">
        <ele>102.19999694824</ele>
        <time>2022-01-03T14:54:35.000Z</time>
      </trkpt>
      <trkpt lat="43.30076" lon="2.65244">
        <ele>102.19999694824</ele>
        <time>2022-01-03T14:54:36.000Z</time>
      </trkpt>
      <trkpt lat="43.30082" lon="2.65258">
        <ele>101.59999847412</ele>
        <time>2022-01-03T14:54:44.000Z</time>
      </trkpt>
      <trkpt lat="43.30087" lon="2.65271">
        <ele>102.19999694824</ele>
        <time>2022-01-03T14:54:53.000Z</time>
      </trkpt>
      <trkpt lat="43.30093" lon="2.65281">
        <ele>101</ele>
        <time>2022-01-03T14:55:01.000Z</time>
      </trkpt>
      <trkpt lat="43.30094" lon="2.65282">
        <ele>101</ele>
        <time>2022-01-03T14:55:02.000Z</time>
      </trkpt>
      <trkpt lat="43.30097" lon="2.65288">
        <ele>101</ele>
        <time>2022-01-03T14:55:06.000Z</time>
      </trkpt>
      <trkpt lat="43.30101" lon="2.65293">
        <ele>100.59999847412</ele>
        <time>2022-01-03T14:55:10.000Z</time>
      </trkpt>
      <trkpt lat="43.30103" lon="2.65297">
        <ele>100.19999694824</ele>
        <time>2022-01-03T14:55:13.000Z</time>
      </trkpt>
      <trkpt lat="43.30105" lon="2.653">
        <ele>100</ele>
        <time>2022-01-03T14:55:15.000Z</time>
      </trkpt>
      <trkpt lat="43.3011" lon="2.65308">
        <ele>100</ele>
        <time>2022-01-03T14:55:22.000Z</time>
      </trkpt>
      <trkpt lat="43.30118" lon="2.65318">
        <ele>100.19999694824</ele>
        <time>2022-01-03T14:55:30.000Z</time>
      </trkpt>
      <trkpt lat="43.30121" lon="2.65323">
        <ele>100.40000152588</ele>
        <time>2022-01-03T14:55:34.000Z</time>
      </trkpt>
      <trkpt lat="43.30128" lon="2.65334">
        <ele>100.40000152588</ele>
        <time>2022-01-03T14:55:43.000Z</time>
      </trkpt>
      <trkpt lat="43.30129" lon="2.65336">
        <ele>100.19999694824</ele>
        <time>2022-01-03T14:55:44.000Z</time>
      </trkpt>
      <trkpt lat="43.30136" lon="2.65348">
        <ele>100.19999694824</ele>
        <time>2022-01-03T14:55:53.000Z</time>
      </trkpt>
      <trkpt lat="43.30138" lon="2.65351">
        <ele>100.40000152588</ele>
        <time>2022-01-03T14:55:56.000Z</time>
      </trkpt>
      <trkpt lat="43.30141" lon="2.65356">
        <ele>100.59999847412</ele>
        <time>2022-01-03T14:56:00.000Z</time>
      </trkpt>
      <trkpt lat="43.30144" lon="2.65359">
        <ele>101.19999694824</ele>
        <time>2022-01-03T14:56:02.000Z</time>
      </trkpt>
      <trkpt lat="43.30145" lon="2.65361">
        <ele>101.40000152588</ele>
        <time>2022-01-03T14:56:04.000Z</time>
      </trkpt>
      <trkpt lat="43.30149" lon="2.6537">
        <ele>102.40000152588</ele>
        <time>2022-01-03T14:56:10.000Z</time>
      </trkpt>
      <trkpt lat="43.30152" lon="2.65376">
        <ele>102.19999694824</ele>
        <time>2022-01-03T14:56:14.000Z</time>
      </trkpt>
      <trkpt lat="43.30161" lon="2.65395">
        <ele>101.40000152588</ele>
        <time>2022-01-03T14:56:27.000Z</time>
      </trkpt>
      <trkpt lat="43.30161" lon="2.65396">
        <ele>101.19999694824</ele>
        <time>2022-01-03T14:56:28.000Z</time>
      </trkpt>
      <trkpt lat="43.30164" lon="2.65402">
        <ele>100.80000305176</ele>
        <time>2022-01-03T14:56:32.000Z</time>
      </trkpt>
      <trkpt lat="43.30168" lon="2.65408">
        <ele>100.59999847412</ele>
        <time>2022-01-03T14:56:36.000Z</time>
      </trkpt>
      <trkpt lat="43.30169" lon="2.65409">
        <ele>100.59999847412</ele>
        <time>2022-01-03T14:56:37.000Z</time>
      </trkpt>
      <trkpt lat="43.30172" lon="2.65415">
        <ele>100.19999694824</ele>
        <time>2022-01-03T14:56:41.000Z</time>
      </trkpt>
      <trkpt lat="43.30177" lon="2.65429">
        <ele>100.19999694824</ele>
        <time>2022-01-03T14:56:50.000Z</time>
      </trkpt>
      <trkpt lat="43.30177" lon="2.65432">
        <ele>100.19999694824</ele>
        <time>2022-01-03T14:56:51.000Z</time>
      </trkpt>
      <trkpt lat="43.30175" lon="2.65434">
        <ele>100.19999694824</ele>
        <time>2022-01-03T14:56:53.000Z</time>
      </trkpt>
      <trkpt lat="43.30172" lon="2.65434">
        <ele>100</ele>
        <time>2022-01-03T14:56:55.000Z</time>
      </trkpt>
      <trkpt lat="43.30163" lon="2.6543">
        <ele>100</ele>
        <time>2022-01-03T14:57:03.000Z</time>
      </trkpt>
      <trkpt lat="43.30163" lon="2.65429">
        <ele>100.19999694824</ele>
        <time>2022-01-03T14:57:06.000Z</time>
      </trkpt>
      <trkpt lat="43.30164" lon="2.65429">
        <ele>100.59999847412</ele>
        <time>2022-01-03T14:57:09.000Z</time>
      </trkpt>
      <trkpt lat="43.30164" lon="2.6543">
        <ele>101</ele>
        <time>2022-01-03T14:57:13.000Z</time>
      </trkpt>
      <trkpt lat="43.30164" lon="2.6543">
        <ele>101.40000152588</ele>
        <time>2022-01-03T14:57:15.000Z</time>
      </trkpt>
      <trkpt lat="43.30164" lon="2.6543">
        <ele>101.59999847412</ele>
        <time>2022-01-03T14:57:16.000Z</time>
      </trkpt>
      <trkpt lat="43.30164" lon="2.6543">
        <ele>102</ele>
        <time>2022-01-03T14:57:22.000Z</time>
      </trkpt>
      <trkpt lat="43.30164" lon="2.6543">
        <ele>102</ele>
        <time>2022-01-03T14:57:32.000Z</time>
      </trkpt>
      <trkpt lat="43.30165" lon="2.65429">
        <ele>101.40000152588</ele>
        <time>2022-01-03T14:57:37.000Z</time>
      </trkpt>
      <trkpt lat="43.30168" lon="2.65429">
        <ele>101</ele>
        <time>2022-01-03T14:57:40.000Z</time>
      </trkpt>
      <trkpt lat="43.3017" lon="2.65428">
        <ele>100.80000305176</ele>
        <time>2022-01-03T14:57:42.000Z</time>
      </trkpt>
      <trkpt lat="43.3017" lon="2.65427">
        <ele>100.40000152588</ele>
        <time>2022-01-03T14:57:43.000Z</time>
      </trkpt>
      <trkpt lat="43.30169" lon="2.65428">
        <ele>100.40000152588</ele>
        <time>2022-01-03T14:57:44.000Z</time>
      </trkpt>
      <trkpt lat="43.30166" lon="2.65428">
        <ele>100.19999694824</ele>
        <time>2022-01-03T14:57:46.000Z</time>
      </trkpt>
      <trkpt lat="43.30163" lon="2.65428">
        <ele>99.800003051758</ele>
        <time>2022-01-03T14:57:48.000Z</time>
      </trkpt>
      <trkpt lat="43.30158" lon="2.65427">
        <ele>99.400001525879</ele>
        <time>2022-01-03T14:57:51.000Z</time>
      </trkpt>
      <trkpt lat="43.30153" lon="2.65426">
        <ele>99.199996948242</ele>
        <time>2022-01-03T14:57:54.000Z</time>
      </trkpt>
      <trkpt lat="43.30147" lon="2.65425">
        <ele>99.599998474121</ele>
        <time>2022-01-03T14:57:58.000Z</time>
      </trkpt>
      <trkpt lat="43.30141" lon="2.65422">
        <ele>100.40000152588</ele>
        <time>2022-01-03T14:58:02.000Z</time>
      </trkpt>
      <trkpt lat="43.30134" lon="2.65418">
        <ele>100.59999847412</ele>
        <time>2022-01-03T14:58:07.000Z</time>
      </trkpt>
      <trkpt lat="43.30131" lon="2.65417">
        <ele>100.59999847412</ele>
        <time>2022-01-03T14:58:09.000Z</time>
      </trkpt>
      <trkpt lat="43.30121" lon="2.65416">
        <ele>100.59999847412</ele>
        <time>2022-01-03T14:58:16.000Z</time>
      </trkpt>
      <trkpt lat="43.3012" lon="2.65415">
        <ele>100.59999847412</ele>
        <time>2022-01-03T14:58:17.000Z</time>
      </trkpt>
      <trkpt lat="43.30118" lon="2.65414">
        <ele>100.59999847412</ele>
        <time>2022-01-03T14:58:19.000Z</time>
      </trkpt>
      <trkpt lat="43.30115" lon="2.65413">
        <ele>100.59999847412</ele>
        <time>2022-01-03T14:58:21.000Z</time>
      </trkpt>
      <trkpt lat="43.3011" lon="2.65411">
        <ele>100.19999694824</ele>
        <time>2022-01-03T14:58:24.000Z</time>
      </trkpt>
      <trkpt lat="43.30108" lon="2.65409">
        <ele>100</ele>
        <time>2022-01-03T14:58:26.000Z</time>
      </trkpt>
      <trkpt lat="43.30104" lon="2.65408">
        <ele>99.400001525879</ele>
        <time>2022-01-03T14:58:29.000Z</time>
      </trkpt>
      <trkpt lat="43.30096" lon="2.65406">
        <ele>99</ele>
        <time>2022-01-03T14:58:35.000Z</time>
      </trkpt>
      <trkpt lat="43.30088" lon="2.65402">
        <ele>99</ele>
        <time>2022-01-03T14:58:42.000Z</time>
      </trkpt>
      <trkpt lat="43.30087" lon="2.65402">
        <ele>99</ele>
        <time>2022-01-03T14:58:43.000Z</time>
      </trkpt>
      <trkpt lat="43.30077" lon="2.654">
        <ele>100.59999847412</ele>
        <time>2022-01-03T14:58:50.000Z</time>
      </trkpt>
      <trkpt lat="43.30075" lon="2.65399">
        <ele>101</ele>
        <time>2022-01-03T14:58:52.000Z</time>
      </trkpt>
      <trkpt lat="43.30071" lon="2.65399">
        <ele>101.59999847412</ele>
        <time>2022-01-03T14:58:55.000Z</time>
      </trkpt>
      <trkpt lat="43.30069" lon="2.65398">
        <ele>101.80000305176</ele>
        <time>2022-01-03T14:58:56.000Z</time>
      </trkpt>
      <trkpt lat="43.30058" lon="2.65396">
        <ele>101.19999694824</ele>
        <time>2022-01-03T14:59:05.000Z</time>
      </trkpt>
      <trkpt lat="43.30048" lon="2.65393">
        <ele>101.19999694824</ele>
        <time>2022-01-03T14:59:13.000Z</time>
      </trkpt>
      <trkpt lat="43.30033" lon="2.65392">
        <ele>100.80000305176</ele>
        <time>2022-01-03T14:59:24.000Z</time>
      </trkpt>
      <trkpt lat="43.30032" lon="2.65392">
        <ele>100.40000152588</ele>
        <time>2022-01-03T14:59:25.000Z</time>
      </trkpt>
      <trkpt lat="43.30021" lon="2.65389">
        <ele>100.40000152588</ele>
        <time>2022-01-03T14:59:34.000Z</time>
      </trkpt>
      <trkpt lat="43.30014" lon="2.65385">
        <ele>100.80000305176</ele>
        <time>2022-01-03T14:59:40.000Z</time>
      </trkpt>
      <trkpt lat="43.30009" lon="2.65383">
        <ele>101.40000152588</ele>
        <time>2022-01-03T14:59:43.000Z</time>
      </trkpt>
      <trkpt lat="43.30002" lon="2.65377">
        <ele>101</ele>
        <time>2022-01-03T14:59:50.000Z</time>
      </trkpt>
      <trkpt lat="43.29994" lon="2.65369">
        <ele>100.40000152588</ele>
        <time>2022-01-03T14:59:59.000Z</time>
      </trkpt>
      <trkpt lat="43.29982" lon="2.65358">
        <ele>101</ele>
        <time>2022-01-03T15:00:10.000Z</time>
      </trkpt>
      <trkpt lat="43.29973" lon="2.65348">
        <ele>101.19999694824</ele>
        <time>2022-01-03T15:00:19.000Z</time>
      </trkpt>
      <trkpt lat="43.29965" lon="2.6534">
        <ele>100.40000152588</ele>
        <time>2022-01-03T15:00:27.000Z</time>
      </trkpt>
      <trkpt lat="43.2996" lon="2.65335">
        <ele>100.40000152588</ele>
        <time>2022-01-03T15:00:31.000Z</time>
      </trkpt>
      <trkpt lat="43.29952" lon="2.65325">
        <ele>100</ele>
        <time>2022-01-03T15:00:40.000Z</time>
      </trkpt>
      <trkpt lat="43.29948" lon="2.65323">
        <ele>99.599998474121</ele>
        <time>2022-01-03T15:00:43.000Z</time>
      </trkpt>
      <trkpt lat="43.2994" lon="2.65318">
        <ele>99.400001525879</ele>
        <time>2022-01-03T15:00:49.000Z</time>
      </trkpt>
      <trkpt lat="43.29934" lon="2.65314">
        <ele>98.599998474121</ele>
        <time>2022-01-03T15:00:55.000Z</time>
      </trkpt>
      <trkpt lat="43.29928" lon="2.65314">
        <ele>98.199996948242</ele>
        <time>2022-01-03T15:01:00.000Z</time>
      </trkpt>
      <trkpt lat="43.29926" lon="2.65313">
        <ele>98.199996948242</ele>
        <time>2022-01-03T15:01:02.000Z</time>
      </trkpt>
      <trkpt lat="43.29917" lon="2.6531">
        <ele>99</ele>
        <time>2022-01-03T15:01:10.000Z</time>
      </trkpt>
      <trkpt lat="43.29913" lon="2.6531">
        <ele>99.199996948242</ele>
        <time>2022-01-03T15:01:13.000Z</time>
      </trkpt>
      <trkpt lat="43.29908" lon="2.65309">
        <ele>99.400001525879</ele>
        <time>2022-01-03T15:01:18.000Z</time>
      </trkpt>
      <trkpt lat="43.29905" lon="2.65309">
        <ele>99.599998474121</ele>
        <time>2022-01-03T15:01:20.000Z</time>
      </trkpt>
      <trkpt lat="43.2989" lon="2.65308">
        <ele>99.599998474121</ele>
        <time>2022-01-03T15:01:32.000Z</time>
      </trkpt>
      <trkpt lat="43.29875" lon="2.65305">
        <ele>99.400001525879</ele>
        <time>2022-01-03T15:01:44.000Z</time>
      </trkpt>
      <trkpt lat="43.29865" lon="2.65302">
        <ele>99.400001525879</ele>
        <time>2022-01-03T15:01:53.000Z</time>
      </trkpt>
      <trkpt lat="43.2986" lon="2.65302">
        <ele>99.199996948242</ele>
        <time>2022-01-03T15:01:57.000Z</time>
      </trkpt>
      <trkpt lat="43.29855" lon="2.65302">
        <ele>99.800003051758</ele>
        <time>2022-01-03T15:02:01.000Z</time>
      </trkpt>
      <trkpt lat="43.29853" lon="2.65302">
        <ele>100.19999694824</ele>
        <time>2022-01-03T15:02:02.000Z</time>
      </trkpt>
      <trkpt lat="43.29852" lon="2.65302">
        <ele>100.40000152588</ele>
        <time>2022-01-03T15:02:03.000Z</time>
      </trkpt>
      <trkpt lat="43.29845" lon="2.65301">
        <ele>100.80000305176</ele>
        <time>2022-01-03T15:02:09.000Z</time>
      </trkpt>
      <trkpt lat="43.29842" lon="2.65301">
        <ele>100.59999847412</ele>
        <time>2022-01-03T15:02:11.000Z</time>
      </trkpt>
      <trkpt lat="43.29831" lon="2.65301">
        <ele>100.19999694824</ele>
        <time>2022-01-03T15:02:20.000Z</time>
      </trkpt>
      <trkpt lat="43.29819" lon="2.65301">
        <ele>101</ele>
        <time>2022-01-03T15:02:30.000Z</time>
      </trkpt>
      <trkpt lat="43.29814" lon="2.65302">
        <ele>101.80000305176</ele>
        <time>2022-01-03T15:02:35.000Z</time>
      </trkpt>
      <trkpt lat="43.2981" lon="2.65301">
        <ele>102</ele>
        <time>2022-01-03T15:02:39.000Z</time>
      </trkpt>
      <trkpt lat="43.2981" lon="2.65301">
        <ele>102.19999694824</ele>
        <time>2022-01-03T15:02:40.000Z</time>
      </trkpt>
      <trkpt lat="43.29806" lon="2.65303">
        <ele>103</ele>
        <time>2022-01-03T15:02:43.000Z</time>
      </trkpt>
      <trkpt lat="43.29803" lon="2.65302">
        <ele>104.19999694824</ele>
        <time>2022-01-03T15:02:47.000Z</time>
      </trkpt>
      <trkpt lat="43.29802" lon="2.65303">
        <ele>104.40000152588</ele>
        <time>2022-01-03T15:02:48.000Z</time>
      </trkpt>
      <trkpt lat="43.2979" lon="2.65303">
        <ele>104</ele>
        <time>2022-01-03T15:02:58.000Z</time>
      </trkpt>
      <trkpt lat="43.29782" lon="2.65305">
        <ele>103</ele>
        <time>2022-01-03T15:03:04.000Z</time>
      </trkpt>
      <trkpt lat="43.29779" lon="2.65305">
        <ele>102.80000305176</ele>
        <time>2022-01-03T15:03:06.000Z</time>
      </trkpt>
      <trkpt lat="43.29778" lon="2.65305">
        <ele>102.80000305176</ele>
        <time>2022-01-03T15:03:07.000Z</time>
      </trkpt>
      <trkpt lat="43.29776" lon="2.65305">
        <ele>102.59999847412</ele>
        <time>2022-01-03T15:03:09.000Z</time>
      </trkpt>
      <trkpt lat="43.29768" lon="2.65305">
        <ele>102.19999694824</ele>
        <time>2022-01-03T15:03:15.000Z</time>
      </trkpt>
      <trkpt lat="43.29763" lon="2.65305">
        <ele>101.80000305176</ele>
        <time>2022-01-03T15:03:18.000Z</time>
      </trkpt>
      <trkpt lat="43.2976" lon="2.65305">
        <ele>101.59999847412</ele>
        <time>2022-01-03T15:03:20.000Z</time>
      </trkpt>
      <trkpt lat="43.29754" lon="2.65306">
        <ele>100.40000152588</ele>
        <time>2022-01-03T15:03:24.000Z</time>
      </trkpt>
      <trkpt lat="43.2975" lon="2.65306">
        <ele>99</ele>
        <time>2022-01-03T15:03:27.000Z</time>
      </trkpt>
      <trkpt lat="43.29745" lon="2.65307">
        <ele>97.599998474121</ele>
        <time>2022-01-03T15:03:31.000Z</time>
      </trkpt>
      <trkpt lat="43.29742" lon="2.65306">
        <ele>96.800003051758</ele>
        <time>2022-01-03T15:03:34.000Z</time>
      </trkpt>
      <trkpt lat="43.29739" lon="2.65306">
        <ele>96.599998474121</ele>
        <time>2022-01-03T15:03:37.000Z</time>
      </trkpt>
      <trkpt lat="43.29736" lon="2.65306">
        <ele>96.599998474121</ele>
        <time>2022-01-03T15:03:39.000Z</time>
      </trkpt>
      <trkpt lat="43.29728" lon="2.65306">
        <ele>97.599998474121</ele>
        <time>2022-01-03T15:03:47.000Z</time>
      </trkpt>
      <trkpt lat="43.29724" lon="2.65306">
        <ele>98</ele>
        <time>2022-01-03T15:03:51.000Z</time>
      </trkpt>
      <trkpt lat="43.29717" lon="2.65306">
        <ele>98.199996948242</ele>
        <time>2022-01-03T15:03:57.000Z</time>
      </trkpt>
      <trkpt lat="43.29714" lon="2.65307">
        <ele>98.599998474121</ele>
        <time>2022-01-03T15:04:01.000Z</time>
      </trkpt>
      <trkpt lat="43.29708" lon="2.65308">
        <ele>98.800003051758</ele>
        <time>2022-01-03T15:04:06.000Z</time>
      </trkpt>
      <trkpt lat="43.29703" lon="2.65309">
        <ele>99</ele>
        <time>2022-01-03T15:04:10.000Z</time>
      </trkpt>
      <trkpt lat="43.29698" lon="2.65308">
        <ele>99.199996948242</ele>
        <time>2022-01-03T15:04:15.000Z</time>
      </trkpt>
      <trkpt lat="43.29694" lon="2.65308">
        <ele>99.199996948242</ele>
        <time>2022-01-03T15:04:18.000Z</time>
      </trkpt>
      <trkpt lat="43.29689" lon="2.65307">
        <ele>99.400001525879</ele>
        <time>2022-01-03T15:04:22.000Z</time>
      </trkpt>
      <trkpt lat="43.29677" lon="2.65309">
        <ele>99.400001525879</ele>
        <time>2022-01-03T15:04:32.000Z</time>
      </trkpt>
      <trkpt lat="43.29673" lon="2.65309">
        <ele>99</ele>
        <time>2022-01-03T15:04:38.000Z</time>
      </trkpt>
      <trkpt lat="43.29674" lon="2.65309">
        <ele>99</ele>
        <time>2022-01-03T15:04:40.000Z</time>
      </trkpt>
      <trkpt lat="43.29673" lon="2.65311">
        <ele>99</ele>
        <time>2022-01-03T15:04:44.000Z</time>
      </trkpt>
      <trkpt lat="43.2967" lon="2.65312">
        <ele>99.400001525879</ele>
        <time>2022-01-03T15:04:47.000Z</time>
      </trkpt>
      <trkpt lat="43.29668" lon="2.65311">
        <ele>100</ele>
        <time>2022-01-03T15:04:49.000Z</time>
      </trkpt>
      <trkpt lat="43.29663" lon="2.65312">
        <ele>101.19999694824</ele>
        <time>2022-01-03T15:04:53.000Z</time>
      </trkpt>
      <trkpt lat="43.29661" lon="2.65312">
        <ele>101.40000152588</ele>
        <time>2022-01-03T15:04:55.000Z</time>
      </trkpt>
      <trkpt lat="43.29662" lon="2.65312">
        <ele>100</ele>
        <time>2022-01-03T15:05:02.000Z</time>
      </trkpt>
      <trkpt lat="43.29661" lon="2.65312">
        <ele>100</ele>
        <time>2022-01-03T15:05:04.000Z</time>
      </trkpt>
      <trkpt lat="43.29661" lon="2.65312">
        <ele>100.40000152588</ele>
        <time>2022-01-03T15:05:09.000Z</time>
      </trkpt>
      <trkpt lat="43.29661" lon="2.65312">
        <ele>100.40000152588</ele>
        <time>2022-01-03T15:05:15.000Z</time>
      </trkpt>
      <trkpt lat="43.29654" lon="2.65313">
        <ele>100.40000152588</ele>
        <time>2022-01-03T15:05:22.000Z</time>
      </trkpt>
      <trkpt lat="43.29638" lon="2.65313">
        <ele>100.40000152588</ele>
        <time>2022-01-03T15:05:31.000Z</time>
      </trkpt>
      <trkpt lat="43.29631" lon="2.65314">
        <ele>100.19999694824</ele>
        <time>2022-01-03T15:05:37.000Z</time>
      </trkpt>
      <trkpt lat="43.29626" lon="2.65313">
        <ele>99.800003051758</ele>
        <time>2022-01-03T15:05:41.000Z</time>
      </trkpt>
      <trkpt lat="43.29621" lon="2.65312">
        <ele>99.599998474121</ele>
        <time>2022-01-03T15:05:46.000Z</time>
      </trkpt>
      <trkpt lat="43.29616" lon="2.65312">
        <ele>99.599998474121</ele>
        <time>2022-01-03T15:05:52.000Z</time>
      </trkpt>
      <trkpt lat="43.29611" lon="2.65312">
        <ele>100</ele>
        <time>2022-01-03T15:06:01.000Z</time>
      </trkpt>
      <trkpt lat="43.29598" lon="2.65312">
        <ele>100.40000152588</ele>
        <time>2022-01-03T15:06:12.000Z</time>
      </trkpt>
      <trkpt lat="43.29592" lon="2.65311">
        <ele>100.19999694824</ele>
        <time>2022-01-03T15:06:17.000Z</time>
      </trkpt>
      <trkpt lat="43.29588" lon="2.65312">
        <ele>100.19999694824</ele>
        <time>2022-01-03T15:06:21.000Z</time>
      </trkpt>
      <trkpt lat="43.29575" lon="2.65313">
        <ele>100.19999694824</ele>
        <time>2022-01-03T15:06:31.000Z</time>
      </trkpt>
      <trkpt lat="43.29565" lon="2.65314">
        <ele>100.40000152588</ele>
        <time>2022-01-03T15:06:39.000Z</time>
      </trkpt>
      <trkpt lat="43.29563" lon="2.65313">
        <ele>100.40000152588</ele>
        <time>2022-01-03T15:06:41.000Z</time>
      </trkpt>
      <trkpt lat="43.2956" lon="2.65313">
        <ele>100.40000152588</ele>
        <time>2022-01-03T15:06:44.000Z</time>
      </trkpt>
      <trkpt lat="43.29551" lon="2.65312">
        <ele>100.19999694824</ele>
        <time>2022-01-03T15:06:51.000Z</time>
      </trkpt>
      <trkpt lat="43.29535" lon="2.65309">
        <ele>100.40000152588</ele>
        <time>2022-01-03T15:07:04.000Z</time>
      </trkpt>
      <trkpt lat="43.2952" lon="2.65309">
        <ele>99.800003051758</ele>
        <time>2022-01-03T15:07:14.000Z</time>
      </trkpt>
      <trkpt lat="43.29516" lon="2.65307">
        <ele>100.19999694824</ele>
        <time>2022-01-03T15:07:18.000Z</time>
      </trkpt>
      <trkpt lat="43.29512" lon="2.65307">
        <ele>100.59999847412</ele>
        <time>2022-01-03T15:07:21.000Z</time>
      </trkpt>
      <trkpt lat="43.29509" lon="2.65307">
        <ele>100.80000305176</ele>
        <time>2022-01-03T15:07:24.000Z</time>
      </trkpt>
      <trkpt lat="43.29506" lon="2.65307">
        <ele>100.80000305176</ele>
        <time>2022-01-03T15:07:26.000Z</time>
      </trkpt>
      <trkpt lat="43.29503" lon="2.65306">
        <ele>100.80000305176</ele>
        <time>2022-01-03T15:07:29.000Z</time>
      </trkpt>
      <trkpt lat="43.29499" lon="2.65305">
        <ele>100.40000152588</ele>
        <time>2022-01-03T15:07:33.000Z</time>
      </trkpt>
      <trkpt lat="43.29485" lon="2.65302">
        <ele>100.59999847412</ele>
        <time>2022-01-03T15:07:44.000Z</time>
      </trkpt>
      <trkpt lat="43.29473" lon="2.65301">
        <ele>100.40000152588</ele>
        <time>2022-01-03T15:07:53.000Z</time>
      </trkpt>
      <trkpt lat="43.29468" lon="2.65299">
        <ele>100.80000305176</ele>
        <time>2022-01-03T15:07:58.000Z</time>
      </trkpt>
      <trkpt lat="43.29465" lon="2.65299">
        <ele>100</ele>
        <time>2022-01-03T15:08:01.000Z</time>
      </trkpt>
      <trkpt lat="43.29451" lon="2.653">
        <ele>100</ele>
        <time>2022-01-03T15:08:12.000Z</time>
      </trkpt>
      <trkpt lat="43.2945" lon="2.653">
        <ele>100</ele>
        <time>2022-01-03T15:08:13.000Z</time>
      </trkpt>
      <trkpt lat="43.29444" lon="2.65301">
        <ele>100.19999694824</ele>
        <time>2022-01-03T15:08:18.000Z</time>
      </trkpt>
      <trkpt lat="43.29439" lon="2.65302">
        <ele>101.19999694824</ele>
        <time>2022-01-03T15:08:23.000Z</time>
      </trkpt>
      <trkpt lat="43.29435" lon="2.65302">
        <ele>101.59999847412</ele>
        <time>2022-01-03T15:08:26.000Z</time>
      </trkpt>
      <trkpt lat="43.29427" lon="2.65304">
        <ele>102</ele>
        <time>2022-01-03T15:08:34.000Z</time>
      </trkpt>
      <trkpt lat="43.29425" lon="2.65304">
        <ele>102</ele>
        <time>2022-01-03T15:08:35.000Z</time>
      </trkpt>
      <trkpt lat="43.29422" lon="2.65305">
        <ele>102.19999694824</ele>
        <time>2022-01-03T15:08:38.000Z</time>
      </trkpt>
      <trkpt lat="43.29413" lon="2.65308">
        <ele>102.19999694824</ele>
        <time>2022-01-03T15:08:46.000Z</time>
      </trkpt>
      <trkpt lat="43.29408" lon="2.65311">
        <ele>102</ele>
        <time>2022-01-03T15:08:52.000Z</time>
      </trkpt>
      <trkpt lat="43.29404" lon="2.65313">
        <ele>102.19999694824</ele>
        <time>2022-01-03T15:08:56.000Z</time>
      </trkpt>
      <trkpt lat="43.29402" lon="2.65314">
        <ele>102</ele>
        <time>2022-01-03T15:08:58.000Z</time>
      </trkpt>
      <trkpt lat="43.29394" lon="2.6532">
        <ele>101.59999847412</ele>
        <time>2022-01-03T15:09:07.000Z</time>
      </trkpt>
      <trkpt lat="43.29393" lon="2.65319">
        <ele>101.59999847412</ele>
        <time>2022-01-03T15:09:10.000Z</time>
      </trkpt>
      <trkpt lat="43.29393" lon="2.65319">
        <ele>100.80000305176</ele>
        <time>2022-01-03T15:09:13.000Z</time>
      </trkpt>
      <trkpt lat="43.29393" lon="2.6532">
        <ele>100.80000305176</ele>
        <time>2022-01-03T15:09:16.000Z</time>
      </trkpt>
      <trkpt lat="43.29393" lon="2.65319">
        <ele>100.80000305176</ele>
        <time>2022-01-03T15:09:22.000Z</time>
      </trkpt>
      <trkpt lat="43.29399" lon="2.65324">
        <ele>100.80000305176</ele>
        <time>2022-01-03T15:09:28.000Z</time>
      </trkpt>
      <trkpt lat="43.29399" lon="2.65327">
        <ele>100.80000305176</ele>
        <time>2022-01-03T15:09:32.000Z</time>
      </trkpt>
      <trkpt lat="43.29398" lon="2.65327">
        <ele>100.80000305176</ele>
        <time>2022-01-03T15:09:34.000Z</time>
      </trkpt>
      <trkpt lat="43.29389" lon="2.65326">
        <ele>100.80000305176</ele>
        <time>2022-01-03T15:09:41.000Z</time>
      </trkpt>
      <trkpt lat="43.29387" lon="2.65327">
        <ele>100.80000305176</ele>
        <time>2022-01-03T15:09:42.000Z</time>
      </trkpt>
      <trkpt lat="43.29386" lon="2.65327">
        <ele>100.80000305176</ele>
        <time>2022-01-03T15:09:43.000Z</time>
      </trkpt>
      <trkpt lat="43.29373" lon="2.65335">
        <ele>100</ele>
        <time>2022-01-03T15:09:52.000Z</time>
      </trkpt>
      <trkpt lat="43.29369" lon="2.65338">
        <ele>100</ele>
        <time>2022-01-03T15:09:55.000Z</time>
      </trkpt>
      <trkpt lat="43.29362" lon="2.65345">
        <ele>100</ele>
        <time>2022-01-03T15:10:01.000Z</time>
      </trkpt>
      <trkpt lat="43.2936" lon="2.65345">
        <ele>100</ele>
        <time>2022-01-03T15:10:02.000Z</time>
      </trkpt>
      <trkpt lat="43.29359" lon="2.65348">
        <ele>99.800003051758</ele>
        <time>2022-01-03T15:10:04.000Z</time>
      </trkpt>
      <trkpt lat="43.29355" lon="2.65352">
        <ele>99.599998474121</ele>
        <time>2022-01-03T15:10:08.000Z</time>
      </trkpt>
      <trkpt lat="43.2935" lon="2.65356">
        <ele>99.800003051758</ele>
        <time>2022-01-03T15:10:12.000Z</time>
      </trkpt>
      <trkpt lat="43.29337" lon="2.65365">
        <ele>100</ele>
        <time>2022-01-03T15:10:23.000Z</time>
      </trkpt>
      <trkpt lat="43.29327" lon="2.65371">
        <ele>98.800003051758</ele>
        <time>2022-01-03T15:10:32.000Z</time>
      </trkpt>
      <trkpt lat="43.29326" lon="2.65372">
        <ele>98.800003051758</ele>
        <time>2022-01-03T15:10:34.000Z</time>
      </trkpt>
      <trkpt lat="43.29324" lon="2.65373">
        <ele>98.599998474121</ele>
        <time>2022-01-03T15:10:37.000Z</time>
      </trkpt>
      <trkpt lat="43.29316" lon="2.65374">
        <ele>99</ele>
        <time>2022-01-03T15:10:42.000Z</time>
      </trkpt>
      <trkpt lat="43.29315" lon="2.65374">
        <ele>99</ele>
        <time>2022-01-03T15:10:43.000Z</time>
      </trkpt>
      <trkpt lat="43.29315" lon="2.65374">
        <ele>99</ele>
        <time>2022-01-03T15:10:45.000Z</time>
      </trkpt>
      <trkpt lat="43.29313" lon="2.65375">
        <ele>98.800003051758</ele>
        <time>2022-01-03T15:10:47.000Z</time>
      </trkpt>
      <trkpt lat="43.29302" lon="2.65377">
        <ele>98.400001525879</ele>
        <time>2022-01-03T15:10:58.000Z</time>
      </trkpt>
      <trkpt lat="43.29297" lon="2.65377">
        <ele>98.199996948242</ele>
        <time>2022-01-03T15:11:02.000Z</time>
      </trkpt>
      <trkpt lat="43.29294" lon="2.65373">
        <ele>98.199996948242</ele>
        <time>2022-01-03T15:11:05.000Z</time>
      </trkpt>
      <trkpt lat="43.29294" lon="2.65373">
        <ele>98.199996948242</ele>
        <time>2022-01-03T15:11:06.000Z</time>
      </trkpt>
      <trkpt lat="43.29294" lon="2.65374">
        <ele>98.199996948242</ele>
        <time>2022-01-03T15:11:16.000Z</time>
      </trkpt>
      <trkpt lat="43.2929" lon="2.65377">
        <ele>98</ele>
        <time>2022-01-03T15:11:21.000Z</time>
      </trkpt>
      <trkpt lat="43.29283" lon="2.65379">
        <ele>98.400001525879</ele>
        <time>2022-01-03T15:11:26.000Z</time>
      </trkpt>
      <trkpt lat="43.29277" lon="2.65379">
        <ele>99</ele>
        <time>2022-01-03T15:11:31.000Z</time>
      </trkpt>
      <trkpt lat="43.29274" lon="2.65379">
        <ele>99</ele>
        <time>2022-01-03T15:11:33.000Z</time>
      </trkpt>
      <trkpt lat="43.29263" lon="2.65383">
        <ele>98.199996948242</ele>
        <time>2022-01-03T15:11:42.000Z</time>
      </trkpt>
      <trkpt lat="43.29261" lon="2.65384">
        <ele>98</ele>
        <time>2022-01-03T15:11:44.000Z</time>
      </trkpt>
      <trkpt lat="43.29255" lon="2.65386">
        <ele>98.400001525879</ele>
        <time>2022-01-03T15:11:49.000Z</time>
      </trkpt>
      <trkpt lat="43.2925" lon="2.65387">
        <ele>99</ele>
        <time>2022-01-03T15:11:53.000Z</time>
      </trkpt>
      <trkpt lat="43.29249" lon="2.65387">
        <ele>99</ele>
        <time>2022-01-03T15:11:54.000Z</time>
      </trkpt>
      <trkpt lat="43.29245" lon="2.65387">
        <ele>99</ele>
        <time>2022-01-03T15:11:58.000Z</time>
      </trkpt>
      <trkpt lat="43.29238" lon="2.6539">
        <ele>99.400001525879</ele>
        <time>2022-01-03T15:12:03.000Z</time>
      </trkpt>
      <trkpt lat="43.29234" lon="2.65391">
        <ele>99.800003051758</ele>
        <time>2022-01-03T15:12:06.000Z</time>
      </trkpt>
      <trkpt lat="43.29232" lon="2.65392">
        <ele>99.800003051758</ele>
        <time>2022-01-03T15:12:08.000Z</time>
      </trkpt>
      <trkpt lat="43.29228" lon="2.65393">
        <ele>100.40000152588</ele>
        <time>2022-01-03T15:12:11.000Z</time>
      </trkpt>
      <trkpt lat="43.29227" lon="2.65393">
        <ele>100.40000152588</ele>
        <time>2022-01-03T15:12:12.000Z</time>
      </trkpt>
      <trkpt lat="43.29222" lon="2.65395">
        <ele>100.80000305176</ele>
        <time>2022-01-03T15:12:16.000Z</time>
      </trkpt>
      <trkpt lat="43.29215" lon="2.65397">
        <ele>101.19999694824</ele>
        <time>2022-01-03T15:12:21.000Z</time>
      </trkpt>
      <trkpt lat="43.2921" lon="2.65398">
        <ele>101.19999694824</ele>
        <time>2022-01-03T15:12:26.000Z</time>
      </trkpt>
      <trkpt lat="43.292" lon="2.65399">
        <ele>100</ele>
        <time>2022-01-03T15:12:34.000Z</time>
      </trkpt>
      <trkpt lat="43.29199" lon="2.654">
        <ele>99.800003051758</ele>
        <time>2022-01-03T15:12:35.000Z</time>
      </trkpt>
      <trkpt lat="43.29192" lon="2.65402">
        <ele>100.40000152588</ele>
        <time>2022-01-03T15:12:40.000Z</time>
      </trkpt>
      <trkpt lat="43.2919" lon="2.65402">
        <ele>100.59999847412</ele>
        <time>2022-01-03T15:12:43.000Z</time>
      </trkpt>
      <trkpt lat="43.29189" lon="2.65403">
        <ele>100.80000305176</ele>
        <time>2022-01-03T15:12:44.000Z</time>
      </trkpt>
      <trkpt lat="43.29184" lon="2.65404">
        <ele>101.40000152588</ele>
        <time>2022-01-03T15:12:47.000Z</time>
      </trkpt>
      <trkpt lat="43.29172" lon="2.65404">
        <ele>101.40000152588</ele>
        <time>2022-01-03T15:12:57.000Z</time>
      </trkpt>
      <trkpt lat="43.29159" lon="2.65409">
        <ele>102</ele>
        <time>2022-01-03T15:13:08.000Z</time>
      </trkpt>
      <trkpt lat="43.29158" lon="2.65409">
        <ele>102</ele>
        <time>2022-01-03T15:13:09.000Z</time>
      </trkpt>
      <trkpt lat="43.29153" lon="2.65411">
        <ele>102.19999694824</ele>
        <time>2022-01-03T15:13:13.000Z</time>
      </trkpt>
      <trkpt lat="43.29149" lon="2.65412">
        <ele>102.40000152588</ele>
        <time>2022-01-03T15:13:16.000Z</time>
      </trkpt>
      <trkpt lat="43.29145" lon="2.65413">
        <ele>102.40000152588</ele>
        <time>2022-01-03T15:13:19.000Z</time>
      </trkpt>
      <trkpt lat="43.29137" lon="2.65414">
        <ele>102</ele>
        <time>2022-01-03T15:13:25.000Z</time>
      </trkpt>
      <trkpt lat="43.2913" lon="2.65415">
        <ele>101</ele>
        <time>2022-01-03T15:13:30.000Z</time>
      </trkpt>
      <trkpt lat="43.29129" lon="2.65415">
        <ele>101</ele>
        <time>2022-01-03T15:13:31.000Z</time>
      </trkpt>
      <trkpt lat="43.29118" lon="2.65415">
        <ele>99.800003051758</ele>
        <time>2022-01-03T15:13:39.000Z</time>
      </trkpt>
      <trkpt lat="43.29114" lon="2.65416">
        <ele>99.199996948242</ele>
        <time>2022-01-03T15:13:42.000Z</time>
      </trkpt>
      <trkpt lat="43.29111" lon="2.65416">
        <ele>98.800003051758</ele>
        <time>2022-01-03T15:13:44.000Z</time>
      </trkpt>
      <trkpt lat="43.29098" lon="2.65417">
        <ele>97.800003051758</ele>
        <time>2022-01-03T15:13:54.000Z</time>
      </trkpt>
      <trkpt lat="43.29096" lon="2.65418">
        <ele>97.800003051758</ele>
        <time>2022-01-03T15:13:55.000Z</time>
      </trkpt>
      <trkpt lat="43.29082" lon="2.65417">
        <ele>97.400001525879</ele>
        <time>2022-01-03T15:14:06.000Z</time>
      </trkpt>
      <trkpt lat="43.2908" lon="2.65417">
        <ele>97.400001525879</ele>
        <time>2022-01-03T15:14:07.000Z</time>
      </trkpt>
      <trkpt lat="43.29072" lon="2.65417">
        <ele>97.800003051758</ele>
        <time>2022-01-03T15:14:14.000Z</time>
      </trkpt>
      <trkpt lat="43.29067" lon="2.65417">
        <ele>97.599998474121</ele>
        <time>2022-01-03T15:14:18.000Z</time>
      </trkpt>
      <trkpt lat="43.29066" lon="2.65417">
        <ele>97.400001525879</ele>
        <time>2022-01-03T15:14:19.000Z</time>
      </trkpt>
      <trkpt lat="43.29064" lon="2.65417">
        <ele>97.400001525879</ele>
        <time>2022-01-03T15:14:20.000Z</time>
      </trkpt>
      <trkpt lat="43.29053" lon="2.65416">
        <ele>96.800003051758</ele>
        <time>2022-01-03T15:14:31.000Z</time>
      </trkpt>
      <trkpt lat="43.2904" lon="2.65414">
        <ele>98.800003051758</ele>
        <time>2022-01-03T15:14:42.000Z</time>
      </trkpt>
      <trkpt lat="43.29039" lon="2.65413">
        <ele>98.800003051758</ele>
        <time>2022-01-03T15:14:43.000Z</time>
      </trkpt>
      <trkpt lat="43.29031" lon="2.65409">
        <ele>98.400001525879</ele>
        <time>2022-01-03T15:14:50.000Z</time>
      </trkpt>
      <trkpt lat="43.29027" lon="2.65409">
        <ele>98.199996948242</ele>
        <time>2022-01-03T15:14:53.000Z</time>
      </trkpt>
      <trkpt lat="43.29014" lon="2.65411">
        <ele>98.199996948242</ele>
        <time>2022-01-03T15:15:05.000Z</time>
      </trkpt>
      <trkpt lat="43.29013" lon="2.65412">
        <ele>98.199996948242</ele>
        <time>2022-01-03T15:15:06.000Z</time>
      </trkpt>
      <trkpt lat="43.2901" lon="2.65413">
        <ele>98.400001525879</ele>
        <time>2022-01-03T15:15:09.000Z</time>
      </trkpt>
      <trkpt lat="43.29006" lon="2.65415">
        <ele>99</ele>
        <time>2022-01-03T15:15:12.000Z</time>
      </trkpt>
      <trkpt lat="43.29003" lon="2.65417">
        <ele>99.199996948242</ele>
        <time>2022-01-03T15:15:16.000Z</time>
      </trkpt>
      <trkpt lat="43.28999" lon="2.65418">
        <ele>99.400001525879</ele>
        <time>2022-01-03T15:15:21.000Z</time>
      </trkpt>
      <trkpt lat="43.28998" lon="2.65419">
        <ele>99.400001525879</ele>
        <time>2022-01-03T15:15:22.000Z</time>
      </trkpt>
      <trkpt lat="43.28992" lon="2.6542">
        <ele>99.400001525879</ele>
        <time>2022-01-03T15:15:28.000Z</time>
      </trkpt>
      <trkpt lat="43.28989" lon="2.65423">
        <ele>99.400001525879</ele>
        <time>2022-01-03T15:15:32.000Z</time>
      </trkpt>
      <trkpt lat="43.28989" lon="2.65423">
        <ele>99.400001525879</ele>
        <time>2022-01-03T15:15:34.000Z</time>
      </trkpt>
      <trkpt lat="43.28989" lon="2.65423">
        <ele>99.599998474121</ele>
        <time>2022-01-03T15:15:38.000Z</time>
      </trkpt>
      <trkpt lat="43.28989" lon="2.65423">
        <ele>99.800003051758</ele>
        <time>2022-01-03T15:15:40.000Z</time>
      </trkpt>
      <trkpt lat="43.28983" lon="2.65426">
        <ele>99.800003051758</ele>
        <time>2022-01-03T15:15:45.000Z</time>
      </trkpt>
      <trkpt lat="43.28973" lon="2.65433">
        <ele>99.400001525879</ele>
        <time>2022-01-03T15:15:53.000Z</time>
      </trkpt>
      <trkpt lat="43.2897" lon="2.65436">
        <ele>99.400001525879</ele>
        <time>2022-01-03T15:15:56.000Z</time>
      </trkpt>
      <trkpt lat="43.28961" lon="2.65443">
        <ele>101</ele>
        <time>2022-01-03T15:16:03.000Z</time>
      </trkpt>
      <trkpt lat="43.28958" lon="2.65446">
        <ele>101.59999847412</ele>
        <time>2022-01-03T15:16:06.000Z</time>
      </trkpt>
      <trkpt lat="43.28956" lon="2.65448">
        <ele>101.40000152588</ele>
        <time>2022-01-03T15:16:08.000Z</time>
      </trkpt>
      <trkpt lat="43.28943" lon="2.65459">
        <ele>100.59999847412</ele>
        <time>2022-01-03T15:16:20.000Z</time>
      </trkpt>
      <trkpt lat="43.2894" lon="2.65463">
        <ele>100.40000152588</ele>
        <time>2022-01-03T15:16:24.000Z</time>
      </trkpt>
      <trkpt lat="43.28933" lon="2.65469">
        <ele>100.59999847412</ele>
        <time>2022-01-03T15:16:31.000Z</time>
      </trkpt>
      <trkpt lat="43.28928" lon="2.65472">
        <ele>100.59999847412</ele>
        <time>2022-01-03T15:16:35.000Z</time>
      </trkpt>
      <trkpt lat="43.2892" lon="2.65478">
        <ele>100</ele>
        <time>2022-01-03T15:16:42.000Z</time>
      </trkpt>
      <trkpt lat="43.28911" lon="2.65482">
        <ele>98.800003051758</ele>
        <time>2022-01-03T15:16:49.000Z</time>
      </trkpt>
      <trkpt lat="43.2891" lon="2.65483">
        <ele>98.599998474121</ele>
        <time>2022-01-03T15:16:51.000Z</time>
      </trkpt>
      <trkpt lat="43.28907" lon="2.65483">
        <ele>98.199996948242</ele>
        <time>2022-01-03T15:16:53.000Z</time>
      </trkpt>
      <trkpt lat="43.28906" lon="2.65484">
        <ele>98.199996948242</ele>
        <time>2022-01-03T15:16:54.000Z</time>
      </trkpt>
      <trkpt lat="43.28904" lon="2.65485">
        <ele>97.800003051758</ele>
        <time>2022-01-03T15:16:56.000Z</time>
      </trkpt>
      <trkpt lat="43.28894" lon="2.65488">
        <ele>97.400001525879</ele>
        <time>2022-01-03T15:17:04.000Z</time>
      </trkpt>
      <trkpt lat="43.2888" lon="2.65492">
        <ele>97</ele>
        <time>2022-01-03T15:17:15.000Z</time>
      </trkpt>
      <trkpt lat="43.28879" lon="2.65492">
        <ele>96.800003051758</ele>
        <time>2022-01-03T15:17:16.000Z</time>
      </trkpt>
      <trkpt lat="43.28868" lon="2.65495">
        <ele>96.599998474121</ele>
        <time>2022-01-03T15:17:24.000Z</time>
      </trkpt>
      <trkpt lat="43.2886" lon="2.65497">
        <ele>95.800003051758</ele>
        <time>2022-01-03T15:17:31.000Z</time>
      </trkpt>
      <trkpt lat="43.28858" lon="2.65497">
        <ele>95.599998474121</ele>
        <time>2022-01-03T15:17:32.000Z</time>
      </trkpt>
      <trkpt lat="43.28843" lon="2.65497">
        <ele>95</ele>
        <time>2022-01-03T15:17:44.000Z</time>
      </trkpt>
      <trkpt lat="43.2884" lon="2.65497">
        <ele>94.599998474121</ele>
        <time>2022-01-03T15:17:46.000Z</time>
      </trkpt>
      <trkpt lat="43.28832" lon="2.65496">
        <ele>93.400001525879</ele>
        <time>2022-01-03T15:17:53.000Z</time>
      </trkpt>
      <trkpt lat="43.28829" lon="2.65496">
        <ele>93.199996948242</ele>
        <time>2022-01-03T15:17:55.000Z</time>
      </trkpt>
      <trkpt lat="43.28817" lon="2.65492">
        <ele>92.800003051758</ele>
        <time>2022-01-03T15:18:05.000Z</time>
      </trkpt>
      <trkpt lat="43.28809" lon="2.65491">
        <ele>93</ele>
        <time>2022-01-03T15:18:11.000Z</time>
      </trkpt>
      <trkpt lat="43.28804" lon="2.65491">
        <ele>93.400001525879</ele>
        <time>2022-01-03T15:18:15.000Z</time>
      </trkpt>
      <trkpt lat="43.28802" lon="2.65491">
        <ele>93.199996948242</ele>
        <time>2022-01-03T15:18:16.000Z</time>
      </trkpt>
      <trkpt lat="43.28793" lon="2.6549">
        <ele>94</ele>
        <time>2022-01-03T15:18:23.000Z</time>
      </trkpt>
      <trkpt lat="43.28785" lon="2.65489">
        <ele>94</ele>
        <time>2022-01-03T15:18:30.000Z</time>
      </trkpt>
      <trkpt lat="43.28777" lon="2.65489">
        <ele>94.199996948242</ele>
        <time>2022-01-03T15:18:36.000Z</time>
      </trkpt>
      <trkpt lat="43.28775" lon="2.65489">
        <ele>94.599998474121</ele>
        <time>2022-01-03T15:18:38.000Z</time>
      </trkpt>
      <trkpt lat="43.28769" lon="2.65489">
        <ele>94.599998474121</ele>
        <time>2022-01-03T15:18:42.000Z</time>
      </trkpt>
      <trkpt lat="43.28767" lon="2.65489">
        <ele>94.599998474121</ele>
        <time>2022-01-03T15:18:43.000Z</time>
      </trkpt>
      <trkpt lat="43.28754" lon="2.65492">
        <ele>94</ele>
        <time>2022-01-03T15:18:54.000Z</time>
      </trkpt>
      <trkpt lat="43.28744" lon="2.65497">
        <ele>94.400001525879</ele>
        <time>2022-01-03T15:19:02.000Z</time>
      </trkpt>
      <trkpt lat="43.2874" lon="2.65501">
        <ele>94.800003051758</ele>
        <time>2022-01-03T15:19:06.000Z</time>
      </trkpt>
      <trkpt lat="43.28739" lon="2.65502">
        <ele>94.800003051758</ele>
        <time>2022-01-03T15:19:07.000Z</time>
      </trkpt>
      <trkpt lat="43.28732" lon="2.65505">
        <ele>95</ele>
        <time>2022-01-03T15:19:13.000Z</time>
      </trkpt>
      <trkpt lat="43.28727" lon="2.65506">
        <ele>95</ele>
        <time>2022-01-03T15:19:17.000Z</time>
      </trkpt>
      <trkpt lat="43.28722" lon="2.65509">
        <ele>95</ele>
        <time>2022-01-03T15:19:22.000Z</time>
      </trkpt>
      <trkpt lat="43.28715" lon="2.65511">
        <ele>95</ele>
        <time>2022-01-03T15:19:27.000Z</time>
      </trkpt>
      <trkpt lat="43.2871" lon="2.65513">
        <ele>94.599998474121</ele>
        <time>2022-01-03T15:19:32.000Z</time>
      </trkpt>
      <trkpt lat="43.28705" lon="2.65515">
        <ele>94.400001525879</ele>
        <time>2022-01-03T15:19:37.000Z</time>
      </trkpt>
      <trkpt lat="43.28704" lon="2.65516">
        <ele>94.400001525879</ele>
        <time>2022-01-03T15:19:38.000Z</time>
      </trkpt>
      <trkpt lat="43.28697" lon="2.65521">
        <ele>94</ele>
        <time>2022-01-03T15:19:44.000Z</time>
      </trkpt>
      <trkpt lat="43.2869" lon="2.65524">
        <ele>94</ele>
        <time>2022-01-03T15:19:49.000Z</time>
      </trkpt>
      <trkpt lat="43.28681" lon="2.65529">
        <ele>93.599998474121</ele>
        <time>2022-01-03T15:19:56.000Z</time>
      </trkpt>
      <trkpt lat="43.28677" lon="2.65531">
        <ele>93.400001525879</ele>
        <time>2022-01-03T15:19:59.000Z</time>
      </trkpt>
      <trkpt lat="43.28673" lon="2.65533">
        <ele>92.800003051758</ele>
        <time>2022-01-03T15:20:02.000Z</time>
      </trkpt>
      <trkpt lat="43.28663" lon="2.65539">
        <ele>92.599998474121</ele>
        <time>2022-01-03T15:20:10.000Z</time>
      </trkpt>
      <trkpt lat="43.2866" lon="2.65541">
        <ele>92.800003051758</ele>
        <time>2022-01-03T15:20:13.000Z</time>
      </trkpt>
      <trkpt lat="43.28652" lon="2.65543">
        <ele>92.800003051758</ele>
        <time>2022-01-03T15:20:20.000Z</time>
      </trkpt>
      <trkpt lat="43.28651" lon="2.65544">
        <ele>93</ele>
        <time>2022-01-03T15:20:21.000Z</time>
      </trkpt>
      <trkpt lat="43.28645" lon="2.65546">
        <ele>92.400001525879</ele>
        <time>2022-01-03T15:20:25.000Z</time>
      </trkpt>
      <trkpt lat="43.28636" lon="2.65552">
        <ele>92.400001525879</ele>
        <time>2022-01-03T15:20:35.000Z</time>
      </trkpt>
      <trkpt lat="43.28632" lon="2.65554">
        <ele>93.599998474121</ele>
        <time>2022-01-03T15:20:38.000Z</time>
      </trkpt>
      <trkpt lat="43.28628" lon="2.65556">
        <ele>95</ele>
        <time>2022-01-03T15:20:41.000Z</time>
      </trkpt>
      <trkpt lat="43.28624" lon="2.65558">
        <ele>95.400001525879</ele>
        <time>2022-01-03T15:20:44.000Z</time>
      </trkpt>
      <trkpt lat="43.28621" lon="2.65559">
        <ele>95.599998474121</ele>
        <time>2022-01-03T15:20:47.000Z</time>
      </trkpt>
      <trkpt lat="43.2862" lon="2.6556">
        <ele>95.599998474121</ele>
        <time>2022-01-03T15:20:48.000Z</time>
      </trkpt>
      <trkpt lat="43.28608" lon="2.65564">
        <ele>95.599998474121</ele>
        <time>2022-01-03T15:20:57.000Z</time>
      </trkpt>
      <trkpt lat="43.28605" lon="2.65565">
        <ele>95.400001525879</ele>
        <time>2022-01-03T15:20:59.000Z</time>
      </trkpt>
      <trkpt lat="43.286" lon="2.65568">
        <ele>94.800003051758</ele>
        <time>2022-01-03T15:21:04.000Z</time>
      </trkpt>
      <trkpt lat="43.28598" lon="2.65569">
        <ele>94.400001525879</ele>
        <time>2022-01-03T15:21:06.000Z</time>
      </trkpt>
      <trkpt lat="43.28591" lon="2.6557">
        <ele>94.199996948242</ele>
        <time>2022-01-03T15:21:11.000Z</time>
      </trkpt>
      <trkpt lat="43.28582" lon="2.65572">
        <ele>93.800003051758</ele>
        <time>2022-01-03T15:21:18.000Z</time>
      </trkpt>
      <trkpt lat="43.28579" lon="2.65573">
        <ele>93.400001525879</ele>
        <time>2022-01-03T15:21:21.000Z</time>
      </trkpt>
      <trkpt lat="43.28577" lon="2.65572">
        <ele>93.199996948242</ele>
        <time>2022-01-03T15:21:23.000Z</time>
      </trkpt>
      <trkpt lat="43.28576" lon="2.65572">
        <ele>92.800003051758</ele>
        <time>2022-01-03T15:21:24.000Z</time>
      </trkpt>
      <trkpt lat="43.28573" lon="2.65571">
        <ele>92.800003051758</ele>
        <time>2022-01-03T15:21:27.000Z</time>
      </trkpt>
      <trkpt lat="43.28571" lon="2.65571">
        <ele>92.800003051758</ele>
        <time>2022-01-03T15:21:28.000Z</time>
      </trkpt>
      <trkpt lat="43.28566" lon="2.65571">
        <ele>92.599998474121</ele>
        <time>2022-01-03T15:21:32.000Z</time>
      </trkpt>
      <trkpt lat="43.28563" lon="2.6557">
        <ele>92.599998474121</ele>
        <time>2022-01-03T15:21:34.000Z</time>
      </trkpt>
      <trkpt lat="43.28558" lon="2.65569">
        <ele>91.800003051758</ele>
        <time>2022-01-03T15:21:38.000Z</time>
      </trkpt>
      <trkpt lat="43.28557" lon="2.65569">
        <ele>91.400001525879</ele>
        <time>2022-01-03T15:21:39.000Z</time>
      </trkpt>
      <trkpt lat="43.28553" lon="2.65569">
        <ele>90</ele>
        <time>2022-01-03T15:21:42.000Z</time>
      </trkpt>
      <trkpt lat="43.28552" lon="2.65569">
        <ele>89.599998474121</ele>
        <time>2022-01-03T15:21:43.000Z</time>
      </trkpt>
      <trkpt lat="43.28549" lon="2.65569">
        <ele>89</ele>
        <time>2022-01-03T15:21:45.000Z</time>
      </trkpt>
      <trkpt lat="43.2854" lon="2.65569">
        <ele>88.400001525879</ele>
        <time>2022-01-03T15:21:53.000Z</time>
      </trkpt>
      <trkpt lat="43.28533" lon="2.65569">
        <ele>88.199996948242</ele>
        <time>2022-01-03T15:22:01.000Z</time>
      </trkpt>
      <trkpt lat="43.28532" lon="2.65569">
        <ele>88.199996948242</ele>
        <time>2022-01-03T15:22:02.000Z</time>
      </trkpt>
      <trkpt lat="43.28529" lon="2.65569">
        <ele>88.400001525879</ele>
        <time>2022-01-03T15:22:04.000Z</time>
      </trkpt>
      <trkpt lat="43.28523" lon="2.6557">
        <ele>88.800003051758</ele>
        <time>2022-01-03T15:22:08.000Z</time>
      </trkpt>
      <trkpt lat="43.28516" lon="2.65572">
        <ele>90</ele>
        <time>2022-01-03T15:22:14.000Z</time>
      </trkpt>
      <trkpt lat="43.28515" lon="2.65573">
        <ele>90.199996948242</ele>
        <time>2022-01-03T15:22:15.000Z</time>
      </trkpt>
      <trkpt lat="43.2851" lon="2.65574">
        <ele>90.599998474121</ele>
        <time>2022-01-03T15:22:19.000Z</time>
      </trkpt>
      <trkpt lat="43.28501" lon="2.65579">
        <ele>90.800003051758</ele>
        <time>2022-01-03T15:22:27.000Z</time>
      </trkpt>
      <trkpt lat="43.28495" lon="2.6558">
        <ele>91.199996948242</ele>
        <time>2022-01-03T15:22:32.000Z</time>
      </trkpt>
      <trkpt lat="43.28492" lon="2.65581">
        <ele>91.599998474121</ele>
        <time>2022-01-03T15:22:34.000Z</time>
      </trkpt>
      <trkpt lat="43.28487" lon="2.65583">
        <ele>91.800003051758</ele>
        <time>2022-01-03T15:22:39.000Z</time>
      </trkpt>
      <trkpt lat="43.28483" lon="2.65584">
        <ele>91.599998474121</ele>
        <time>2022-01-03T15:22:43.000Z</time>
      </trkpt>
      <trkpt lat="43.2848" lon="2.65585">
        <ele>91.400001525879</ele>
        <time>2022-01-03T15:22:45.000Z</time>
      </trkpt>
      <trkpt lat="43.28474" lon="2.65587">
        <ele>91.599998474121</ele>
        <time>2022-01-03T15:22:51.000Z</time>
      </trkpt>
      <trkpt lat="43.28469" lon="2.65589">
        <ele>92.400001525879</ele>
        <time>2022-01-03T15:22:55.000Z</time>
      </trkpt>
      <trkpt lat="43.28467" lon="2.6559">
        <ele>93</ele>
        <time>2022-01-03T15:22:57.000Z</time>
      </trkpt>
      <trkpt lat="43.28466" lon="2.65591">
        <ele>93.199996948242</ele>
        <time>2022-01-03T15:22:58.000Z</time>
      </trkpt>
      <trkpt lat="43.28464" lon="2.65592">
        <ele>93.400001525879</ele>
        <time>2022-01-03T15:23:00.000Z</time>
      </trkpt>
      <trkpt lat="43.28459" lon="2.65594">
        <ele>94</ele>
        <time>2022-01-03T15:23:05.000Z</time>
      </trkpt>
      <trkpt lat="43.28451" lon="2.65599">
        <ele>93.800003051758</ele>
        <time>2022-01-03T15:23:12.000Z</time>
      </trkpt>
      <trkpt lat="43.28446" lon="2.65601">
        <ele>92.800003051758</ele>
        <time>2022-01-03T15:23:16.000Z</time>
      </trkpt>
      <trkpt lat="43.28444" lon="2.65602">
        <ele>92.199996948242</ele>
        <time>2022-01-03T15:23:18.000Z</time>
      </trkpt>
      <trkpt lat="43.28442" lon="2.65604">
        <ele>91</ele>
        <time>2022-01-03T15:23:21.000Z</time>
      </trkpt>
      <trkpt lat="43.28439" lon="2.65606">
        <ele>89.800003051758</ele>
        <time>2022-01-03T15:23:24.000Z</time>
      </trkpt>
      <trkpt lat="43.28437" lon="2.65606">
        <ele>89.400001525879</ele>
        <time>2022-01-03T15:23:25.000Z</time>
      </trkpt>
      <trkpt lat="43.28436" lon="2.65607">
        <ele>89.199996948242</ele>
        <time>2022-01-03T15:23:26.000Z</time>
      </trkpt>
      <trkpt lat="43.28434" lon="2.65607">
        <ele>88.800003051758</ele>
        <time>2022-01-03T15:23:28.000Z</time>
      </trkpt>
      <trkpt lat="43.28428" lon="2.6561">
        <ele>89.199996948242</ele>
        <time>2022-01-03T15:23:35.000Z</time>
      </trkpt>
      <trkpt lat="43.28423" lon="2.65612">
        <ele>90</ele>
        <time>2022-01-03T15:23:39.000Z</time>
      </trkpt>
      <trkpt lat="43.28419" lon="2.65614">
        <ele>89.599998474121</ele>
        <time>2022-01-03T15:23:43.000Z</time>
      </trkpt>
      <trkpt lat="43.28412" lon="2.65616">
        <ele>88.599998474121</ele>
        <time>2022-01-03T15:23:49.000Z</time>
      </trkpt>
      <trkpt lat="43.28411" lon="2.65617">
        <ele>87.400001525879</ele>
        <time>2022-01-03T15:23:51.000Z</time>
      </trkpt>
      <trkpt lat="43.28408" lon="2.65619">
        <ele>86.400001525879</ele>
        <time>2022-01-03T15:23:54.000Z</time>
      </trkpt>
      <trkpt lat="43.28399" lon="2.65625">
        <ele>85.800003051758</ele>
        <time>2022-01-03T15:24:02.000Z</time>
      </trkpt>
      <trkpt lat="43.28391" lon="2.65629">
        <ele>85.800003051758</ele>
        <time>2022-01-03T15:24:09.000Z</time>
      </trkpt>
      <trkpt lat="43.28387" lon="2.6563">
        <ele>85.800003051758</ele>
        <time>2022-01-03T15:24:13.000Z</time>
      </trkpt>
      <trkpt lat="43.28381" lon="2.65634">
        <ele>85.400001525879</ele>
        <time>2022-01-03T15:24:19.000Z</time>
      </trkpt>
      <trkpt lat="43.28378" lon="2.65634">
        <ele>84.400001525879</ele>
        <time>2022-01-03T15:24:21.000Z</time>
      </trkpt>
      <trkpt lat="43.28377" lon="2.65635">
        <ele>84</ele>
        <time>2022-01-03T15:24:22.000Z</time>
      </trkpt>
      <trkpt lat="43.28373" lon="2.65637">
        <ele>82.800003051758</ele>
        <time>2022-01-03T15:24:26.000Z</time>
      </trkpt>
      <trkpt lat="43.28372" lon="2.65638">
        <ele>82.199996948242</ele>
        <time>2022-01-03T15:24:27.000Z</time>
      </trkpt>
      <trkpt lat="43.28369" lon="2.65638">
        <ele>81.400001525879</ele>
        <time>2022-01-03T15:24:29.000Z</time>
      </trkpt>
      <trkpt lat="43.28364" lon="2.6564">
        <ele>80.800003051758</ele>
        <time>2022-01-03T15:24:34.000Z</time>
      </trkpt>
      <trkpt lat="43.28361" lon="2.65641">
        <ele>81.400001525879</ele>
        <time>2022-01-03T15:24:37.000Z</time>
      </trkpt>
      <trkpt lat="43.28354" lon="2.65643">
        <ele>82.400001525879</ele>
        <time>2022-01-03T15:24:45.000Z</time>
      </trkpt>
      <trkpt lat="43.28351" lon="2.65643">
        <ele>82.199996948242</ele>
        <time>2022-01-03T15:24:48.000Z</time>
      </trkpt>
      <trkpt lat="43.28344" lon="2.65647">
        <ele>82.599998474121</ele>
        <time>2022-01-03T15:24:56.000Z</time>
      </trkpt>
      <trkpt lat="43.28339" lon="2.65648">
        <ele>83</ele>
        <time>2022-01-03T15:25:00.000Z</time>
      </trkpt>
      <trkpt lat="43.28334" lon="2.65649">
        <ele>83.400001525879</ele>
        <time>2022-01-03T15:25:04.000Z</time>
      </trkpt>
      <trkpt lat="43.28333" lon="2.65649">
        <ele>83.599998474121</ele>
        <time>2022-01-03T15:25:05.000Z</time>
      </trkpt>
      <trkpt lat="43.28323" lon="2.65651">
        <ele>84.199996948242</ele>
        <time>2022-01-03T15:25:14.000Z</time>
      </trkpt>
      <trkpt lat="43.28323" lon="2.65651">
        <ele>84.199996948242</ele>
        <time>2022-01-03T15:25:15.000Z</time>
      </trkpt>
      <trkpt lat="43.28319" lon="2.65651">
        <ele>84.599998474121</ele>
        <time>2022-01-03T15:25:18.000Z</time>
      </trkpt>
      <trkpt lat="43.28305" lon="2.65652">
        <ele>85.599998474121</ele>
        <time>2022-01-03T15:25:29.000Z</time>
      </trkpt>
      <trkpt lat="43.28303" lon="2.65652">
        <ele>85.800003051758</ele>
        <time>2022-01-03T15:25:30.000Z</time>
      </trkpt>
      <trkpt lat="43.28292" lon="2.65655">
        <ele>84</ele>
        <time>2022-01-03T15:25:40.000Z</time>
      </trkpt>
      <trkpt lat="43.28291" lon="2.65654">
        <ele>83.400001525879</ele>
        <time>2022-01-03T15:25:41.000Z</time>
      </trkpt>
      <trkpt lat="43.28291" lon="2.65654">
        <ele>82.599998474121</ele>
        <time>2022-01-03T15:25:42.000Z</time>
      </trkpt>
      <trkpt lat="43.28285" lon="2.65653">
        <ele>82.199996948242</ele>
        <time>2022-01-03T15:25:46.000Z</time>
      </trkpt>
      <trkpt lat="43.28279" lon="2.65655">
        <ele>82.199996948242</ele>
        <time>2022-01-03T15:25:53.000Z</time>
      </trkpt>
      <trkpt lat="43.28273" lon="2.65655">
        <ele>82.199996948242</ele>
        <time>2022-01-03T15:25:58.000Z</time>
      </trkpt>
      <trkpt lat="43.28264" lon="2.65656">
        <ele>83.400001525879</ele>
        <time>2022-01-03T15:26:06.000Z</time>
      </trkpt>
      <trkpt lat="43.28261" lon="2.65657">
        <ele>83</ele>
        <time>2022-01-03T15:26:10.000Z</time>
      </trkpt>
      <trkpt lat="43.28248" lon="2.65654">
        <ele>83</ele>
        <time>2022-01-03T15:26:20.000Z</time>
      </trkpt>
      <trkpt lat="43.28244" lon="2.65654">
        <ele>83</ele>
        <time>2022-01-03T15:26:24.000Z</time>
      </trkpt>
      <trkpt lat="43.28238" lon="2.65651">
        <ele>83</ele>
        <time>2022-01-03T15:26:28.000Z</time>
      </trkpt>
      <trkpt lat="43.28228" lon="2.65649">
        <ele>83.599998474121</ele>
        <time>2022-01-03T15:26:36.000Z</time>
      </trkpt>
      <trkpt lat="43.28227" lon="2.65649">
        <ele>84</ele>
        <time>2022-01-03T15:26:37.000Z</time>
      </trkpt>
      <trkpt lat="43.28226" lon="2.65648">
        <ele>84</ele>
        <time>2022-01-03T15:26:38.000Z</time>
      </trkpt>
      <trkpt lat="43.28222" lon="2.65647">
        <ele>84.599998474121</ele>
        <time>2022-01-03T15:26:42.000Z</time>
      </trkpt>
      <trkpt lat="43.28217" lon="2.65649">
        <ele>85.400001525879</ele>
        <time>2022-01-03T15:26:45.000Z</time>
      </trkpt>
      <trkpt lat="43.28217" lon="2.6565">
        <ele>85.800003051758</ele>
        <time>2022-01-03T15:26:46.000Z</time>
      </trkpt>
      <trkpt lat="43.28212" lon="2.65648">
        <ele>86.199996948242</ele>
        <time>2022-01-03T15:26:51.000Z</time>
      </trkpt>
      <trkpt lat="43.28208" lon="2.65649">
        <ele>86.199996948242</ele>
        <time>2022-01-03T15:26:55.000Z</time>
      </trkpt>
      <trkpt lat="43.28206" lon="2.65649">
        <ele>86.800003051758</ele>
        <time>2022-01-03T15:26:57.000Z</time>
      </trkpt>
      <trkpt lat="43.28199" lon="2.65646">
        <ele>88</ele>
        <time>2022-01-03T15:27:05.000Z</time>
      </trkpt>
      <trkpt lat="43.28198" lon="2.65646">
        <ele>88</ele>
        <time>2022-01-03T15:27:06.000Z</time>
      </trkpt>
      <trkpt lat="43.28196" lon="2.65645">
        <ele>88.400001525879</ele>
        <time>2022-01-03T15:27:08.000Z</time>
      </trkpt>
      <trkpt lat="43.28193" lon="2.65644">
        <ele>88.599998474121</ele>
        <time>2022-01-03T15:27:12.000Z</time>
      </trkpt>
      <trkpt lat="43.28189" lon="2.65644">
        <ele>88.800003051758</ele>
        <time>2022-01-03T15:27:16.000Z</time>
      </trkpt>
      <trkpt lat="43.28185" lon="2.65643">
        <ele>89</ele>
        <time>2022-01-03T15:27:18.000Z</time>
      </trkpt>
      <trkpt lat="43.2818" lon="2.65641">
        <ele>88.599998474121</ele>
        <time>2022-01-03T15:27:23.000Z</time>
      </trkpt>
      <trkpt lat="43.28176" lon="2.6564">
        <ele>86.800003051758</ele>
        <time>2022-01-03T15:27:27.000Z</time>
      </trkpt>
      <trkpt lat="43.2817" lon="2.65637">
        <ele>86.199996948242</ele>
        <time>2022-01-03T15:27:31.000Z</time>
      </trkpt>
      <trkpt lat="43.28162" lon="2.65634">
        <ele>86.599998474121</ele>
        <time>2022-01-03T15:27:36.000Z</time>
      </trkpt>
      <trkpt lat="43.2816" lon="2.65634">
        <ele>86.199996948242</ele>
        <time>2022-01-03T15:27:38.000Z</time>
      </trkpt>
      <trkpt lat="43.28157" lon="2.65633">
        <ele>86.400001525879</ele>
        <time>2022-01-03T15:27:41.000Z</time>
      </trkpt>
      <trkpt lat="43.28152" lon="2.65632">
        <ele>86.199996948242</ele>
        <time>2022-01-03T15:27:45.000Z</time>
      </trkpt>
      <trkpt lat="43.28152" lon="2.65632">
        <ele>86</ele>
        <time>2022-01-03T15:27:46.000Z</time>
      </trkpt>
      <trkpt lat="43.28145" lon="2.65633">
        <ele>85.800003051758</ele>
        <time>2022-01-03T15:27:52.000Z</time>
      </trkpt>
      <trkpt lat="43.28142" lon="2.65632">
        <ele>85.800003051758</ele>
        <time>2022-01-03T15:27:55.000Z</time>
      </trkpt>
      <trkpt lat="43.28136" lon="2.6563">
        <ele>85.599998474121</ele>
        <time>2022-01-03T15:28:00.000Z</time>
      </trkpt>
      <trkpt lat="43.28132" lon="2.65631">
        <ele>85.599998474121</ele>
        <time>2022-01-03T15:28:04.000Z</time>
      </trkpt>
      <trkpt lat="43.28131" lon="2.6563">
        <ele>86</ele>
        <time>2022-01-03T15:28:05.000Z</time>
      </trkpt>
      <trkpt lat="43.28128" lon="2.6563">
        <ele>86</ele>
        <time>2022-01-03T15:28:07.000Z</time>
      </trkpt>
      <trkpt lat="43.28126" lon="2.65631">
        <ele>86.400001525879</ele>
        <time>2022-01-03T15:28:09.000Z</time>
      </trkpt>
      <trkpt lat="43.2812" lon="2.6563">
        <ele>86.800003051758</ele>
        <time>2022-01-03T15:28:13.000Z</time>
      </trkpt>
      <trkpt lat="43.28116" lon="2.6563">
        <ele>86.800003051758</ele>
        <time>2022-01-03T15:28:16.000Z</time>
      </trkpt>
      <trkpt lat="43.28106" lon="2.65631">
        <ele>87.599998474121</ele>
        <time>2022-01-03T15:28:24.000Z</time>
      </trkpt>
      <trkpt lat="43.28098" lon="2.65629">
        <ele>87.400001525879</ele>
        <time>2022-01-03T15:28:31.000Z</time>
      </trkpt>
      <trkpt lat="43.28095" lon="2.65629">
        <ele>87.199996948242</ele>
        <time>2022-01-03T15:28:34.000Z</time>
      </trkpt>
      <trkpt lat="43.28092" lon="2.6563">
        <ele>86.599998474121</ele>
        <time>2022-01-03T15:28:36.000Z</time>
      </trkpt>
      <trkpt lat="43.28084" lon="2.65628">
        <ele>85.800003051758</ele>
        <time>2022-01-03T15:28:43.000Z</time>
      </trkpt>
      <trkpt lat="43.28081" lon="2.65628">
        <ele>85.800003051758</ele>
        <time>2022-01-03T15:28:45.000Z</time>
      </trkpt>
      <trkpt lat="43.28073" lon="2.65627">
        <ele>86.800003051758</ele>
        <time>2022-01-03T15:28:52.000Z</time>
      </trkpt>
      <trkpt lat="43.28068" lon="2.65626">
        <ele>87</ele>
        <time>2022-01-03T15:28:55.000Z</time>
      </trkpt>
      <trkpt lat="43.28061" lon="2.65626">
        <ele>86.599998474121</ele>
        <time>2022-01-03T15:29:01.000Z</time>
      </trkpt>
      <trkpt lat="43.28059" lon="2.65626">
        <ele>86.199996948242</ele>
        <time>2022-01-03T15:29:03.000Z</time>
      </trkpt>
      <trkpt lat="43.28056" lon="2.65625">
        <ele>86</ele>
        <time>2022-01-03T15:29:05.000Z</time>
      </trkpt>
      <trkpt lat="43.2805" lon="2.65624">
        <ele>86</ele>
        <time>2022-01-03T15:29:10.000Z</time>
      </trkpt>
      <trkpt lat="43.28048" lon="2.65624">
        <ele>86</ele>
        <time>2022-01-03T15:29:11.000Z</time>
      </trkpt>
      <trkpt lat="43.28046" lon="2.65622">
        <ele>86.199996948242</ele>
        <time>2022-01-03T15:29:13.000Z</time>
      </trkpt>
      <trkpt lat="43.28046" lon="2.65622">
        <ele>86.199996948242</ele>
        <time>2022-01-03T15:29:14.000Z</time>
      </trkpt>
      <trkpt lat="43.28036" lon="2.65621">
        <ele>86.199996948242</ele>
        <time>2022-01-03T15:29:22.000Z</time>
      </trkpt>
      <trkpt lat="43.28028" lon="2.65621">
        <ele>85.800003051758</ele>
        <time>2022-01-03T15:29:29.000Z</time>
      </trkpt>
      <trkpt lat="43.28026" lon="2.6562">
        <ele>85.599998474121</ele>
        <time>2022-01-03T15:29:30.000Z</time>
      </trkpt>
      <trkpt lat="43.28024" lon="2.6562">
        <ele>85.400001525879</ele>
        <time>2022-01-03T15:29:31.000Z</time>
      </trkpt>
      <trkpt lat="43.28016" lon="2.65611">
        <ele>86.599998474121</ele>
        <time>2022-01-03T15:29:38.000Z</time>
      </trkpt>
      <trkpt lat="43.28017" lon="2.6561">
        <ele>86.599998474121</ele>
        <time>2022-01-03T15:29:39.000Z</time>
      </trkpt>
      <trkpt lat="43.28018" lon="2.65608">
        <ele>87.199996948242</ele>
        <time>2022-01-03T15:29:42.000Z</time>
      </trkpt>
      <trkpt lat="43.28019" lon="2.65607">
        <ele>87.400001525879</ele>
        <time>2022-01-03T15:29:44.000Z</time>
      </trkpt>
      <trkpt lat="43.2802" lon="2.65608">
        <ele>87.400001525879</ele>
        <time>2022-01-03T15:29:49.000Z</time>
      </trkpt>
      <trkpt lat="43.2802" lon="2.65607">
        <ele>87.800003051758</ele>
        <time>2022-01-03T15:29:51.000Z</time>
      </trkpt>
      <trkpt lat="43.28018" lon="2.65607">
        <ele>87.800003051758</ele>
        <time>2022-01-03T15:29:56.000Z</time>
      </trkpt>
      <trkpt lat="43.28021" lon="2.65611">
        <ele>87.800003051758</ele>
        <time>2022-01-03T15:30:04.000Z</time>
      </trkpt>
      <trkpt lat="43.28021" lon="2.65612">
        <ele>87.800003051758</ele>
        <time>2022-01-03T15:30:13.000Z</time>
      </trkpt>
      <trkpt lat="43.28021" lon="2.65612">
        <ele>87.800003051758</ele>
        <time>2022-01-03T15:30:15.000Z</time>
      </trkpt>
      <trkpt lat="43.28021" lon="2.65612">
        <ele>87.800003051758</ele>
        <time>2022-01-03T15:30:16.000Z</time>
      </trkpt>
      <trkpt lat="43.28021" lon="2.65612">
        <ele>87.800003051758</ele>
        <time>2022-01-03T15:30:21.000Z</time>
      </trkpt>
      <trkpt lat="43.28021" lon="2.65612">
        <ele>87.800003051758</ele>
        <time>2022-01-03T15:30:22.000Z</time>
      </trkpt>
      <trkpt lat="43.2802" lon="2.65619">
        <ele>87.800003051758</ele>
        <time>2022-01-03T15:30:28.000Z</time>
      </trkpt>
      <trkpt lat="43.28017" lon="2.65618">
        <ele>87.800003051758</ele>
        <time>2022-01-03T15:30:37.000Z</time>
      </trkpt>
      <trkpt lat="43.28017" lon="2.65619">
        <ele>87.800003051758</ele>
        <time>2022-01-03T15:30:47.000Z</time>
      </trkpt>
      <trkpt lat="43.28013" lon="2.65618">
        <ele>87.800003051758</ele>
        <time>2022-01-03T15:31:14.000Z</time>
      </trkpt>
      <trkpt lat="43.28013" lon="2.65618">
        <ele>87.800003051758</ele>
        <time>2022-01-03T15:31:20.000Z</time>
      </trkpt>
      <trkpt lat="43.28013" lon="2.65618">
        <ele>87.800003051758</ele>
        <time>2022-01-03T15:31:27.000Z</time>
      </trkpt>
      <trkpt lat="43.28012" lon="2.65618">
        <ele>87.800003051758</ele>
        <time>2022-01-03T15:31:31.000Z</time>
      </trkpt>
      <trkpt lat="43.28012" lon="2.65617">
        <ele>87.800003051758</ele>
        <time>2022-01-03T15:31:40.000Z</time>
      </trkpt>
      <trkpt lat="43.28013" lon="2.65617">
        <ele>87.800003051758</ele>
        <time>2022-01-03T15:31:50.000Z</time>
      </trkpt>
      <trkpt lat="43.28013" lon="2.65617">
        <ele>87.800003051758</ele>
        <time>2022-01-03T15:31:54.000Z</time>
      </trkpt>
      <trkpt lat="43.28007" lon="2.65617">
        <ele>87.800003051758</ele>
        <time>2022-01-03T15:31:59.000Z</time>
      </trkpt>
      <trkpt lat="43.27995" lon="2.65616">
        <ele>87.800003051758</ele>
        <time>2022-01-03T15:32:08.000Z</time>
      </trkpt>
      <trkpt lat="43.27986" lon="2.65618">
        <ele>87.599998474121</ele>
        <time>2022-01-03T15:32:16.000Z</time>
      </trkpt>
      <trkpt lat="43.27975" lon="2.65613">
        <ele>87.400001525879</ele>
        <time>2022-01-03T15:32:24.000Z</time>
      </trkpt>
      <trkpt lat="43.27963" lon="2.6561">
        <ele>87.199996948242</ele>
        <time>2022-01-03T15:32:33.000Z</time>
      </trkpt>
      <trkpt lat="43.27956" lon="2.65608">
        <ele>87.599998474121</ele>
        <time>2022-01-03T15:32:41.000Z</time>
      </trkpt>
      <trkpt lat="43.27946" lon="2.65604">
        <ele>87.599998474121</ele>
        <time>2022-01-03T15:32:50.000Z</time>
      </trkpt>
      <trkpt lat="43.27942" lon="2.65603">
        <ele>87.599998474121</ele>
        <time>2022-01-03T15:32:53.000Z</time>
      </trkpt>
      <trkpt lat="43.2794" lon="2.65603">
        <ele>87.800003051758</ele>
        <time>2022-01-03T15:32:56.000Z</time>
      </trkpt>
      <trkpt lat="43.2794" lon="2.65603">
        <ele>87.800003051758</ele>
        <time>2022-01-03T15:32:57.000Z</time>
      </trkpt>
      <trkpt lat="43.27939" lon="2.65604">
        <ele>87.800003051758</ele>
        <time>2022-01-03T15:32:58.000Z</time>
      </trkpt>
      <trkpt lat="43.27938" lon="2.65604">
        <ele>87.800003051758</ele>
        <time>2022-01-03T15:33:00.000Z</time>
      </trkpt>
      <trkpt lat="43.27935" lon="2.65601">
        <ele>87.800003051758</ele>
        <time>2022-01-03T15:33:04.000Z</time>
      </trkpt>
      <trkpt lat="43.27933" lon="2.656">
        <ele>88</ele>
        <time>2022-01-03T15:33:08.000Z</time>
      </trkpt>
      <trkpt lat="43.27932" lon="2.65601">
        <ele>88</ele>
        <time>2022-01-03T15:33:10.000Z</time>
      </trkpt>
      <trkpt lat="43.27931" lon="2.65602">
        <ele>87.800003051758</ele>
        <time>2022-01-03T15:33:11.000Z</time>
      </trkpt>
      <trkpt lat="43.2793" lon="2.65604">
        <ele>87.800003051758</ele>
        <time>2022-01-03T15:33:13.000Z</time>
      </trkpt>
      <trkpt lat="43.27927" lon="2.65606">
        <ele>87.800003051758</ele>
        <time>2022-01-03T15:33:16.000Z</time>
      </trkpt>
      <trkpt lat="43.27925" lon="2.6561">
        <ele>87.800003051758</ele>
        <time>2022-01-03T15:33:19.000Z</time>
      </trkpt>
      <trkpt lat="43.27924" lon="2.65615">
        <ele>87.800003051758</ele>
        <time>2022-01-03T15:33:22.000Z</time>
      </trkpt>
      <trkpt lat="43.27922" lon="2.65617">
        <ele>87.800003051758</ele>
        <time>2022-01-03T15:33:24.000Z</time>
      </trkpt>
      <trkpt lat="43.27917" lon="2.65626">
        <ele>87.800003051758</ele>
        <time>2022-01-03T15:33:31.000Z</time>
      </trkpt>
      <trkpt lat="43.27913" lon="2.65633">
        <ele>88.800003051758</ele>
        <time>2022-01-03T15:33:37.000Z</time>
      </trkpt>
      <trkpt lat="43.27913" lon="2.65634">
        <ele>88.800003051758</ele>
        <time>2022-01-03T15:33:38.000Z</time>
      </trkpt>
      <trkpt lat="43.27911" lon="2.65636">
        <ele>89.199996948242</ele>
        <time>2022-01-03T15:33:40.000Z</time>
      </trkpt>
      <trkpt lat="43.27908" lon="2.65639">
        <ele>89.400001525879</ele>
        <time>2022-01-03T15:33:43.000Z</time>
      </trkpt>
      <trkpt lat="43.27903" lon="2.65642">
        <ele>90</ele>
        <time>2022-01-03T15:33:46.000Z</time>
      </trkpt>
      <trkpt lat="43.27901" lon="2.65648">
        <ele>90.199996948242</ele>
        <time>2022-01-03T15:33:49.000Z</time>
      </trkpt>
      <trkpt lat="43.27898" lon="2.65655">
        <ele>90</ele>
        <time>2022-01-03T15:33:54.000Z</time>
      </trkpt>
      <trkpt lat="43.27898" lon="2.65656">
        <ele>90</ele>
        <time>2022-01-03T15:33:55.000Z</time>
      </trkpt>
      <trkpt lat="43.27898" lon="2.65658">
        <ele>90.199996948242</ele>
        <time>2022-01-03T15:33:56.000Z</time>
      </trkpt>
      <trkpt lat="43.27897" lon="2.65659">
        <ele>90.199996948242</ele>
        <time>2022-01-03T15:33:57.000Z</time>
      </trkpt>
      <trkpt lat="43.27893" lon="2.65664">
        <ele>90.800003051758</ele>
        <time>2022-01-03T15:34:01.000Z</time>
      </trkpt>
      <trkpt lat="43.27892" lon="2.65665">
        <ele>91.400001525879</ele>
        <time>2022-01-03T15:34:02.000Z</time>
      </trkpt>
      <trkpt lat="43.27891" lon="2.65668">
        <ele>92.599998474121</ele>
        <time>2022-01-03T15:34:05.000Z</time>
      </trkpt>
      <trkpt lat="43.27889" lon="2.6567">
        <ele>93</ele>
        <time>2022-01-03T15:34:07.000Z</time>
      </trkpt>
      <trkpt lat="43.27885" lon="2.65677">
        <ele>93.199996948242</ele>
        <time>2022-01-03T15:34:14.000Z</time>
      </trkpt>
      <trkpt lat="43.27885" lon="2.65677">
        <ele>93.400001525879</ele>
        <time>2022-01-03T15:34:15.000Z</time>
      </trkpt>
      <trkpt lat="43.27885" lon="2.65677">
        <ele>93</ele>
        <time>2022-01-03T15:34:16.000Z</time>
      </trkpt>
      <trkpt lat="43.27885" lon="2.65677">
        <ele>92.599998474121</ele>
        <time>2022-01-03T15:34:20.000Z</time>
      </trkpt>
      <trkpt lat="43.27884" lon="2.65678">
        <ele>92.800003051758</ele>
        <time>2022-01-03T15:34:22.000Z</time>
      </trkpt>
      <trkpt lat="43.2788" lon="2.65684">
        <ele>93.400001525879</ele>
        <time>2022-01-03T15:34:26.000Z</time>
      </trkpt>
      <trkpt lat="43.2788" lon="2.65685">
        <ele>93.599998474121</ele>
        <time>2022-01-03T15:34:27.000Z</time>
      </trkpt>
      <trkpt lat="43.27879" lon="2.65687">
        <ele>93.800003051758</ele>
        <time>2022-01-03T15:34:28.000Z</time>
      </trkpt>
      <trkpt lat="43.27878" lon="2.65691">
        <ele>94.400001525879</ele>
        <time>2022-01-03T15:34:31.000Z</time>
      </trkpt>
      <trkpt lat="43.27872" lon="2.65695">
        <ele>94.599998474121</ele>
        <time>2022-01-03T15:34:35.000Z</time>
      </trkpt>
      <trkpt lat="43.27871" lon="2.65697">
        <ele>94.199996948242</ele>
        <time>2022-01-03T15:34:36.000Z</time>
      </trkpt>
      <trkpt lat="43.27869" lon="2.657">
        <ele>94.400001525879</ele>
        <time>2022-01-03T15:34:38.000Z</time>
      </trkpt>
      <trkpt lat="43.27867" lon="2.65703">
        <ele>93.599998474121</ele>
        <time>2022-01-03T15:34:41.000Z</time>
      </trkpt>
      <trkpt lat="43.27865" lon="2.65705">
        <ele>92</ele>
        <time>2022-01-03T15:34:43.000Z</time>
      </trkpt>
      <trkpt lat="43.27864" lon="2.65708">
        <ele>90.800003051758</ele>
        <time>2022-01-03T15:34:45.000Z</time>
      </trkpt>
      <trkpt lat="43.27864" lon="2.65708">
        <ele>90</ele>
        <time>2022-01-03T15:34:48.000Z</time>
      </trkpt>
      <trkpt lat="43.27865" lon="2.65708">
        <ele>89.599998474121</ele>
        <time>2022-01-03T15:34:49.000Z</time>
      </trkpt>
      <trkpt lat="43.27865" lon="2.65708">
        <ele>89</ele>
        <time>2022-01-03T15:34:51.000Z</time>
      </trkpt>
      <trkpt lat="43.27865" lon="2.65708">
        <ele>88.800003051758</ele>
        <time>2022-01-03T15:34:52.000Z</time>
      </trkpt>
      <trkpt lat="43.27865" lon="2.65708">
        <ele>88.400001525879</ele>
        <time>2022-01-03T15:34:53.000Z</time>
      </trkpt>
      <trkpt lat="43.27865" lon="2.65708">
        <ele>88.400001525879</ele>
        <time>2022-01-03T15:34:55.000Z</time>
      </trkpt>
      <trkpt lat="43.27865" lon="2.65708">
        <ele>88.599998474121</ele>
        <time>2022-01-03T15:34:56.000Z</time>
      </trkpt>
      <trkpt lat="43.27865" lon="2.65708">
        <ele>88.400001525879</ele>
        <time>2022-01-03T15:35:12.000Z</time>
      </trkpt>
      <trkpt lat="43.27864" lon="2.65709">
        <ele>89.599998474121</ele>
        <time>2022-01-03T15:35:19.000Z</time>
      </trkpt>
      <trkpt lat="43.27864" lon="2.65709">
        <ele>90.800003051758</ele>
        <time>2022-01-03T15:35:22.000Z</time>
      </trkpt>
      <trkpt lat="43.27863" lon="2.65709">
        <ele>92</ele>
        <time>2022-01-03T15:35:25.000Z</time>
      </trkpt>
      <trkpt lat="43.27863" lon="2.65709">
        <ele>93.199996948242</ele>
        <time>2022-01-03T15:35:28.000Z</time>
      </trkpt>
      <trkpt lat="43.27863" lon="2.65709">
        <ele>94.199996948242</ele>
        <time>2022-01-03T15:35:31.000Z</time>
      </trkpt>
      <trkpt lat="43.27863" lon="2.65708">
        <ele>95.199996948242</ele>
        <time>2022-01-03T15:35:38.000Z</time>
      </trkpt>
      <trkpt lat="43.27863" lon="2.65708">
        <ele>95.400001525879</ele>
        <time>2022-01-03T15:35:44.000Z</time>
      </trkpt>
      <trkpt lat="43.27863" lon="2.65708">
        <ele>95.400001525879</ele>
        <time>2022-01-03T15:35:48.000Z</time>
      </trkpt>
      <trkpt lat="43.27863" lon="2.65708">
        <ele>95.400001525879</ele>
        <time>2022-01-03T15:35:54.000Z</time>
      </trkpt>
      <trkpt lat="43.27863" lon="2.65708">
        <ele>95.400001525879</ele>
        <time>2022-01-03T15:36:07.000Z</time>
      </trkpt>
      <trkpt lat="43.27863" lon="2.65708">
        <ele>93</ele>
        <time>2022-01-03T15:36:12.000Z</time>
      </trkpt>
      <trkpt lat="43.27863" lon="2.65708">
        <ele>91.400001525879</ele>
        <time>2022-01-03T15:36:13.000Z</time>
      </trkpt>
      <trkpt lat="43.27863" lon="2.65708">
        <ele>87.599998474121</ele>
        <time>2022-01-03T15:36:14.000Z</time>
      </trkpt>
      <trkpt lat="43.27863" lon="2.65709">
        <ele>85.599998474121</ele>
        <time>2022-01-03T15:36:15.000Z</time>
      </trkpt>
      <trkpt lat="43.27863" lon="2.65709">
        <ele>84</ele>
        <time>2022-01-03T15:36:17.000Z</time>
      </trkpt>
      <trkpt lat="43.27863" lon="2.65709">
        <ele>82.800003051758</ele>
        <time>2022-01-03T15:36:19.000Z</time>
      </trkpt>
      <trkpt lat="43.27863" lon="2.65709">
        <ele>81.800003051758</ele>
        <time>2022-01-03T15:36:21.000Z</time>
      </trkpt>
      <trkpt lat="43.27863" lon="2.6571">
        <ele>80.599998474121</ele>
        <time>2022-01-03T15:36:24.000Z</time>
      </trkpt>
      <trkpt lat="43.27863" lon="2.6571">
        <ele>90.400001525879</ele>
        <time>2022-01-03T15:36:27.000Z</time>
      </trkpt>
      <trkpt lat="43.27863" lon="2.6571">
        <ele>92.800003051758</ele>
        <time>2022-01-03T15:36:28.000Z</time>
      </trkpt>
      <trkpt lat="43.27863" lon="2.6571">
        <ele>94</ele>
        <time>2022-01-03T15:36:29.000Z</time>
      </trkpt>
      <trkpt lat="43.27863" lon="2.6571">
        <ele>94.800003051758</ele>
        <time>2022-01-03T15:36:30.000Z</time>
      </trkpt>
      <trkpt lat="43.27863" lon="2.6571">
        <ele>95.199996948242</ele>
        <time>2022-01-03T15:36:31.000Z</time>
      </trkpt>
      <trkpt lat="43.27863" lon="2.6571">
        <ele>95.599998474121</ele>
        <time>2022-01-03T15:36:35.000Z</time>
      </trkpt>
      <trkpt lat="43.27863" lon="2.6571">
        <ele>96</ele>
        <time>2022-01-03T15:36:40.000Z</time>
      </trkpt>
      <trkpt lat="43.27861" lon="2.65711">
        <ele>95.800003051758</ele>
        <time>2022-01-03T15:36:45.000Z</time>
      </trkpt>
      <trkpt lat="43.27858" lon="2.65714">
        <ele>95.800003051758</ele>
        <time>2022-01-03T15:36:47.000Z</time>
      </trkpt>
      <trkpt lat="43.27854" lon="2.65718">
        <ele>95.599998474121</ele>
        <time>2022-01-03T15:36:51.000Z</time>
      </trkpt>
      <trkpt lat="43.27853" lon="2.6572">
        <ele>95.599998474121</ele>
        <time>2022-01-03T15:36:53.000Z</time>
      </trkpt>
      <trkpt lat="43.27852" lon="2.65721">
        <ele>95.599998474121</ele>
        <time>2022-01-03T15:36:55.000Z</time>
      </trkpt>
      <trkpt lat="43.27848" lon="2.65727">
        <ele>95.800003051758</ele>
        <time>2022-01-03T15:36:59.000Z</time>
      </trkpt>
      <trkpt lat="43.27842" lon="2.65737">
        <ele>95.800003051758</ele>
        <time>2022-01-03T15:37:07.000Z</time>
      </trkpt>
      <trkpt lat="43.27837" lon="2.65751">
        <ele>95.800003051758</ele>
        <time>2022-01-03T15:37:16.000Z</time>
      </trkpt>
      <trkpt lat="43.27836" lon="2.65752">
        <ele>95.800003051758</ele>
        <time>2022-01-03T15:37:17.000Z</time>
      </trkpt>
      <trkpt lat="43.27835" lon="2.65755">
        <ele>95.800003051758</ele>
        <time>2022-01-03T15:37:19.000Z</time>
      </trkpt>
      <trkpt lat="43.27832" lon="2.65758">
        <ele>95.800003051758</ele>
        <time>2022-01-03T15:37:22.000Z</time>
      </trkpt>
      <trkpt lat="43.27831" lon="2.6576">
        <ele>95.800003051758</ele>
        <time>2022-01-03T15:37:24.000Z</time>
      </trkpt>
      <trkpt lat="43.2783" lon="2.6576">
        <ele>95.800003051758</ele>
        <time>2022-01-03T15:37:25.000Z</time>
      </trkpt>
      <trkpt lat="43.27822" lon="2.65763">
        <ele>95.800003051758</ele>
        <time>2022-01-03T15:37:33.000Z</time>
      </trkpt>
      <trkpt lat="43.27818" lon="2.65762">
        <ele>94.800003051758</ele>
        <time>2022-01-03T15:37:39.000Z</time>
      </trkpt>
      <trkpt lat="43.27817" lon="2.65762">
        <ele>94.400001525879</ele>
        <time>2022-01-03T15:37:40.000Z</time>
      </trkpt>
      <trkpt lat="43.27816" lon="2.6576">
        <ele>93.800003051758</ele>
        <time>2022-01-03T15:37:42.000Z</time>
      </trkpt>
      <trkpt lat="43.27815" lon="2.65759">
        <ele>93.800003051758</ele>
        <time>2022-01-03T15:37:43.000Z</time>
      </trkpt>
      <trkpt lat="43.2781" lon="2.65757">
        <ele>93.800003051758</ele>
        <time>2022-01-03T15:37:46.000Z</time>
      </trkpt>
      <trkpt lat="43.27806" lon="2.65756">
        <ele>95.800003051758</ele>
        <time>2022-01-03T15:37:50.000Z</time>
      </trkpt>
      <trkpt lat="43.27805" lon="2.65757">
        <ele>96.400001525879</ele>
        <time>2022-01-03T15:37:51.000Z</time>
      </trkpt>
      <trkpt lat="43.27804" lon="2.65756">
        <ele>97.199996948242</ele>
        <time>2022-01-03T15:37:52.000Z</time>
      </trkpt>
      <trkpt lat="43.27803" lon="2.65757">
        <ele>97.800003051758</ele>
        <time>2022-01-03T15:37:53.000Z</time>
      </trkpt>
      <trkpt lat="43.27802" lon="2.65758">
        <ele>98.199996948242</ele>
        <time>2022-01-03T15:37:54.000Z</time>
      </trkpt>
      <trkpt lat="43.278" lon="2.65762">
        <ele>98.800003051758</ele>
        <time>2022-01-03T15:37:56.000Z</time>
      </trkpt>
      <trkpt lat="43.27798" lon="2.65764">
        <ele>99.400001525879</ele>
        <time>2022-01-03T15:37:58.000Z</time>
      </trkpt>
      <trkpt lat="43.27797" lon="2.65765">
        <ele>100</ele>
        <time>2022-01-03T15:37:59.000Z</time>
      </trkpt>
      <trkpt lat="43.27797" lon="2.65768">
        <ele>100.59999847412</ele>
        <time>2022-01-03T15:38:01.000Z</time>
      </trkpt>
      <trkpt lat="43.27797" lon="2.65771">
        <ele>101</ele>
        <time>2022-01-03T15:38:02.000Z</time>
      </trkpt>
      <trkpt lat="43.27796" lon="2.65777">
        <ele>101.19999694824</ele>
        <time>2022-01-03T15:38:05.000Z</time>
      </trkpt>
      <trkpt lat="43.27797" lon="2.65778">
        <ele>101.59999847412</ele>
        <time>2022-01-03T15:38:06.000Z</time>
      </trkpt>
      <trkpt lat="43.27797" lon="2.65782">
        <ele>102.80000305176</ele>
        <time>2022-01-03T15:38:09.000Z</time>
      </trkpt>
      <trkpt lat="43.27797" lon="2.65784">
        <ele>103.19999694824</ele>
        <time>2022-01-03T15:38:10.000Z</time>
      </trkpt>
      <trkpt lat="43.27796" lon="2.65789">
        <ele>104</ele>
        <time>2022-01-03T15:38:12.000Z</time>
      </trkpt>
      <trkpt lat="43.27796" lon="2.6579">
        <ele>104.40000152588</ele>
        <time>2022-01-03T15:38:13.000Z</time>
      </trkpt>
      <trkpt lat="43.27796" lon="2.65793">
        <ele>105</ele>
        <time>2022-01-03T15:38:15.000Z</time>
      </trkpt>
      <trkpt lat="43.27797" lon="2.65795">
        <ele>105.40000152588</ele>
        <time>2022-01-03T15:38:16.000Z</time>
      </trkpt>
      <trkpt lat="43.27798" lon="2.65798">
        <ele>105.80000305176</ele>
        <time>2022-01-03T15:38:17.000Z</time>
      </trkpt>
      <trkpt lat="43.27799" lon="2.65799">
        <ele>105.80000305176</ele>
        <time>2022-01-03T15:38:18.000Z</time>
      </trkpt>
      <trkpt lat="43.27799" lon="2.65801">
        <ele>106</ele>
        <time>2022-01-03T15:38:20.000Z</time>
      </trkpt>
      <trkpt lat="43.27799" lon="2.65802">
        <ele>106.19999694824</ele>
        <time>2022-01-03T15:38:21.000Z</time>
      </trkpt>
      <trkpt lat="43.27797" lon="2.65806">
        <ele>106</ele>
        <time>2022-01-03T15:38:23.000Z</time>
      </trkpt>
      <trkpt lat="43.27797" lon="2.65811">
        <ele>105.59999847412</ele>
        <time>2022-01-03T15:38:26.000Z</time>
      </trkpt>
      <trkpt lat="43.27797" lon="2.65815">
        <ele>105.59999847412</ele>
        <time>2022-01-03T15:38:28.000Z</time>
      </trkpt>
      <trkpt lat="43.27796" lon="2.65817">
        <ele>106</ele>
        <time>2022-01-03T15:38:29.000Z</time>
      </trkpt>
      <trkpt lat="43.27796" lon="2.65823">
        <ele>105.80000305176</ele>
        <time>2022-01-03T15:38:33.000Z</time>
      </trkpt>
      <trkpt lat="43.27794" lon="2.65826">
        <ele>106</ele>
        <time>2022-01-03T15:38:35.000Z</time>
      </trkpt>
      <trkpt lat="43.27794" lon="2.65829">
        <ele>106.59999847412</ele>
        <time>2022-01-03T15:38:37.000Z</time>
      </trkpt>
      <trkpt lat="43.27795" lon="2.65832">
        <ele>107.40000152588</ele>
        <time>2022-01-03T15:38:39.000Z</time>
      </trkpt>
      <trkpt lat="43.27796" lon="2.65834">
        <ele>107.80000305176</ele>
        <time>2022-01-03T15:38:40.000Z</time>
      </trkpt>
      <trkpt lat="43.27795" lon="2.65836">
        <ele>109</ele>
        <time>2022-01-03T15:38:41.000Z</time>
      </trkpt>
      <trkpt lat="43.27796" lon="2.6584">
        <ele>110.59999847412</ele>
        <time>2022-01-03T15:38:43.000Z</time>
      </trkpt>
      <trkpt lat="43.27796" lon="2.65843">
        <ele>112.40000152588</ele>
        <time>2022-01-03T15:38:45.000Z</time>
      </trkpt>
      <trkpt lat="43.27796" lon="2.65843">
        <ele>113</ele>
        <time>2022-01-03T15:38:46.000Z</time>
      </trkpt>
      <trkpt lat="43.27797" lon="2.65847">
        <ele>113.80000305176</ele>
        <time>2022-01-03T15:38:48.000Z</time>
      </trkpt>
      <trkpt lat="43.27797" lon="2.65854">
        <ele>112.40000152588</ele>
        <time>2022-01-03T15:38:53.000Z</time>
      </trkpt>
      <trkpt lat="43.27797" lon="2.65857">
        <ele>111.40000152588</ele>
        <time>2022-01-03T15:38:55.000Z</time>
      </trkpt>
      <trkpt lat="43.27795" lon="2.65861">
        <ele>110.19999694824</ele>
        <time>2022-01-03T15:38:58.000Z</time>
      </trkpt>
      <trkpt lat="43.27795" lon="2.65866">
        <ele>109.40000152588</ele>
        <time>2022-01-03T15:39:01.000Z</time>
      </trkpt>
      <trkpt lat="43.27797" lon="2.65873">
        <ele>109</ele>
        <time>2022-01-03T15:39:05.000Z</time>
      </trkpt>
      <trkpt lat="43.27796" lon="2.65874">
        <ele>108</ele>
        <time>2022-01-03T15:39:07.000Z</time>
      </trkpt>
      <trkpt lat="43.27796" lon="2.65877">
        <ele>107.80000305176</ele>
        <time>2022-01-03T15:39:08.000Z</time>
      </trkpt>
      <trkpt lat="43.27795" lon="2.6588">
        <ele>107.40000152588</ele>
        <time>2022-01-03T15:39:10.000Z</time>
      </trkpt>
      <trkpt lat="43.27795" lon="2.65881">
        <ele>106.80000305176</ele>
        <time>2022-01-03T15:39:11.000Z</time>
      </trkpt>
      <trkpt lat="43.27794" lon="2.65882">
        <ele>105.80000305176</ele>
        <time>2022-01-03T15:39:13.000Z</time>
      </trkpt>
      <trkpt lat="43.27794" lon="2.65883">
        <ele>105.19999694824</ele>
        <time>2022-01-03T15:39:15.000Z</time>
      </trkpt>
      <trkpt lat="43.27795" lon="2.65885">
        <ele>105.19999694824</ele>
        <time>2022-01-03T15:39:19.000Z</time>
      </trkpt>
      <trkpt lat="43.27795" lon="2.65885">
        <ele>105.19999694824</ele>
        <time>2022-01-03T15:39:20.000Z</time>
      </trkpt>
    </trkseg>
  </trk>
</gpx>